[[{"header":{"parameterUnit":"m.s-1","parameterCategory":1,"la1":30.6,"la2":29.2853,"lo1":-89.7004,"lo2":-87.6739,"dy":0.0162,"dx":0.0183,"nx":112,"ny":82,"refTime":"2024-05-04T06:00:00:Z","depth":0,"parameterNumber":2,"parameterNumberName":"U-component_of_WINDS"},"data":[0.0,0.0,0.0,0.0,0.0,0.0,0.0,0.0,0.0,0.0,0.0,0.0,0.0,0.0,0.0,0.0,0.0,0.0,0.0,0.0,0.0,0.0,0.0,0.0,0.0,0.0,0.0,0.0,0.0,0.0,0.0,0.0,0.0,0.0,0.0,0.0,0.0,0.0,0.0,0.0,0.0,0.0,0.0,0.0,0.0,0.0,0.0,0.0,0.0,0.0,0.0,0.0,0.0,0.0,0.0,0.0,0.0,0.0,0.0,0.0,0.0,0.0,0.0,0.0,0.0,0.0,0.0,0.0,0.0,0.0,0.0,0.0,0.0,0.0,0.0,0.0,0.0,0.0,0.0,0.0,0.0,0.0,0.0,0.0,0.0,0.0,0.0,0.0,0.0,0.0,-1.0549,-1.1172,-1.1973,-1.2414,-1.2259,-1.1721,-1.0839,-0.9514,0.0,0.0,0.0,0.0,0.0,0.0,0.0,0.0,0.0,0.0,0.0,0.0,0.0,0.0,0.0,0.0,0.0,0.0,0.0,0.0,0.0,0.0,0.0,0.0,0.0,0.0,0.0,0.0,0.0,0.0,0.0,0.0,0.0,0.0,0.0,0.0,0.0,0.0,0.0,0.0,0.0,0.0,0.0,0.0,0.0,0.0,0.0,0.0,0.0,0.0,0.0,0.0,0.0,0.0,0.0,0.0,0.0,0.0,0.0,0.0,0.0,0.0,0.0,0.0,0.0,0.0,0.0,0.0,0.0,0.0,0.0,0.0,0.0,0.0,0.0,0.0,0.0,0.0,0.0,0.0,0.0,0.0,0.0,0.0,0.0,0.0,0.0,0.0,0.0,0.0,0.0,0.0,0.0,0.0,0.0,0.0,0.0,0.0,0.0,0.0,0.0,0.0,0.0,0.0,-1.0812,-1.1661,-1.1908,-1.1845,-1.1493,-1.0308,-0.9473,-0.9167,0.0,0.0,0.0,0.0,0.0,0.0,0.0,0.0,0.0,0.0,0.0,0.0,0.0,0.0,0.0,0.0,0.0,0.0,0.0,0.0,0.0,0.0,0.0,0.0,0.0,0.0,0.0,0.0,0.0,0.0,0.0,0.0,0.0,0.0,0.0,0.0,0.0,0.0,0.0,0.0,0.0,0.0,0.0,0.0,0.0,0.0,0.0,0.0,0.0,0.0,0.0,0.0,0.0,0.0,0.0,0.0,0.0,0.0,0.0,0.0,0.0,0.0,0.0,0.0,0.0,0.0,0.0,0.0,0.0,0.0,0.0,0.0,0.0,0.0,0.0,0.0,0.0,0.0,0.0,0.0,0.0,0.0,0.0,0.0,0.0,0.0,0.0,0.0,0.0,0.0,0.0,0.0,0.0,0.0,0.0,0.0,0.0,0.0,0.0,0.0,0.0,0.0,0.0,-1.2188,-1.2104,-1.2105,-1.2007,-1.166,-1.1031,-0.9897,-0.9176,-0.9105,-0.886,0.0,0.0,0.0,0.0,0.0,0.0,0.0,0.0,0.0,0.0,0.0,0.0,0.0,0.0,0.0,0.0,0.0,0.0,0.0,0.0,0.0,0.0,0.0,0.0,0.0,0.0,0.0,0.0,0.0,0.0,0.0,0.0,0.0,0.0,0.0,0.0,0.0,0.0,0.0,0.0,0.0,0.0,0.0,0.0,0.0,0.0,0.0,0.0,0.0,0.0,0.0,0.0,0.0,0.0,0.0,0.0,0.0,0.0,0.0,0.0,0.0,0.0,0.0,0.0,0.0,0.0,0.0,0.0,0.0,0.0,0.0,0.0,0.0,0.0,0.0,0.0,0.0,0.0,0.0,0.0,0.0,0.0,0.0,0.0,0.0,0.0,0.0,0.0,0.0,0.0,0.0,0.0,0.0,0.0,0.0,0.0,0.0,0.0,0.0,0.0,0.0,0.0,-1.341,-1.3029,-1.2164,-1.192,-1.1411,-1.0434,-0.9439,-0.8913,-0.8967,-0.8688,0.0,0.0,0.0,0.0,0.0,0.0,0.0,0.0,0.0,0.0,0.0,0.0,0.0,0.0,0.0,0.0,0.0,0.0,0.0,0.0,0.0,0.0,0.0,0.0,0.0,0.0,0.0,0.0,0.0,0.0,0.0,0.0,0.0,0.0,0.0,0.0,0.0,0.0,0.0,0.0,0.0,0.0,0.0,0.0,0.0,0.0,0.0,0.0,0.0,0.0,0.0,0.0,0.0,0.0,0.0,0.0,0.0,0.0,0.0,0.0,0.0,0.0,0.0,0.0,0.0,0.0,0.0,0.0,0.0,0.0,0.0,0.0,0.0,0.0,0.0,0.0,0.0,0.0,0.0,0.0,0.0,0.0,0.0,0.0,0.0,0.0,0.0,0.0,0.0,0.0,0.0,0.0,0.0,0.0,0.0,0.0,0.0,0.0,0.0,0.0,0.0,0.0,-1.2954,-1.2537,-1.1484,-1.1471,-1.0925,-0.9425,-0.8497,-0.8175,-0.8606,-0.8432,0.0,0.0,0.0,0.0,0.0,0.0,0.0,0.0,0.0,0.0,0.0,0.0,0.0,0.0,0.0,0.0,0.0,0.0,0.0,0.0,0.0,0.0,0.0,0.0,0.0,0.0,0.0,0.0,0.0,0.0,0.0,0.0,0.0,0.0,0.0,0.0,0.0,0.0,0.0,0.0,0.0,0.0,0.0,0.0,0.0,0.0,0.0,0.0,0.0,0.0,0.0,0.0,0.0,0.0,0.0,0.0,0.0,0.0,0.0,0.0,0.0,0.0,0.0,0.0,0.0,0.0,0.0,0.0,0.0,0.0,0.0,0.0,0.0,0.0,0.0,0.0,0.0,0.0,0.0,0.0,0.0,0.0,0.0,0.0,0.0,0.0,0.0,0.0,0.0,0.0,0.0,0.0,0.0,0.0,0.0,0.0,0.0,0.0,0.0,0.0,0.0,0.0,-1.3281,-1.2748,-1.1717,-1.1268,-1.0665,-0.9657,-0.8751,-0.8311,-0.8594,0.0,0.0,0.0,0.0,0.0,0.0,0.0,0.0,0.0,0.0,0.0,0.0,0.0,0.0,0.0,0.0,0.0,0.0,0.0,0.0,0.0,0.0,0.0,0.0,0.0,0.0,0.0,0.0,0.0,0.0,0.0,0.0,0.0,0.0,0.0,0.0,0.0,0.0,0.0,0.0,0.0,0.0,0.0,0.0,0.0,0.0,0.0,0.0,0.0,0.0,0.0,0.0,0.0,0.0,0.0,0.0,0.0,0.0,0.0,0.0,0.0,0.0,0.0,0.0,0.0,0.0,0.0,0.0,0.0,0.0,0.0,0.0,0.0,0.0,0.0,0.0,0.0,0.0,0.0,0.0,0.0,0.0,0.0,0.0,0.0,0.0,0.0,0.0,0.0,0.0,0.0,0.0,0.0,0.0,0.0,0.0,0.0,0.0,0.0,0.0,0.0,0.0,-1.3785,-1.3433,-1.2742,-1.1605,-1.1065,-1.0432,-0.9562,-0.865,-0.8259,-0.8584,0.0,0.0,0.0,0.0,0.0,0.0,0.0,0.0,0.0,0.0,0.0,0.0,0.0,0.0,0.0,0.0,0.0,0.0,0.0,0.0,0.0,0.0,0.0,0.0,0.0,0.0,0.0,0.0,0.0,0.0,0.0,0.0,0.0,0.0,0.0,0.0,0.0,0.0,0.0,0.0,0.0,0.0,0.0,0.0,0.0,0.0,0.0,0.0,0.0,0.0,0.0,0.0,0.0,0.0,0.0,0.0,0.0,0.0,0.0,0.0,0.0,0.0,0.0,0.0,0.0,0.0,0.0,0.0,0.0,0.0,0.0,0.0,0.0,0.0,0.0,0.0,0.0,0.0,0.0,0.0,0.0,0.0,0.0,0.0,0.0,0.0,0.0,0.0,0.0,0.0,0.0,0.0,0.0,0.0,0.0,0.0,0.0,0.0,0.0,0.0,0.0,0.0,-1.3799,-1.3271,-1.2363,-1.0965,-1.0788,-1.0269,-0.8936,-0.8013,-0.7829,0.0,0.0,0.0,0.0,0.0,0.0,0.0,0.0,0.0,0.0,0.0,0.0,0.0,0.0,0.0,0.0,0.0,0.0,0.0,0.0,0.0,0.0,0.0,0.0,0.0,0.0,0.0,0.0,0.0,0.0,0.0,0.0,0.0,0.0,0.0,0.0,0.0,0.0,0.0,0.0,0.0,0.0,0.0,0.0,0.0,0.0,0.0,0.0,0.0,0.0,0.0,0.0,0.0,0.0,0.0,0.0,0.0,0.0,0.0,0.0,0.0,0.0,0.0,0.0,0.0,0.0,0.0,0.0,0.0,0.0,0.0,0.0,0.0,0.0,0.0,0.0,0.0,0.0,0.0,0.0,0.0,0.0,0.0,0.0,0.0,0.0,0.0,0.0,0.0,0.0,0.0,0.0,0.0,0.0,0.0,0.0,0.0,0.0,0.0,0.0,0.0,0.0,0.0,-1.3779,-1.3271,-1.2535,-1.1616,-1.1091,-1.0448,-0.9588,-0.8445,-0.7876,-0.8089,0.0,0.0,0.0,0.0,0.0,0.0,0.0,0.0,0.0,0.0,0.0,0.0,0.0,0.0,0.0,0.0,0.0,0.0,0.0,0.0,0.0,0.0,0.0,0.0,0.0,0.0,0.0,0.0,0.0,0.0,0.0,0.0,0.0,0.0,0.0,0.0,0.0,0.0,0.0,0.0,0.0,0.0,0.0,0.0,0.0,0.0,0.0,0.0,0.0,0.0,0.0,0.0,0.0,0.0,0.0,0.0,0.0,0.0,0.0,0.0,0.0,0.0,0.0,0.0,0.0,0.0,0.0,0.0,0.0,0.0,0.0,0.0,0.0,0.0,0.0,0.0,0.0,0.0,0.0,0.0,0.0,0.0,0.0,0.0,0.0,0.0,0.0,0.0,0.0,0.0,0.0,0.0,0.0,0.0,0.0,0.0,0.0,0.0,0.0,0.0,0.0,0.0,-1.3759,-1.3271,-1.251,-1.1516,-1.104,-1.0423,-0.9484,-0.8479,-0.7912,-0.7912,0.0,0.0,0.0,0.0,0.0,0.0,0.0,0.0,0.0,0.0,0.0,0.0,0.0,0.0,0.0,0.0,0.0,0.0,0.0,0.0,0.0,0.0,0.0,0.0,0.0,0.0,0.0,0.0,0.0,0.0,0.0,0.0,0.0,0.0,0.0,0.0,0.0,0.0,0.0,0.0,0.0,0.0,0.0,0.0,0.0,0.0,0.0,0.0,0.0,0.0,0.0,0.0,0.0,0.0,0.0,0.0,0.0,0.0,0.0,0.0,0.0,0.0,0.0,0.0,0.0,0.0,0.0,0.0,0.0,0.0,0.0,0.0,0.0,0.0,0.0,0.0,0.0,0.0,0.0,0.0,0.0,0.0,0.0,0.0,0.0,0.0,0.0,0.0,0.0,0.0,0.0,0.0,0.0,0.0,0.0,0.0,0.0,0.0,0.0,0.0,0.0,0.0,-1.3759,-1.3271,-1.2412,-1.1133,-1.0864,-1.032,-0.908,-0.8346,-0.7952,-0.7952,0.0,0.0,0.0,0.0,0.0,0.0,0.0,0.0,0.0,0.0,0.0,0.0,0.0,0.0,0.0,0.0,0.0,0.0,0.0,0.0,0.0,0.0,0.0,0.0,0.0,0.0,0.0,0.0,0.0,0.0,0.0,0.0,0.0,0.0,0.0,0.0,0.0,0.0,0.0,0.0,0.0,0.0,0.0,0.0,0.0,0.0,0.0,0.0,0.0,0.0,0.0,0.0,0.0,0.0,0.0,0.0,0.0,0.0,0.0,0.0,-1.5227,-1.465,0.0,0.0,0.0,0.0,0.0,0.0,0.0,0.0,0.0,0.0,0.0,0.0,0.0,0.0,0.0,0.0,0.0,0.0,0.0,0.0,0.0,0.0,0.0,0.0,0.0,0.0,0.0,0.0,0.0,0.0,0.0,0.0,0.0,0.0,0.0,0.0,0.0,0.0,0.0,0.0,-1.3759,-1.3271,-1.2774,-1.2486,-1.1459,-1.0686,-1.0397,-0.9087,-0.8308,-0.8308,-0.7253,0.0,0.0,0.0,0.0,0.0,0.0,0.0,0.0,0.0,0.0,0.0,0.0,0.0,0.0,0.0,0.0,0.0,0.0,0.0,0.0,0.0,0.0,0.0,0.0,0.0,0.0,0.0,0.0,0.0,0.0,0.0,0.0,0.0,0.0,0.0,0.0,0.0,0.0,0.0,0.0,0.0,0.0,0.0,0.0,0.0,0.0,0.0,0.0,0.0,0.0,0.0,0.0,0.0,0.0,0.0,0.0,0.0,0.0,0.0,-1.6337,-1.5531,0.0,0.0,0.0,0.0,0.0,0.0,0.0,0.0,0.0,0.0,0.0,0.0,0.0,0.0,0.0,0.0,0.0,0.0,0.0,0.0,0.0,0.0,0.0,0.0,0.0,0.0,0.0,0.0,0.0,0.0,0.0,0.0,0.0,0.0,0.0,0.0,0.0,0.0,0.0,0.0,-1.3739,-1.3271,-1.2774,-1.2393,-1.1434,-1.0661,-1.0346,-0.9134,-0.8402,-0.8402,-0.7543,0.0,0.0,0.0,0.0,0.0,0.0,0.0,0.0,0.0,0.0,0.0,0.0,0.0,0.0,0.0,0.0,0.0,0.0,0.0,0.0,0.0,0.0,0.0,0.0,0.0,0.0,0.0,0.0,0.0,0.0,0.0,0.0,0.0,0.0,0.0,0.0,0.0,0.0,0.0,0.0,0.0,0.0,0.0,0.0,0.0,0.0,0.0,0.0,0.0,0.0,0.0,0.0,0.0,-2.041,-2.0455,-2.1229,-2.0186,-1.9724,-1.9716,-1.811,-1.7162,-1.665,-1.5879,0.0,0.0,0.0,0.0,0.0,0.0,0.0,0.0,0.0,0.0,0.0,0.0,0.0,0.0,0.0,0.0,0.0,0.0,0.0,0.0,0.0,0.0,-1.5236,-1.549,-1.5254,-1.4795,-1.4071,0.0,0.0,0.0,0.0,0.0,0.0,0.0,0.0,0.0,0.0,0.0,-1.3654,-1.3244,-1.2657,-1.2055,-1.1266,-1.0585,-1.0012,-0.905,-0.8482,-0.8482,-0.7822,-0.7218,0.0,0.0,0.0,0.0,0.0,0.0,0.0,0.0,0.0,0.0,0.0,0.0,0.0,0.0,0.0,0.0,0.0,0.0,0.0,0.0,0.0,0.0,0.0,0.0,0.0,0.0,0.0,0.0,0.0,0.0,0.0,0.0,-1.4587,-1.5032,0.0,0.0,0.0,0.0,0.0,0.0,0.0,0.0,0.0,0.0,0.0,0.0,0.0,-2.2034,-2.2843,-2.3687,-2.3727,-2.2989,-2.415,-2.4298,-2.3542,-2.3386,-2.333,-2.3296,-2.2517,0.0,-1.7171,-1.7595,0.0,0.0,0.0,0.0,0.0,0.0,0.0,0.0,0.0,0.0,0.0,0.0,0.0,0.0,0.0,0.0,0.0,0.0,0.0,0.0,0.0,0.0,-1.537,-1.5422,-1.4946,-1.4619,-1.5063,-1.4152,-1.3414,-1.4064,-1.344,-1.285,0.0,0.0,0.0,0.0,0.0,0.0,-1.339,-1.3083,-1.2847,-1.2774,-1.1584,-1.0762,-1.0686,-0.9492,-0.8751,-0.8751,-0.8058,-0.7771,-0.801,-0.7144,0.0,0.0,0.0,0.0,0.0,0.0,0.0,0.0,0.0,0.0,0.0,0.0,0.0,0.0,0.0,0.0,0.0,0.0,0.0,0.0,0.0,0.0,0.0,0.0,0.0,0.0,0.0,0.0,0.0,-1.5111,-1.6284,-1.7203,-1.7474,-1.7354,0.0,0.0,0.0,0.0,0.0,0.0,0.0,0.0,0.0,-2.3043,-2.3471,-2.3989,-2.4644,-2.5395,-2.5697,-2.5544,-2.6232,-2.6465,-2.6289,-2.5988,-2.5837,-2.5812,-2.5259,-2.3649,-2.1368,-2.0079,-1.9177,-1.8488,0.0,0.0,0.0,0.0,-1.7401,-1.6896,-1.7464,-1.7215,-1.6636,-1.6596,0.0,0.0,0.0,0.0,0.0,0.0,0.0,-1.5904,-1.602,-1.6236,-1.6506,-1.6794,-1.6459,-1.6294,-1.7064,-1.5985,-1.4876,-1.4851,-1.4722,-1.4379,-1.3636,-1.3556,0.0,0.0,0.0,-1.365,-1.3686,-1.3618,-1.3496,-1.3262,-1.2022,-1.1096,-1.0804,-0.9562,-0.8804,-0.8804,-0.8513,-0.8201,-0.7974,-0.7743,-0.7526,0.0,0.0,0.0,0.0,0.0,0.0,0.0,0.0,0.0,0.0,0.0,0.0,0.0,0.0,0.0,0.0,0.0,0.0,0.0,0.0,0.0,0.0,0.0,0.0,0.0,0.0,0.0,0.0,-1.7184,-1.8424,-1.8909,-2.0306,-2.0498,0.0,0.0,0.0,0.0,0.0,0.0,-2.2234,-2.3015,-2.3979,-2.5065,-2.5656,-2.6165,-2.6666,-2.7128,-2.7555,-2.7921,-2.7921,-2.8147,-2.8524,-2.7971,-2.7695,-2.767,-2.7153,-2.6414,-2.5443,-2.2629,-2.1147,-2.0588,-1.9544,-1.8979,-1.8871,-1.9829,-1.9684,-1.9212,-2.0538,-2.0374,-1.9507,-1.8952,-1.8457,-1.7762,-1.5823,0.0,0.0,0.0,0.0,-1.7193,-1.7369,-1.7503,-1.7684,-1.8203,-1.8086,-1.8008,-1.8481,-1.7751,-1.6749,-1.5849,-1.5765,-1.5492,-1.4292,-1.3832,0.0,-1.3497,-1.3651,-1.3831,-1.3987,-1.4072,-1.3997,-1.3711,-1.2351,-1.1364,-1.1004,-0.9632,-0.8804,-0.8804,-0.8804,-0.8566,-0.7996,-0.8263,-0.8261,-0.7932,0.0,0.0,0.0,0.0,0.0,0.0,0.0,0.0,0.0,0.0,0.0,0.0,0.0,0.0,0.0,0.0,0.0,0.0,0.0,0.0,0.0,0.0,0.0,0.0,0.0,0.0,0.0,0.0,0.0,-1.9321,-2.2723,0.0,0.0,0.0,0.0,-2.3265,-2.4761,-2.5457,-2.4869,-2.592,-2.7006,-2.7868,-2.8435,-2.9013,-2.9578,-2.9603,-2.9654,-2.9654,-2.9654,-2.9679,-2.9679,-2.9063,-2.8813,-2.8787,-2.8273,-2.7996,-2.772,-2.4965,-2.361,-2.3256,-2.2698,-2.2315,-2.2185,-2.2427,-2.222,-2.1756,-2.1331,-2.1235,-2.1504,-2.2844,-2.3162,-2.2706,-2.0962,-2.0441,0.0,0.0,-1.888,-1.9052,-1.8167,-1.8237,-1.8668,-1.9102,-1.9199,-1.9082,-1.8676,-1.9069,-1.8933,-1.701,-1.5988,-1.5219,-1.4495,0.0,-1.4846,-1.3841,-1.4185,-1.442,-1.4136,-1.4102,-1.4094,-1.4075,-1.2538,-1.1491,-1.1474,-0.9816,-0.8804,-0.8804,-0.8804,-0.8778,-0.8752,-0.8751,-0.8624,-0.8282,-0.8273,0.0,0.0,0.0,0.0,0.0,0.0,0.0,0.0,0.0,0.0,0.0,0.0,0.0,0.0,0.0,0.0,0.0,0.0,0.0,0.0,0.0,0.0,0.0,0.0,0.0,0.0,0.0,0.0,-2.5801,-2.8323,0.0,-2.6405,-2.757,-2.8185,-2.738,-2.932,-3.0001,-2.8625,-2.9627,-2.9923,-2.9214,-2.9377,-2.9578,-2.9804,-2.9804,-2.9804,-2.9804,-2.9804,-2.9804,-2.9779,-2.9578,-2.9478,-2.9478,-2.9277,-2.8976,-2.8549,-2.757,-2.6662,-2.5902,-2.5339,-2.5106,-2.5097,-2.5505,-2.5542,-2.5449,-2.5601,-2.545,-2.5029,-2.401,-2.2812,-2.168,-2.1033,-2.1084,-2.1124,-2.0301,-2.0171,-2.0151,-1.9421,-1.9141,-1.916,-1.959,-1.9492,-1.9394,-1.9785,-1.966,-1.9239,-1.8487,-1.7813,-1.6963,-1.5835,-1.5491,-1.5077,-1.4278,-1.4476,-1.468,-1.4559,-1.4785,-1.4844,-1.459,-1.3626,-1.2577,-1.1594,-1.0516,-0.9582,-0.8844,-0.8804,-0.8804,-0.8804,-0.8804,-0.8737,-0.8624,-0.8801,-0.8557,0.0,0.0,0.0,0.0,0.0,0.0,0.0,0.0,0.0,0.0,0.0,0.0,0.0,0.0,0.0,0.0,0.0,0.0,0.0,0.0,0.0,0.0,0.0,0.0,0.0,-2.6531,-2.891,-2.9797,-3.24,-3.3126,-3.0489,-3.1804,-3.2405,-3.1375,-3.3009,-3.3422,-3.1938,-3.2086,-3.1715,-3.0612,-3.0394,-3.0101,-2.9804,-3.0101,-3.0101,-2.9804,-2.9804,-2.9804,-2.9804,-2.9804,-2.9804,-2.9804,-2.9804,-2.9578,-2.9189,-2.9189,-2.8775,-2.8047,-2.7329,-2.7052,-2.7102,-2.7419,-2.757,-2.7595,-2.777,-2.7595,-2.6997,-2.5231,-2.3803,-2.2802,-2.2802,-2.3006,-2.3125,-2.2402,-2.2209,-2.1955,-2.0883,-2.0426,-2.0212,-2.0134,-1.9922,-1.9824,-2.0254,-1.9902,-1.9492,-1.9492,-1.8933,-1.8093,-1.686,-1.6347,-1.6019,-1.587,-1.5632,-1.5604,-1.6054,-1.5959,-1.5684,-1.5283,-1.4505,-1.3463,-1.2163,-1.162,-1.0712,-0.9239,-0.9453,-0.9388,-0.8804,-0.9009,-0.9214,-0.9406,-0.9933,-0.9951,-0.9457,0.0,0.0,0.0,0.0,0.0,0.0,0.0,0.0,0.0,0.0,0.0,0.0,0.0,0.0,0.0,0.0,0.0,0.0,0.0,0.0,0.0,0.0,0.0,-2.6811,-3.0163,-3.2168,-3.0941,-3.4771,-3.6267,-3.3036,-3.5639,-3.6852,-3.5247,-3.5732,-3.5718,-3.4734,-3.3171,-3.2308,-3.2243,-3.1622,-3.0809,-2.9895,-3.0809,-3.0809,-2.9895,-2.9895,-2.9895,-2.9895,-2.9895,-2.9856,-2.9818,-2.9818,-2.9818,-2.9804,-2.9804,-2.9804,-2.9679,-2.8574,-2.8147,-2.8147,-2.8147,-2.8147,-2.8072,-2.7544,-2.7379,-2.7243,-2.6751,-2.6549,-2.6549,-2.6524,-2.6524,-2.6317,-2.5324,-2.504,-2.4611,-2.2585,-2.2096,-2.1832,-2.0895,-2.0683,-2.0565,-2.0095,-2.0017,-1.9959,-1.9959,-1.9238,-1.8383,-1.7578,-1.7455,-1.7692,-1.8533,-1.7534,0.0,-1.8477,-1.7503,-1.6562,-1.6194,-1.5177,-1.4128,-1.3241,-1.3114,-1.2147,-0.9996,-1.0745,-1.0567,-0.8923,-0.9492,-1.0106,-1.0636,-1.167,-1.2235,-1.2324,0.0,0.0,0.0,0.0,0.0,0.0,0.0,0.0,0.0,0.0,0.0,0.0,0.0,0.0,0.0,0.0,0.0,0.0,0.0,0.0,0.0,-2.8816,-3.1599,-3.1599,-3.3784,-3.5789,-3.6836,-3.8931,-3.9559,-3.7704,-3.8781,-3.9182,-3.8246,-3.8364,-3.7849,-3.6442,-3.5946,-3.4929,-3.3238,-3.3047,-3.2563,-3.1829,-3.2119,-3.2119,-3.1829,-3.1829,-3.1829,-3.1829,-3.1829,-3.1489,-3.0846,-3.0846,-3.0419,-2.9804,-2.9804,-2.9804,-2.9754,-2.9453,-2.9327,-2.9327,-2.9327,-2.9327,-2.9302,-2.9151,-2.8825,-2.8448,-2.8298,-2.7971,-2.757,-2.7203,-2.7344,-2.7365,-2.5985,-2.5838,-2.5793,-2.4093,-2.3665,-2.3501,-2.2874,-2.2713,-2.2669,-2.254,-2.1961,-2.1353,-2.1024,-2.0226,-1.9394,-1.8848,-1.7988,-1.7488,-1.7716,-1.7169,-1.6845,-1.7181,-1.6939,-1.6868,-1.7287,-1.7073,-1.6307,-1.4964,-1.4493,-1.3359,-1.118,-1.0967,-1.0733,-1.0269,-1.0438,-1.0859,-1.1518,-1.1748,-1.2305,0.0,0.0,0.0,0.0,0.0,0.0,0.0,0.0,0.0,0.0,0.0,0.0,0.0,0.0,0.0,0.0,0.0,0.0,0.0,0.0,0.0,0.0,-3.2497,-3.5429,-3.6267,-3.7135,-3.8242,-3.9649,-4.0756,-4.1085,-4.0307,-4.0576,-4.0546,-3.9888,-3.9589,-3.8977,-3.8055,-3.7397,-3.6401,-3.5082,-3.4764,-3.4096,-3.3016,-3.3409,-3.3269,-3.2593,-3.2593,-3.2593,-3.2593,-3.2593,-3.2307,-3.1756,-3.1352,-3.0895,-3.0343,-2.9972,-2.9804,-2.9804,0.0,0.0,0.0,0.0,-2.9804,-2.9754,-2.9528,-2.9164,-2.8838,-2.8612,-2.8373,-2.8047,-2.772,-2.7846,-2.7912,-2.7017,-2.6993,-2.6868,-2.5317,-2.4918,-2.4691,-2.3748,-2.3526,-2.3526,-2.3526,-2.2691,-2.1916,-2.1681,-2.0676,0.0,-1.959,-1.8789,-1.831,-1.8696,-1.8201,-1.7915,-1.8287,-1.783,-1.7514,-1.7607,-1.763,-1.704,-1.5585,-1.563,0.0,0.0,0.0,-1.1864,-1.1239,-1.1612,0.0,0.0,0.0,-1.3627,-1.4333,-1.3976,0.0,0.0,-1.3613,-1.3233,0.0,0.0,0.0,0.0,0.0,0.0,0.0,0.0,0.0,0.0,0.0,0.0,0.0,0.0,0.0,0.0,-3.5729,-3.8482,-4.0247,-4.0068,-3.9948,-4.0457,-4.1145,-4.1534,-4.1384,-4.1482,-4.1175,-4.0457,-3.9858,-3.9499,-3.9373,-3.8055,0.0,0.0,0.0,-3.554,-3.4052,-3.4838,-3.4552,-3.317,-3.3051,-3.3023,-3.3023,-3.2967,-3.2841,-3.27,-3.1792,-3.1278,-3.1156,-3.0177,-2.9804,-2.9804,-2.9804,-2.9804,-2.9804,-2.9804,-2.9804,-2.9704,-2.9202,0.0,0.0,-2.8448,-2.8298,-2.8273,-2.8222,-2.8247,-2.8273,-2.8222,-2.8247,-2.7964,-2.6505,-2.614,-2.5801,-2.4347,-2.4013,-2.3991,-2.3945,-2.3038,-2.2252,-2.2188,-2.0974,-1.998,-1.9922,-1.957,-1.9553,-2.0339,-1.9803,-1.9569,-2.0288,-1.9361,-1.834,-1.7671,-1.7573,0.0,-1.5841,-1.6534,-1.5813,-1.3,-1.3556,-1.3426,-1.212,-1.2895,-1.3619,-1.417,-1.5036,-1.5471,-1.541,-1.5831,-1.5831,-1.5371,-1.349,-1.3022,0.0,0.0,0.0,0.0,0.0,0.0,0.0,0.0,0.0,0.0,0.0,0.0,0.0,0.0,0.0,-3.522,-3.8482,-4.0756,-4.1145,-4.1572,-4.1692,-4.1272,-4.2252,-4.2551,-4.1474,-4.1901,-4.1722,-4.0487,-4.0277,-3.9978,-3.9439,-3.9109,-3.871,-3.8145,-3.7996,-3.754,-3.665,-3.6852,-3.6793,-3.6473,-3.5971,0.0,-3.5706,-3.5204,-3.4509,-3.3671,-3.2735,-3.1901,-3.1156,-3.0177,-2.9804,-2.9804,-2.9804,-2.9804,-2.9804,-2.9804,-2.9804,-2.9779,-2.9654,-2.9628,-2.9603,-2.9503,-2.9453,-2.9377,-2.8863,-2.9101,0.0,-2.8863,-2.9101,-2.9289,-2.8525,-2.83,-2.8114,-2.736,-2.7201,-2.7077,-2.6659,-2.5135,-2.3734,-2.3298,-2.1711,-2.0332,-1.998,-1.957,-1.9367,-1.9521,-1.94,-1.9229,-1.9023,-1.8773,-1.8611,-1.8683,-1.8688,-1.8443,-1.7872,-1.7367,-1.6451,-1.4935,-1.4344,-1.3951,-1.3672,-1.4184,-1.4559,-1.4668,-1.5161,-1.5419,-1.541,-1.5488,-1.5488,-1.541,-1.5352,-1.5215,0.0,0.0,0.0,0.0,0.0,0.0,0.0,0.0,0.0,0.0,0.0,-2.8308,-3.064,0.0,-3.5489,-3.8452,-4.0613,-4.1901,-4.1901,-4.2432,-4.2611,-4.1991,-4.2432,-4.2731,-4.2402,-4.241,-4.2141,-4.1482,-4.1085,-4.0606,-3.9948,-3.9918,-3.9589,-3.8931,-3.8901,-3.8571,-3.7913,-3.7913,-3.7734,-3.7404,-3.7105,-3.6956,-3.6926,-3.6297,-3.5473,-3.4439,-3.3157,-3.2055,-3.1156,-3.0177,-2.9804,-2.9804,-2.9804,-2.9804,-2.9804,-2.9804,-2.9804,-2.9804,-2.9804,-2.9804,-2.9804,-2.9804,-2.9804,-2.9729,-2.9453,-2.9553,-2.9729,-2.9453,-2.9578,-2.9654,-2.9076,-2.8888,-2.8737,-2.8247,-2.8097,-2.8021,-2.7745,-2.6274,-2.4811,-2.4041,-2.2488,-2.1165,-2.0644,-2.0372,-2.0117,-1.9668,-1.9785,-1.9766,-1.9299,-1.9241,-1.9131,-1.8808,-1.8817,-1.8556,-1.7926,-1.69,-1.6007,-1.543,-1.4582,-1.4114,-1.4114,-1.4551,-1.4813,-1.4813,-1.5195,-1.541,-1.541,-1.541,-1.541,-1.543,-1.5889,-1.585,0.0,0.0,0.0,0.0,0.0,0.0,0.0,0.0,-2.6936,-2.9082,-3.058,-3.2287,-3.4951,-3.6537,-3.8332,-4.1153,-4.2171,-4.259,-4.259,-4.3,-4.309,-4.247,-4.25,-4.2761,-4.323,-4.2851,-4.253,-4.241,-4.1901,-4.1235,-4.0427,-4.0397,-4.0098,-3.9403,-3.9373,-3.914,-3.8601,-3.8394,-3.8126,-3.7793,-3.7436,-3.7307,-3.7278,-3.6654,-3.5849,-3.4789,-3.3179,-3.19,-3.0857,-3.0101,-2.9804,-2.9804,-2.9804,-2.9804,-2.9804,-2.9804,-2.9804,-2.9804,-2.9804,-2.9804,-2.9804,-2.9804,-2.9804,-2.9804,-2.9804,-2.9804,-2.9804,-2.9804,-2.9804,-2.9679,-2.9227,-2.9063,-2.8976,-2.8549,-2.8423,-2.8398,-2.8298,-2.714,-2.5867,-2.4929,-2.3422,-2.2167,-2.171,-2.1468,-2.1094,-2.0255,-2.0469,-2.0508,-1.998,-1.9922,-1.9609,-1.8812,-1.8734,-1.8383,-1.7578,-1.6523,-1.584,-1.5654,-1.4913,-1.4523,-1.4601,-1.4805,-1.4941,-1.5067,-1.5273,-1.5449,-1.5547,-1.5547,-1.5586,-1.5654,-1.6035,-1.5957,-1.9921,-2.1177,-2.3721,-2.6991,-2.7021,-2.7769,0.0,0.0,-3.3215,-3.5789,-3.7375,-3.8422,-3.8781,-3.9948,-4.1183,-4.2141,-4.2791,-4.32,-4.32,-4.326,-4.309,-4.247,-4.288,-4.323,-4.329,-4.323,-4.3,-4.244,-4.2321,-4.1752,-4.0457,-4.0397,-4.0098,-3.9403,-3.9373,-3.9343,-3.932,-3.8355,-3.8325,-3.9164,-3.7587,-3.6859,-3.683,-3.6223,-3.5394,-3.4306,-3.2767,-3.1277,-2.9934,-2.9818,-2.9804,-2.9804,-2.9804,-2.9804,-2.9804,-2.9804,-2.9804,-2.9804,-2.9804,-2.9804,-2.9804,-2.9804,-2.9804,-2.9804,-2.9804,-2.9804,-2.9804,-2.9804,-2.9804,-2.9779,-2.9704,-2.9704,-2.9679,-2.9603,-2.9603,-2.9453,-2.8913,-2.8033,-2.7129,-2.6477,-2.4731,-2.3316,-2.3259,-2.2453,-2.166,-2.1112,-2.1093,-2.082,-2.0019,-1.9922,-1.9746,-1.9258,-1.9219,-1.8867,-1.8008,-1.7812,-1.7402,-1.6609,-1.6113,-1.6035,-1.6395,-1.5742,-1.5527,-1.5948,-1.5586,-1.5605,-1.6026,-1.6026,-1.6222,-1.6551,-1.6609,-1.6426,-2.5825,-2.5801,-2.6417,-2.9983,-3.133,-3.2617,-3.5759,-3.6118,-3.6417,-3.8691,-3.9888,-4.0666,-4.1055,-4.2192,-4.306,-4.294,-4.3479,-4.3738,-4.3349,-4.3,-4.2521,-4.1901,-4.2043,-4.2342,-4.2731,-4.2761,-4.2821,-4.291,-4.291,-4.2521,-4.1632,-4.1572,-4.1235,-4.0576,-4.0546,-4.0546,-4.0546,-3.9127,-3.862,-3.9028,-3.7282,-3.6779,-3.7336,-3.6118,-3.4775,-3.3349,-3.2162,-3.1309,-3.0733,-3.0733,-3.0733,-3.0733,-3.0733,-3.0532,-3.0231,-2.9905,-2.9804,-2.9804,-2.9804,-2.9804,-2.9804,-2.9804,-2.9804,-2.9804,-2.9804,-2.9804,-2.9804,-2.9804,-2.9804,-2.9804,-2.9804,-2.9804,-2.9804,-2.9804,-2.9804,-2.9729,-2.9478,-2.8847,-2.8069,-2.7268,-2.5652,-2.4266,-2.3983,-2.2999,-2.2187,-2.2012,-2.1777,-2.1387,-2.0722,-2.0644,-2.0391,-1.9727,-1.9434,-1.9141,-1.8789,-1.8301,-1.7818,-1.7467,-1.6836,-1.6512,-1.6687,-1.6336,-1.6269,-1.6445,-1.6239,-1.6239,-1.6445,-1.6445,-1.6543,-1.6707,-1.6992,-1.7012,-2.8591,-2.8786,-2.9175,-3.2497,-3.4831,-3.6537,-3.7375,-3.8063,-3.896,-4.0606,-4.1474,-4.2013,-4.2351,-4.3269,-4.3838,-4.318,-4.3629,-4.3808,-4.315,-4.2491,-4.1811,-4.0935,-4.0666,-4.0853,-4.1512,-4.2081,-4.259,-4.303,-4.32,-4.306,-4.244,-4.241,-4.2081,-4.1414,-4.1088,-4.0905,-4.0905,-3.9057,-3.8433,-3.8985,-3.6964,-3.669,-3.7802,-3.5812,-3.41,-3.2616,-3.1914,-3.1537,-3.1386,-3.1235,-3.126,-3.1386,-3.1235,-3.0934,-3.0583,-3.0331,-3.0055,-2.9804,-2.9804,-2.9804,-2.9804,-2.9804,-2.9804,-2.9804,-2.9804,-2.9804,-2.9804,-2.9804,-2.9804,-2.9804,-2.9804,-2.9804,-2.9804,-2.9804,-2.9804,-2.9804,-2.9804,-2.9478,-2.8961,-2.8285,-2.6878,-2.5639,-2.4943,-2.3907,-2.3018,-2.2719,-2.2422,-2.2031,-2.1484,-2.1366,-2.1132,-2.0527,-2.0078,-1.9785,-1.9648,-1.8965,-1.8437,-1.8169,-1.7467,-1.7058,-1.7058,-1.6824,-1.6765,-1.6882,-1.6765,-1.6765,-1.6882,-1.6882,-1.6941,-1.7058,-1.7402,-1.7559,-2.5414,-2.8038,-3.121,-3.4562,-3.6866,-3.8661,-3.9978,-4.0786,-4.1482,-4.2201,-4.2821,-4.309,-4.25,-4.291,-4.315,-4.253,-4.294,-4.312,-4.253,-4.1871,-4.0935,-3.9619,-3.8901,-3.8751,-3.9439,-4.1272,-4.241,-4.244,-4.297,-4.306,-4.244,-4.241,-4.2081,-4.1414,-4.0256,-3.9675,-3.9675,-3.7491,-3.7449,-3.9538,-3.6851,-3.6392,-3.8021,-3.5202,-3.333,-3.2231,-3.219,-3.1888,-3.1361,-3.0859,-3.0934,-3.1336,-3.0834,-3.0633,-3.0683,-3.116,-3.0683,-2.9804,-2.9804,-2.9804,-2.9804,-2.9804,-2.9804,-2.9804,-2.9804,-2.9804,-2.9804,-2.9804,-2.9804,-2.9804,-2.9804,-2.9804,-2.9804,-2.9804,-2.9804,-2.9804,-2.9804,-2.9779,-2.9779,-2.974,-2.8821,-2.7676,-2.6603,-2.5483,-2.4361,-2.3236,-2.3062,-2.2769,-2.1973,-2.1875,-2.1855,-2.1836,-2.1445,-2.0996,-2.0605,-2.0117,-1.9455,-1.8637,-1.8169,-1.7969,-1.7969,-1.7135,-1.6902,-1.7363,-1.6953,-1.6902,-1.7363,-1.7363,-1.7578,-1.7969,-1.7988,-1.7988,-2.7965,-3.0941,-3.4053,-3.7823,-3.9559,-4.0726,-4.2043,-4.2521,-4.2491,-4.1833,-4.1175,-4.0397,-3.929,-3.9978,-4.0666,-4.0457,-4.2043,-4.312,-4.25,-4.2201,-4.1242,-3.899,-3.932,-3.929,-3.8182,-3.9499,-4.0935,-4.2291,-4.262,-4.2791,-4.3,-4.3,-4.291,-4.2671,-4.2288,-4.1701,-4.0912,-3.9047,-3.809,-3.8048,-3.6668,-3.5808,-3.5323,-3.5098,-3.4178,-3.2792,-3.2792,-3.2692,-3.2491,-3.2315,-3.234,-3.2491,-3.2315,-3.2014,-3.1687,-3.1863,-3.1486,-3.0809,-3.0457,-3.0331,-3.0281,-2.9905,-2.9804,-2.9804,-2.9804,-2.9804,-2.9804,-2.9804,-2.9804,-2.9804,-2.9804,-2.9804,-2.9804,-2.9804,-2.9804,-2.9804,-2.9804,-2.9804,-2.9804,-2.9804,-2.8291,-2.6912,-2.6565,-2.4935,-2.356,-2.3188,-2.2847,-2.2617,-2.2344,-2.2051,-2.1894,-2.1894,-2.1504,-2.1132,-2.1016,-2.0332,-1.9748,-1.9455,-1.9102,-1.873,-1.8403,-1.811,-1.7896,-1.7793,-1.7656,-1.7656,-1.7793,-1.7793,-1.7871,-1.8008,-1.8008,-1.8008,-3.1096,-3.4053,-3.6716,-4.0217,-4.1594,-4.2252,-4.2851,-4.2791,-4.2252,-4.0935,-3.9619,-3.8362,-3.7285,-3.7584,-3.8093,-3.8332,-3.9798,-4.0995,-4.1265,-4.0943,-4.0127,-3.8901,-3.932,-3.926,-3.8242,-3.911,-4.0397,-4.1931,-4.2432,-4.288,-4.326,-4.329,-4.329,-4.329,-4.2508,-4.174,-4.1,-3.9038,-3.7581,-3.6664,-3.6883,-3.5971,-3.4198,-3.5102,-3.4751,-3.337,-3.337,-3.3269,-3.3068,-3.2842,-3.2893,-3.3068,-3.2842,-3.2541,-3.224,-3.2441,-3.2164,-3.1612,-3.1085,-3.0884,-3.0834,-3.0482,-3.0357,-3.0357,-3.0357,-3.0357,-3.0357,-3.0357,-3.0357,-3.0331,-3.0131,-3.008,-3.003,-2.9854,-2.9804,-2.9804,-2.9804,-2.9804,-2.9663,-2.9287,-2.8028,-2.683,-2.6005,-2.4339,-2.3101,-2.3101,-2.2867,-2.2691,-2.2691,-2.25,-2.2344,-2.2344,-2.1953,-2.16,-2.1444,-2.0761,-2.0216,-1.9941,-1.9668,-1.9238,-1.8617,-1.8598,-1.8403,-1.8008,-1.8008,-1.8008,-1.8008,-1.813,-1.8188,-1.8208,-1.8398,-1.8477,-3.4465,-3.7135,-3.929,-4.1841,-4.291,-4.321,-4.25,-4.1841,-4.0935,-3.9499,-3.8123,-3.6926,0.0,0.0,-3.5579,-3.6267,-3.6567,-3.7375,-3.929,-3.8482,-3.8153,0.0,0.0,0.0,0.0,0.0,-4.0756,-4.1422,-4.2581,-4.326,-4.329,-4.325,-4.321,-4.321,-4.1071,-3.9869,-3.9826,-3.7566,-3.6107,-3.5558,-3.7234,-3.6878,-3.4776,-3.5257,-3.4906,-3.3897,-3.3897,-3.3596,-3.3086,-3.2491,-3.2591,-3.3018,-3.2466,-3.2265,-3.2315,-3.2867,-3.2742,-3.219,-3.1662,-3.1461,-3.1436,-3.1411,-3.1386,-3.1386,-3.1386,-3.1386,-3.1386,-3.1386,-3.1386,-3.1286,-3.0783,-3.0658,-3.0532,-3.0005,-2.988,-2.988,-2.9777,-2.9777,-2.9415,-2.8251,-2.7988,-2.7256,-2.5083,-2.3844,-2.3101,-2.3101,-2.3101,-2.3101,-2.3101,-2.3101,-2.3101,-2.3101,-2.2711,-2.2363,-2.1953,-2.1504,-2.0839,-2.0039,-1.9961,-1.9533,-1.8695,-1.8676,-1.8481,-1.8086,-1.8066,-1.8066,-1.8066,-1.8442,-1.8637,-1.8637,-1.9102,-1.9297,-3.7071,-4.0157,-4.2851,-4.303,-4.3569,-4.3629,-4.2013,-4.1115,-3.9858,-3.7075,-3.504,-3.3125,-3.1001,-3.2078,-3.3664,-3.4833,-3.7464,0.0,-4.1414,-4.1743,0.0,-4.0277,0.0,-4.1025,-4.0217,-4.1175,-4.1961,-4.2141,-4.247,-4.2821,-4.326,-4.2508,-4.2029,-4.2029,-4.0661,-3.9448,-3.8559,-3.7103,-3.6329,-3.6157,-3.6611,-3.6307,-3.5282,-3.5433,-3.4906,-3.3897,-3.3897,-3.3596,-3.3111,-3.2918,-3.2943,-3.3068,-3.2918,-3.2867,-3.2867,-3.3018,-3.2993,-3.2842,-3.2692,-3.2365,-3.1938,-3.1512,-3.1386,-3.1386,-3.1386,-3.1386,-3.1386,-3.1386,-3.1386,-3.1361,-3.1235,-3.1185,-3.116,-3.1009,-3.0984,-3.0757,-2.9835,-2.9398,-2.876,-2.7584,-2.6435,-2.521,-2.38,-2.3299,-2.3101,-2.3101,-2.3101,-2.3101,-2.3101,-2.3101,-2.3101,-2.3101,-2.2711,-2.2461,-2.2363,-2.1619,-2.1093,-2.0878,-2.0586,-2.0156,-1.9572,-1.9553,-1.9394,-1.8965,-1.8965,-1.8965,-1.8965,-1.9062,-1.9121,-1.9121,-1.9238,-1.9297,-4.036,-4.2821,-4.4586,-4.3888,-4.3798,-4.306,-3.9948,-3.8721,-3.7075,-3.2886,-3.112,-2.9804,-2.8038,-2.9415,-3.142,0.0,0.0,0.0,-4.1632,-4.2252,-4.2282,0.0,-4.2611,0.0,-4.0979,-4.2575,-4.3119,-4.1749,-4.2356,-4.2713,-4.2559,-4.1947,-4.1378,-4.0873,-3.9711,-3.8559,-3.7381,-3.6709,-3.6405,-3.6405,-3.6405,-3.6207,-3.5906,-3.5906,-3.5303,-3.4248,-3.4248,-3.3796,-3.3111,-3.3111,-3.3111,-3.3111,-3.3111,-3.3111,-3.3111,-3.3111,-3.3111,-3.3111,-3.3111,-3.2867,-3.2541,-3.224,-3.2139,-3.2139,-3.2139,-3.2139,-3.2139,-3.2139,-3.2139,-3.2064,-3.1813,-3.1763,-3.1687,-3.1461,-3.1386,-3.1075,-2.9864,-2.9374,-2.8631,-2.6733,-2.5123,-2.3844,-2.3212,-2.3101,-2.3101,-2.3101,-2.3101,-2.3101,-2.3101,-2.3101,-2.3101,-2.3101,-2.2886,-2.2672,-2.2539,-2.2029,-2.16,-2.121,-2.0996,-2.0566,-1.9941,-1.9922,-1.9707,-1.9297,-1.9297,-1.9297,-1.9297,-1.9473,-1.9551,-1.957,-1.9766,-1.9881,-4.3538,-4.5005,-4.5364,-4.4526,-4.3798,-4.2064,-3.7336,-3.5666,-3.3634,-2.8345,-2.732,-2.7106,-2.6333,-2.75,-2.9505,-3.2198,0.0,-3.7045,-4.1055,-4.1654,-4.2102,-4.329,-4.4007,-4.379,-4.2071,-4.3814,-4.3929,-4.1263,-4.2244,-4.2514,-4.142,-4.1378,-4.0788,-3.9448,-3.8424,-3.7402,-3.6405,-3.6405,-3.6405,-3.6405,-3.6405,-3.6405,-3.6405,-3.6405,-3.5805,-3.4826,-3.4826,-3.4248,-3.3294,-3.3262,-3.3237,-3.3212,-3.3136,-3.3111,-3.3111,-3.3111,-3.3111,-3.3111,-3.3111,-3.3111,-3.3111,-3.3111,-3.3111,-3.3111,-3.3111,-3.3111,-3.3111,-3.3111,-3.3111,-3.2968,-3.2466,-3.2315,-3.2215,-3.1738,-3.1612,-3.1299,-3.0079,-2.9499,-2.8434,-2.5737,-2.4119,-2.3159,-2.3101,-2.3101,-2.3101,-2.3101,-2.3101,-2.3101,-2.3101,-2.3101,-2.3101,-2.3101,-2.3101,-2.2945,-2.2617,-2.2539,-2.2187,-2.1405,-2.1249,-2.0859,-2.0079,-2.0039,-1.9824,-1.9453,-1.9453,-1.9453,-1.9453,-1.9824,-2.0,-2.0,-2.0429,-2.0605,-4.4975,-4.6022,-4.6531,-4.4766,-4.3838,-4.1936,-3.6369,-3.401,0.0,-2.6503,-2.5729,-2.5585,-2.4358,-2.6572,-2.9654,-3.2796,-3.5011,-3.7883,-4.2333,-4.2961,-4.323,0.0,-4.4736,-4.4982,-4.4656,-4.406,-4.3517,-4.2938,-4.1818,-4.0864,-4.0216,-4.0189,-3.9227,-3.7057,-3.6803,-3.6593,-3.6405,-3.6405,-3.6405,-3.6405,-3.6405,-3.6405,-3.6405,-3.6405,-3.6006,-3.5357,-3.5357,-3.4981,-3.4399,-3.3947,-3.3746,-3.3721,-3.3244,-3.3111,-3.3111,-3.3111,-3.3111,-3.3111,-3.3111,-3.3111,-3.3111,-3.3111,-3.3111,-3.3111,-3.3111,-3.3111,-3.3111,-3.3111,-3.3111,-3.3086,-3.2943,-3.2918,-3.2893,-3.286,-3.2835,-3.2468,-3.1181,-2.906,-2.6735,-2.4511,-2.3865,-2.3574,-2.3159,-2.3101,-2.3101,-2.3101,-2.3101,-2.3101,-2.3101,-2.3101,-2.3101,-2.3101,-2.3101,-2.3062,-2.2984,-2.2672,-2.2441,-2.2305,-2.158,-2.1132,-2.0976,-2.0644,-2.0449,-2.039,-2.039,-2.039,-2.039,-2.0449,-2.0488,-2.0488,-2.0566,-2.0605,-4.6142,-4.68,-4.689,-4.5244,-4.3569,-4.0711,-3.426,0.0,0.0,-2.2564,-2.2165,-2.2651,-2.2163,-2.4807,-2.8008,-3.0971,-3.3125,-3.6148,-4.1115,-4.2102,-4.294,-4.4616,-4.5115,-4.5214,-4.4891,-4.3999,-4.308,-4.2132,-4.1552,-4.0676,-3.9447,-3.8812,-3.8091,-3.726,-3.7211,-3.7211,-3.7211,-3.6983,-3.6832,-3.6784,-3.6556,-3.6405,-3.6405,-3.6405,-3.6056,-3.5508,-3.5508,-3.5182,-3.4655,-3.4424,-3.4148,-3.3872,-3.3621,-3.3345,-3.3111,-3.3111,-3.3111,-3.3111,-3.3111,-3.3111,-3.3111,-3.3111,-3.3111,-3.3111,-3.3111,-3.3111,-3.3111,-3.3111,-3.3111,-3.3111,-3.3111,-3.3111,-3.3111,-3.3111,-3.2612,-3.1777,-3.0553,-2.847,-2.6392,-2.4809,-2.4277,-2.4043,-2.3803,-2.3588,-2.3477,-2.3477,-2.3477,-2.3398,-2.312,-2.3296,-2.3354,-2.312,-2.3101,-2.3101,-2.3101,-2.2906,-2.2711,-2.2519,-2.2129,-2.1658,-2.121,-2.1035,-2.0801,-2.0605,-2.0605,-2.0605,-2.0605,-2.0605,-2.0605,-2.0605,-2.0605,-2.0605,-4.6698,-4.7189,-4.698,-4.5633,-4.321,-3.9361,-3.2364,-2.8638,0.0,-1.9037,-1.8852,-1.9932,-2.0476,-2.2978,-2.6004,-2.9112,-3.0881,-3.3814,-3.9409,-4.0756,-4.2192,-4.4975,-4.5347,0.0,-4.4653,-4.3696,-4.2445,-4.0918,-4.0878,-4.0333,-3.8958,-3.7807,-3.7437,-3.799,-3.8015,-3.8015,-3.8015,-3.7462,-3.7186,-3.7186,-3.6681,-3.6405,-3.6405,-3.6405,-3.6132,-3.5683,-3.5683,-3.5479,-3.5052,-3.4906,-3.465,-3.4248,-3.4123,-3.3796,-3.342,-3.342,-3.342,-3.342,-3.342,-3.3345,-3.3269,-3.3395,-3.3269,-3.3111,-3.3111,-3.3111,-3.3111,-3.3111,-3.3111,-3.3111,-3.3111,-3.3111,-3.3111,-3.3111,-3.2326,-3.1267,-3.0033,-2.8741,-2.736,-2.5765,-2.5185,-2.4835,-2.448,-2.4062,-2.3828,-2.3906,-2.3848,-2.3691,-2.3393,-2.3633,-2.3652,-2.3276,-2.314,-2.3101,-2.3101,-2.3101,-2.2964,-2.2676,-2.2559,-2.2207,-2.1502,-2.1288,-2.1074,-2.0723,-2.0644,-2.0605,-2.0605,-2.0605,-2.0605,-2.0605,-2.0605,-2.0605,-4.5841,-4.686,-4.698,-4.5633,-4.288,-3.8686,-3.1905,0.0,-2.3612,-1.8052,-1.7646,-1.8673,-1.9905,-2.1682,-2.441,-2.8873,-2.9771,-3.2108,-3.8566,-4.0068,-4.1683,-4.4915,0.0,0.0,-4.5302,-4.319,-4.1501,-4.0821,-3.9252,-3.8492,-3.8865,-3.7807,-3.7437,-3.799,-3.8015,-3.8015,-3.8015,-3.7462,-3.7186,-3.7186,-3.6681,-3.6405,-3.6405,-3.6405,-3.638,-3.6329,-3.6329,-3.6304,-3.6229,-3.568,-3.5382,-3.5307,-3.4806,-3.4625,-3.4575,-3.4575,-3.4575,-3.4575,-3.4575,-3.4248,-3.3897,-3.4399,-3.3897,-3.3111,-3.3111,-3.3111,-3.3111,-3.3111,-3.3111,-3.3111,-3.3111,-3.3111,-3.3111,-3.3111,-3.3025,-3.2568,-3.1311,-3.0909,-3.0007,-2.7271,-2.6727,-2.6192,-2.4657,-2.4062,-2.3926,-2.4297,-2.4043,-2.3906,-2.4258,-2.4004,-2.3769,-2.373,-2.3335,-2.3101,-2.3101,-2.3101,-2.3081,-2.3042,-2.2672,-2.248,-2.2402,-2.16,-2.1171,-2.1132,-2.0781,-2.0605,-2.0605,-2.0605,-2.0605,-2.0605,-2.0605,-2.0605,-4.5347,-4.68,-4.698,-4.5633,-4.173,-3.688,-3.189,-2.6144,-2.098,-1.7875,-1.718,-1.7715,-1.9623,-2.1068,-2.3106,-2.6632,-2.6841,0.0,-3.3872,-3.5579,-3.7913,-4.2402,-4.2681,-4.3246,0.0,0.0,-4.0235,-3.9721,-3.8943,-3.8666,-3.8905,-3.8488,-3.8442,-3.8994,-3.9019,-3.8868,-3.8542,-3.7965,-3.7513,-3.7186,-3.6681,-3.6405,-3.6405,-3.6405,-3.6405,-3.6405,-3.6405,-3.6405,-3.638,-3.6132,-3.5855,-3.5483,-3.5257,-3.4981,-3.468,-3.468,-3.468,-3.468,-3.468,-3.4575,-3.4424,-3.465,-3.4198,-3.3571,-3.3571,-3.3345,-3.3111,-3.3111,-3.3111,-3.3111,-3.3111,-3.3111,-3.3111,-3.3111,-3.3111,-3.2742,-3.1488,-3.0619,-2.9579,-2.77,-2.6716,-2.5964,-2.5282,-2.4844,-2.4656,-2.4785,-2.4715,-2.4531,-2.4434,-2.4277,-2.4062,-2.3828,-2.3398,-2.3101,-2.3101,-2.3101,-2.3101,-2.3101,-2.2945,-2.273,-2.2519,-2.1934,-2.1504,-2.121,-2.1015,-2.084,-2.0605,-2.084,-2.082,-2.0605,-2.0605,-2.0742,-4.3208,-4.5478,-4.6356,-4.487,-4.0536,-3.5461,-3.1265,-2.4937,-1.9439,-1.7623,-1.6685,-1.6864,-1.9242,-2.0507,-2.209,-2.4828,0.0,-2.6368,-3.0614,-3.2377,-3.4861,-3.9343,0.0,-4.0092,-4.3069,-4.098,-3.9346,-3.912,-3.902,-3.8994,-3.912,-3.912,-3.9295,-3.9697,-3.9546,-3.927,-3.8919,-3.814,-3.7563,-3.7186,-3.6681,-3.6405,-3.6405,-3.6405,-3.6405,-3.6405,-3.6405,-3.6405,-3.6405,-3.6405,-3.6132,-3.578,-3.578,-3.5554,-3.5203,-3.5203,-3.5203,-3.5203,-3.5203,-3.5102,-3.4956,-3.5152,-3.46,-3.3947,-3.4299,-3.3771,-3.3119,-3.3269,-3.2978,-3.2612,-3.2982,-3.2828,-3.2568,-3.2568,-3.2568,-3.2196,-3.0956,-2.9988,-2.905,-2.7814,-2.6907,-2.6159,-2.5791,-2.5371,-2.5165,-2.5254,-2.5204,-2.5008,-2.4648,-2.4492,-2.4258,-2.3828,-2.3398,-2.3101,-2.3101,-2.3101,-2.3101,-2.3101,-2.3101,-2.2964,-2.2672,-2.2305,-2.1934,-2.158,-2.1444,-2.1269,-2.0997,-2.1269,-2.1269,-2.0997,-2.0997,-2.1133,-3.8793,-4.2466,-4.4876,-4.3135,-3.947,-3.4905,-2.9635,-2.4202,-1.9607,-1.72,-1.5966,-1.6088,-1.863,-1.9892,-2.1386,-2.4082,-2.5126,0.0,-3.0043,-3.1659,-3.3453,0.0,-3.5732,-3.6179,-3.8285,-3.8744,-3.9145,-3.9647,-3.917,-3.912,-3.9647,-3.9697,-3.9697,-3.9697,-3.917,-3.8919,-3.8919,-3.7764,-3.7186,-3.7186,-3.6681,-3.6405,-3.6405,-3.6405,-3.6405,-3.6405,-3.6405,-3.6405,-3.6405,-3.6405,-3.6405,-3.6405,-3.6405,-3.6405,-3.638,-3.638,-3.638,-3.638,-3.638,-3.5981,-3.5583,-3.6182,-3.5273,-3.4098,-3.5157,-3.4374,-3.3194,-3.3746,-3.2612,-3.1488,-3.2785,-3.2152,-3.1223,-3.1223,-3.1223,-3.0911,-2.967,-2.9396,-2.905,-2.7814,-2.76,-2.7173,-2.5917,-2.5371,-2.5215,-2.5615,-2.5352,-2.5106,-2.5106,-2.4687,-2.4258,-2.3828,-2.3398,-2.3101,-2.3101,-2.3101,-2.3101,-2.3101,-2.3101,-2.3101,-2.3081,-2.2734,-2.25,-2.25,-2.209,-2.1875,-2.1875,-2.1875,-2.1875,-2.1875,-2.1875,-2.1875,-3.3432,-3.5903,-3.7099,-3.5633,-3.2557,-2.9338,-2.7179,-2.2112,-1.7738,-1.739,-1.6309,-1.595,-1.7707,-1.9404,-2.1289,-2.3514,-2.4723,-2.6204,0.0,0.0,0.0,-3.6057,-3.8311,-3.9541,-3.9323,-3.9398,-3.9496,-3.9672,-3.9521,-3.9521,-3.9697,-3.9697,-3.9697,-3.9697,-3.917,-3.8668,-3.8291,-3.7538,-3.6985,-3.6656,-3.648,-3.6405,-3.6405,-3.6405,-3.6405,-3.6405,-3.6405,-3.6405,-3.6405,-3.6405,-3.6405,-3.6405,-3.6405,-3.6405,-3.6405,-3.6405,-3.6405,-3.6405,-3.6405,-3.6279,-3.6132,-3.6355,-3.5755,-3.5107,-3.5881,-3.4675,-3.2996,-3.2609,-3.2378,-3.2109,-3.1577,-3.0905,-3.0399,-3.0399,-3.0148,-2.9852,-2.9487,-2.8773,-2.8049,-2.7673,-2.6887,-2.6159,-2.5791,-2.5577,-2.5518,-2.5674,-2.5557,-2.541,-2.5165,-2.4687,-2.4258,-2.3828,-2.3398,-2.3101,-2.3101,-2.3101,-2.3101,-2.3101,-2.3101,-2.3101,-2.3101,-2.2691,-2.2519,-2.2519,-2.2383,-2.2168,-2.1894,-2.2168,-2.2168,-2.1894,-2.2187,-2.2305,-2.8046,-3.0788,-3.2127,-3.1096,-2.8446,-2.5858,-2.4797,-2.0602,-1.7055,-1.7457,-1.6757,-1.6418,-1.7527,-1.9218,-2.0903,-2.2237,-2.4014,-2.5658,-2.6948,0.0,-3.2398,-3.5013,-3.7906,-3.9384,-3.8559,-3.9222,-3.9697,-3.9697,-3.9697,-3.9597,-3.9396,-3.9371,-3.9295,-3.9069,-3.8718,-3.8266,-3.7688,-3.7161,-3.6757,-3.6405,-3.6405,-3.6405,-3.6405,-3.6405,-3.6405,-3.6405,-3.6405,-3.6405,0.0,-3.6405,-3.6405,-3.6405,-3.6405,-3.6405,-3.6405,-3.6405,-3.6405,-3.6405,-3.6405,-3.6405,-3.6405,-3.6405,-3.5777,-3.5055,-3.5028,-3.4191,-3.3081,-3.2406,-3.1716,-3.1117,-3.058,-2.9884,-2.9288,-2.9114,-2.8877,-2.8588,-2.8121,-2.7389,-2.6887,-2.6887,-2.6255,-2.5693,-2.5693,-2.5693,-2.5693,-2.5693,-2.5693,-2.546,-2.4902,-2.459,-2.4258,-2.3828,-2.3398,-2.3159,-2.3379,-2.3198,-2.3101,-2.3101,-2.3101,-2.3101,-2.3101,-2.2847,-2.2711,-2.2711,-2.2711,-2.2617,-2.2363,-2.2617,-2.2617,-2.2363,-2.2461,-2.2598,0.0,-2.6554,-2.9122,-2.8524,-2.6385,-2.4006,-2.2379,-1.9585,0.0,-1.7348,-1.7068,-1.7121,-1.7972,-1.9217,-2.026,-2.0784,-2.3304,-2.5204,-2.5246,-2.8937,-3.2144,-3.3471,-3.5435,-3.6702,-3.6573,-3.8436,-3.9697,-3.9697,-3.9697,-3.9446,-3.8944,-3.8919,-3.8592,-3.7965,-3.7939,-3.7688,-3.7186,-3.6681,-3.6405,-3.6405,-3.6405,-3.6405,-3.6405,-3.6405,-3.6405,-3.6405,-3.6405,-3.6405,-3.6405,-3.6405,-3.6405,-3.6405,-3.6405,-3.6405,-3.6405,-3.6405,-3.6405,-3.6405,-3.6405,-3.6405,-3.6358,-3.631,-3.5427,-3.4195,-3.3007,-3.3007,-3.3267,-3.2653,-3.0726,-2.9028,-2.9693,-2.8967,-2.7973,-2.7646,-2.7499,-2.7146,-2.6005,-2.5713,-2.5693,-2.5693,-2.5693,-2.5693,-2.5693,-2.5693,-2.5693,-2.5693,-2.5693,-2.5382,-2.457,-2.4434,-2.4258,-2.3828,-2.3398,-2.3257,-2.3711,-2.3379,-2.3101,-2.3101,-2.3101,-2.3101,-2.3101,-2.3101,-2.3101,-2.3101,-2.3101,-2.3101,-2.3101,-2.3101,-2.3101,-2.3081,-2.2734,-2.273,-1.7562,0.0,-2.0983,-2.0319,-1.9987,-1.9683,0.0,-1.7903,-1.6701,-1.6701,-1.6028,-1.5976,-1.7898,-1.8759,-2.0118,-2.2899,-2.4249,-2.5647,-2.7541,-3.1567,-3.4643,-3.5584,-3.7599,-3.8463,-3.7149,-3.8642,-3.9697,-3.9697,-3.9697,-3.9446,-3.8944,-3.8919,-3.8466,-3.7412,-3.7387,-3.7312,-3.7186,-3.6681,-3.6405,-3.6405,-3.6405,-3.6405,-3.6405,-3.6405,-3.6405,-3.6405,-3.6405,-3.6405,-3.6405,-3.6405,-3.6405,-3.6405,-3.6405,-3.6405,-3.6405,-3.6405,-3.6405,-3.6405,-3.6405,-3.6405,-3.6216,-3.521,-3.4678,-3.4142,-3.2807,-3.246,-3.2261,-3.0678,-2.987,-2.9316,-2.8472,-2.7543,-2.6874,-2.7092,-2.6635,-2.6161,-2.6202,-2.5977,-2.5693,-2.5693,-2.5693,-2.5693,-2.5693,-2.5693,-2.5693,-2.5693,-2.5693,-2.5499,-2.498,-2.4629,-2.4258,-2.3828,-2.3398,-2.314,-2.3237,-2.3159,-2.3101,-2.3101,-2.3101,-2.3101,-2.3101,-2.3101,-2.3101,-2.3101,-2.3101,-2.3101,-2.3101,-2.3101,-2.3101,-2.3101,-2.2984,-2.3003,-1.5774,-1.7055,-1.8443,-1.8478,-1.8355,-1.8329,-1.8832,-1.7677,-1.65,-1.65,-1.6414,-1.6704,-1.8022,-1.9167,-2.0541,-2.2542,-2.4442,-2.6887,-3.0433,-3.2393,-3.4435,-3.7019,-3.8034,-3.8492,-3.8341,-3.917,-3.9597,-3.932,-3.932,-3.8969,-3.814,-3.809,-3.7688,-3.6883,-3.6857,-3.6857,-3.6857,-3.6556,-3.6405,-3.6405,-3.6405,-3.6405,-3.6405,-3.6405,-3.6405,-3.6405,-3.6405,-3.6405,-3.6405,-3.6405,-3.6405,-3.6405,-3.6405,-3.6405,-3.6405,-3.6405,-3.6405,-3.631,-3.5715,-3.5066,-3.4387,-3.365,-3.3005,-3.2404,-3.1622,-3.0979,-3.0369,-2.9962,-2.9508,-2.8805,-2.7668,-2.7031,-2.6641,-2.6465,-2.6025,-2.5752,-2.6035,-2.5898,-2.5693,-2.5693,-2.5693,-2.5693,-2.5693,-2.5693,-2.5693,-2.5693,-2.5693,-2.5518,-2.5165,-2.4863,-2.4551,-2.4121,-2.3691,-2.3437,-2.3437,-2.3198,-2.3101,-2.3101,-2.3101,-2.3101,-2.3101,-2.3101,-2.3101,-2.3101,-2.3101,-2.3101,-2.3101,-2.3101,-2.3101,-2.3101,-2.3101,-2.3101,-1.604,-1.744,-1.8953,-1.9334,-1.8882,-1.8555,-1.9384,-1.8129,-1.6751,-1.6751,-1.7437,-1.8206,-1.8722,-2.0103,-2.137,-2.1982,-2.4922,-2.8712,-3.3257,-3.2998,-3.3756,-3.7753,-3.7823,-3.804,-3.9195,-3.9471,-3.9371,-3.8944,-3.8793,-3.8291,-3.7236,-3.7186,-3.6935,-3.643,-3.6405,-3.6405,-3.6405,-3.6405,-3.6405,-3.6405,-3.6405,-3.6405,-3.6405,-3.6405,-3.6405,-3.6405,-3.6405,-3.6405,-3.6405,-3.6405,-3.6405,-3.6358,-3.6168,-3.6121,-3.6073,-3.5858,-3.5738,-3.5595,-3.4459,-3.3304,-3.228,-3.2079,-3.1235,-3.0276,-3.0068,-2.9197,-2.8548,-2.965,-2.9104,-2.8027,-2.7305,-2.7012,-2.6758,-2.6044,-2.5791,-2.5713,-2.5771,-2.5732,-2.5693,-2.5693,-2.5693,-2.5693,-2.5693,-2.5693,-2.5693,-2.5693,-2.5693,-2.5605,-2.5215,-2.5165,-2.4902,-2.4473,-2.4043,-2.3769,-2.3691,-2.3315,-2.3101,-2.3101,-2.3101,-2.3101,-2.3101,-2.3101,-2.3101,-2.3101,-2.3101,-2.3101,-2.3101,-2.3101,-2.3101,-2.3101,-2.3101,-2.3101,-1.7551,-1.9384,-2.049,-1.8328,-1.8329,-1.8807,-1.853,-1.8179,-1.7953,-1.7953,-1.805,-1.8897,-2.1329,-2.1538,-2.2326,-2.5295,-2.8211,-3.1265,-3.4769,-3.5882,-3.6556,-3.7303,-3.8541,-3.8843,-3.7688,-3.8442,-3.902,-3.8919,-3.8417,-3.7864,-3.7211,-3.7186,-3.6935,-3.643,-3.6405,-3.6405,-3.6405,-3.6405,-3.6405,-3.6405,-3.6405,-3.6405,-3.6405,-3.6405,-3.6405,-3.6405,-3.6405,-3.6405,-3.6405,-3.6405,-3.6405,-3.631,-3.5138,-3.4727,-3.4581,-3.3353,-3.2932,-3.2883,-3.2682,-3.2482,-3.2129,-3.0979,-3.0463,-3.0068,-2.8953,-2.8441,-2.8335,-2.8548,-2.8186,-2.7787,-2.765,-2.7031,-2.6543,-2.6758,-2.622,-2.5791,-2.6211,-2.5996,-2.5693,-2.5693,-2.5693,-2.5693,-2.5693,-2.5693,-2.5693,-2.5693,-2.5693,-2.5674,-2.5644,-2.5293,-2.4902,-2.4473,-2.4043,-2.3633,-2.3218,-2.314,-2.3101,-2.3101,-2.3101,-2.3101,-2.3101,-2.3101,-2.3101,-2.3101,-2.3101,-2.3101,-2.3101,-2.3101,-2.3101,-2.3101,-2.3101,-2.3101,-1.7127,-1.8682,-1.9987,-1.9334,-2.0665,-2.2067,-2.1816,-2.1091,-2.0439,-2.0439,-2.0439,-2.0997,-2.293,-2.3748,-2.5339,-2.9021,-3.0676,-3.249,-3.5365,-3.5556,-3.6042,-3.7658,-3.8159,-3.8391,-3.8542,-3.8743,-3.8743,-3.8442,-3.7889,-3.7312,-3.6832,-3.6782,-3.6681,-3.6405,-3.6405,-3.6405,-3.6405,-3.6405,-3.6405,-3.6405,-3.6405,-3.6405,-3.6405,-3.6405,-3.6405,-3.6405,-3.6405,-3.6405,-3.6405,-3.6405,-3.5953,-3.5283,-3.4629,-3.392,-3.3204,-3.2532,-3.1721,-3.0896,-3.0896,-3.041,-2.9714,-2.9114,-2.9068,-2.9112,-2.8495,-2.8301,-2.8301,-2.8301,-2.8164,-2.7891,-2.7441,-2.7012,-2.6719,-2.668,-2.6191,-2.581,-2.6289,-2.6055,-2.5693,-2.5693,-2.5693,-2.5693,-2.5693,-2.5693,-2.5693,-2.5693,-2.5693,-2.5693,-2.5693,-2.5566,-2.5254,-2.4824,-2.4375,-2.3965,-2.3535,-2.3496,-2.3379,-2.312,-2.3101,-2.3101,-2.3101,-2.3101,-2.3101,-2.3101,-2.3101,-2.3101,-2.3101,-2.3101,-2.3101,-2.3101,-2.3101,-2.3101,-1.6851,-1.8105,-1.9635,-2.0641,-2.2372,-2.4079,-2.5008,-2.3803,-2.2669,-2.3326,-2.3376,-2.3552,-2.4406,-2.5912,-2.8172,-3.1637,-3.2641,-3.3839,-3.627,-3.5841,-3.6113,-3.8409,-3.8028,-3.809,-3.9371,-3.8868,-3.8291,-3.7839,-3.7312,-3.6857,-3.643,-3.6405,-3.6405,-3.6405,-3.6405,-3.6405,-3.6405,-3.6405,-3.6405,-3.6405,-3.6405,-3.6405,-3.6405,-3.6405,-3.6405,-3.6405,-3.6405,-3.6329,-3.6182,-3.6182,-3.5348,-3.4029,-3.3714,-3.2632,-3.1193,-3.1084,-3.0368,-2.9322,-2.9166,-2.847,-2.7728,-2.7728,-2.7812,-2.8008,-2.8125,-2.8144,-2.8144,-2.8144,-2.8223,-2.8144,-2.748,-2.7246,-2.7051,-2.6641,-2.6211,-2.5908,-2.6191,-2.5977,-2.5693,-2.5693,-2.5693,-2.5693,-2.5693,-2.5693,-2.5693,-2.5693,-2.5693,-2.5693,-2.5693,-2.5693,-2.5566,-2.5117,-2.4766,-2.4394,-2.3965,-2.3945,-2.375,-2.3276,-2.3257,-2.3198,-2.3101,-2.3101,-2.3101,-2.3101,-2.3101,-2.3101,-2.3101,-2.3101,-2.3101,-2.3101,-2.3101,-2.3101,-1.7953,-1.9284,-2.0717,-2.132,-2.1219,-2.1923,-2.5544,-2.4657,-2.3772,-2.6389,-2.6549,-2.6223,-2.6298,-2.7645,-2.9465,-3.1838,-3.3903,-3.6056,-3.8365,-3.902,-3.9372,-3.9599,-3.912,-3.8844,-3.8969,-3.7989,-3.7287,-3.7236,-3.6782,-3.6455,-3.6405,-3.6405,-3.6405,-3.6405,-3.6405,-3.6405,-3.6405,-3.6405,-3.6405,-3.6405,-3.6405,-3.6405,-3.6405,-3.6405,-3.6405,-3.6405,-3.6405,-3.6081,-3.5558,-3.5558,-3.4539,-3.2888,-3.1611,-2.9849,-2.7949,-2.7554,-2.7786,-2.8284,-2.7479,-2.7427,-2.7728,-2.7728,-2.7402,-2.7187,-2.7578,-2.7767,-2.7767,-2.7767,-2.7988,-2.8281,-2.8223,-2.791,-2.75,-2.707,-2.6641,-2.625,-2.581,-2.5713,-2.5693,-2.5693,-2.5693,-2.5693,-2.5693,-2.5693,-2.5693,-2.5693,-2.5693,-2.5693,-2.5693,-2.5693,-2.5566,-2.5117,-2.5086,-2.4844,-2.4414,-2.4375,-2.4199,-2.3769,-2.375,-2.3555,-2.312,-2.3101,-2.3101,-2.3101,-2.3101,-2.3101,-2.3101,-2.3101,-2.3101,-2.3101,-2.3101,-2.3101,-1.7551,-1.9183,-2.0918,-2.1769,-2.2096,-2.3125,-2.6666,-2.7645,-2.7996,-2.8699,-2.9478,-2.9829,-2.9176,-3.0407,-3.1888,-3.3068,-3.5403,-3.7487,-3.8743,-3.9044,-3.917,-3.917,-3.8693,-3.8341,-3.8341,-3.7638,-3.7186,-3.7186,-3.6732,-3.6405,-3.6405,-3.6405,-3.6405,-3.6405,-3.6405,-3.6207,-3.5855,-3.5855,-3.5282,-3.4236,-3.5307,-3.5583,-3.5138,-3.5304,-3.5529,-3.583,-3.5504,-3.5228,-3.4936,-3.4222,-3.2982,-3.1472,-2.9289,-2.7986,-2.7246,-2.707,-2.7051,-2.707,-2.6738,-2.6738,-2.6875,-2.6875,-2.6934,-2.7051,-2.7207,-2.7266,-2.7266,-2.7266,-2.7383,-2.7559,-2.7832,-2.7578,-2.7226,-2.7051,-2.6484,-2.6016,-2.6113,-2.5937,-2.5693,-2.5693,-2.5693,-2.5693,-2.5693,-2.5693,-2.5693,-2.5693,-2.5693,-2.5693,-2.5693,-2.5693,-2.5615,-2.5508,-2.5234,-2.5047,-2.4844,-2.4824,-2.4746,-2.459,-2.4082,-2.3594,-2.312,-2.3101,-2.3101,-2.3101,-2.3101,-2.3101,-2.3101,-2.3101,-2.3101,-2.3101,-2.3101,-2.3101,-1.7348,-1.8756,-2.0464,-2.1719,-2.2844,-2.455,-2.8097,-2.9503,-3.0432,-3.1612,-3.2064,-3.1989,-3.126,-3.2039,-3.3043,-3.3771,-3.6056,-3.7939,-3.8517,-3.8592,-3.8592,-3.8592,-3.809,-3.7739,-3.7739,-3.7236,-3.686,-3.6684,-3.6307,-3.6031,-3.5855,-3.583,-3.583,-3.583,-3.583,-3.5655,-3.5232,-3.5232,-3.441,-3.2863,-3.4308,-3.4632,-3.3958,-3.4456,-3.4881,-3.5232,-3.4831,-3.4625,-3.436,-3.3567,-3.2135,-3.0189,-2.7609,-2.6699,-2.6797,-2.666,-2.6602,-2.6543,-2.6269,-2.6269,-2.6387,-2.6387,-2.6484,-2.6641,-2.6777,-2.6816,-2.6816,-2.6816,-2.6914,-2.709,-2.7383,-2.7246,-2.6973,-2.6855,-2.6367,-2.5996,-2.6152,-2.5957,-2.5693,-2.5693,-2.5693,-2.5693,-2.5693,-2.5693,-2.5693,-2.5693,-2.5693,-2.5693,-2.5693,-2.5693,-2.5693,-2.5693,-2.5469,-2.5273,-2.5273,-2.5273,-2.5215,-2.5125,-2.4394,-2.3789,-2.3315,-2.3296,-2.3237,-2.3101,-2.3237,-2.3237,-2.3101,-2.3101,-2.3101,-2.3101,-2.3101,-2.3101,-1.7549,-1.8204,-1.9434,-2.1091,-2.3201,-2.5828,-2.9754,-2.974,-3.0382,-3.5399,-3.4148,-3.2215,-3.224,-3.224,-3.2591,-3.3721,-3.5755,-3.7387,-3.7914,-3.799,-3.799,-3.799,-3.7513,-3.7186,-3.7186,-3.6732,-3.6132,-3.5533,-3.5483,-3.5257,-3.4705,-3.468,-3.468,-3.468,-3.468,-3.468,-3.468,-3.468,-3.3995,-3.2675,-3.3498,-3.3523,-3.2956,-3.4131,-3.47,-3.468,-3.47,-3.4399,-3.3897,-3.3853,-3.2082,-2.9143,-2.6668,-2.5996,-2.6328,-2.5849,-2.6269,-2.6875,-2.5986,-2.6016,-2.6387,-2.6387,-2.6094,-2.5771,-2.625,-2.6387,-2.6387,-2.6387,-2.668,-2.7012,-2.7012,-2.7012,-2.6894,-2.6484,-2.6387,-2.6269,-2.5791,-2.5693,-2.5693,-2.5693,-2.5693,-2.5693,-2.5693,-2.5693,-2.5693,-2.5693,-2.5693,-2.5693,-2.5693,-2.5693,-2.5693,-2.5693,-2.5693,-2.5693,-2.5693,-2.5693,-2.5547,-2.5145,-2.4668,-2.4238,-2.3809,-2.3789,-2.3594,-2.3101,-2.3574,-2.3574,-2.3101,-2.3101,-2.3101,-2.3101,-2.3101,-2.3101,-1.7903,-1.9334,-2.1167,-2.2824,-2.5209,-2.8047,-3.1537,-3.2089,-3.2817,-3.6232,-3.4751,-3.3043,-3.3847,-3.3972,-3.3972,-3.3897,-3.5755,-3.7236,-3.7412,-3.7437,-3.7437,-3.7437,-3.6935,-3.6656,-3.6656,-3.6107,-3.5683,-3.5508,-3.5132,-3.4856,-3.4726,-3.468,-3.468,-3.468,-3.468,-3.4525,-3.4148,-3.3293,-3.2033,-3.0399,-3.0605,-3.1457,-3.2768,-3.3296,-3.3771,-3.4123,-3.3746,-3.347,-3.3189,-3.1461,-2.9161,-2.6696,-2.5965,-2.5771,-2.5869,-2.5732,-2.5849,-2.6025,-2.5771,-2.5771,-2.5937,-2.5937,-2.5791,-2.5713,-2.5898,-2.5937,-2.5937,-2.5937,-2.5966,-2.6064,-2.6064,-2.6064,-2.6172,-2.6348,-2.6152,-2.5849,-2.5713,-2.5693,-2.5693,-2.5693,-2.5693,-2.5693,-2.5693,-2.5693,-2.5693,-2.5693,-2.5693,-2.5693,-2.5693,-2.5693,-2.5693,-2.5693,-2.5693,-2.5693,-2.5693,-2.5693,-2.5635,-2.5547,-2.5117,-2.4551,-2.3828,-2.3789,-2.3153,-2.1854,-2.3422,-2.3441,-2.1854,-2.3326,-2.3887,-2.3594,-2.3594,-2.3594,-1.9058,-2.0313,-2.1848,-2.4607,-2.7067,-2.9654,-3.2968,-3.4399,-3.5579,-3.7462,-3.6006,-3.46,-3.5253,-3.5027,-3.4675,-3.4575,-3.5855,-3.6908,-3.6908,-3.6908,-3.6784,-3.6558,-3.6232,-3.5956,-3.573,-3.5403,-3.5082,-3.4856,-3.4575,-3.4299,-3.4073,-3.4073,-3.4073,-3.4073,-3.4073,-3.3676,-3.2818,-3.2596,-3.1466,-2.9418,-2.9897,-3.049,-3.1158,-3.1481,-3.2059,-3.2838,-3.2796,-3.2379,-3.1669,-2.9846,-2.7936,-2.6139,-2.5809,-2.5693,-2.5693,-2.5693,-2.5693,-2.5693,-2.5693,-2.5693,-2.5693,-2.5693,-2.5693,-2.5693,-2.5693,-2.5693,-2.5693,-2.5693,-2.5557,-2.5508,-2.5635,-2.5605,-2.5586,-2.6016,-2.5937,-2.5693,-2.5693,-2.5693,-2.5693,-2.5693,-2.5693,-2.5693,-2.5693,-2.5693,-2.5693,-2.5693,-2.5693,-2.5693,-2.5693,-2.5216,-2.4922,-2.4922,-2.4461,-2.4097,-2.4097,-2.4097,-2.4024,-2.3908,-2.362,-2.318,-2.2538,-2.3149,-2.2668,-2.0991,-2.2676,-2.2973,-2.1725,-2.3374,-2.4043,-2.3789,-2.3789,-2.3691,-2.0539,-2.1194,-2.1974,-2.6339,-2.885,-3.106,-3.4223,-3.6483,-3.8065,-3.8592,-3.7487,-3.6458,-3.648,-3.5579,-3.5027,-3.5433,-3.5956,-3.6329,-3.6279,-3.6254,-3.6031,-3.5483,-3.5433,-3.5232,-3.4731,-3.4675,-3.4449,-3.3947,-3.3847,-3.3596,-3.3136,-3.3061,-3.3018,-3.3111,-3.2932,-3.2296,-3.1151,-3.2079,-3.1372,-2.9124,-3.0121,-2.9801,-2.841,-2.9081,-2.9987,-3.11,-3.1644,-3.1027,-2.9555,-2.8719,-2.7735,-2.6651,-2.5881,-2.5596,-2.5615,-2.5577,-2.5577,-2.5577,-2.5577,-2.5596,-2.5615,-2.5577,-2.5596,-2.5615,-2.5577,-2.5577,-2.5577,-2.5577,-2.5312,-2.5098,-2.5508,-2.5352,-2.5176,-2.5586,-2.5654,-2.5693,-2.5528,-2.5577,-2.5645,-2.5528,-2.5645,-2.5693,-2.5693,-2.5693,-2.5693,-2.5693,-2.5693,-2.5645,-2.5528,-2.4461,-2.3633,-2.3534,-2.2416,-2.1693,-2.1693,-2.1693,-2.1561,-2.1263,-2.1147,-2.0917,-2.054,-2.199,-2.2021,-2.0248,-2.1613,-2.2298,-2.2227,-2.3258,-2.3835,-2.3848,-2.3848,-2.3613,-2.0314,-2.1694,-2.3547,-2.757,-3.1094,-3.4198,-3.6182,-3.701,-3.7287,-3.7008,-3.7008,-3.701,-3.701,-3.6458,-3.5906,-3.5558,-3.5608,-3.5579,-3.5127,-3.5077,-3.5027,-3.4881,-3.4856,-3.4806,-3.4726,-3.4324,-3.4022,-3.3897,-3.3495,-3.3194,-3.3136,-3.2641,-3.2616,-3.3111,-3.1736,-3.0889,-3.0715,-2.906,-2.7826,-2.6963,-2.6194,-2.5671,-2.5406,-2.7849,-2.9343,-3.0076,-2.9712,-2.907,-2.8243,-2.7215,-2.6277,-2.5417,-2.4879,-2.4902,-2.5176,-2.4824,-2.4707,-2.4707,-2.4707,-2.4922,-2.5156,-2.4805,-2.4941,-2.5156,-2.4805,-2.4707,-2.4707,-2.4707,-2.4629,-2.459,-2.4668,-2.4883,-2.5145,-2.5195,-2.5488,-2.543,-2.4344,-2.4971,-2.5382,-2.4344,-2.4971,-2.5693,-2.5693,-2.5693,-2.5693,-2.5693,-2.5693,-2.5333,-2.4264,-2.3899,-2.3285,-2.2265,-2.1845,-2.1693,-2.1693,-2.1693,-2.166,-2.1577,-2.1577,-2.104,-1.9877,-2.0865,-2.0639,-1.895,-2.0834,-2.1592,-2.1002,-2.284,-2.3908,-2.4277,-2.4277,-2.4062,-2.0966,-2.2268,-2.3948,-2.9164,-3.2616,-3.5027,-3.6157,-3.6609,-3.6757,-3.6455,-3.6857,-3.7111,-3.6835,-3.6332,-3.5881,-3.5533,-3.5282,-3.4799,-3.3952,-3.4338,-3.44,-3.3559,-3.3717,-3.3822,-3.3545,-3.2519,-3.2154,-3.2649,-3.195,-3.1734,-3.2265,-3.1989,-3.173,-3.1522,-3.0609,-2.9585,-2.854,-2.7833,-2.6785,-2.5381,-2.5336,-2.4871,-2.4167,-2.6565,-2.7657,-2.7732,-2.7959,-2.7433,-2.639,-2.6017,-2.5308,-2.4453,-2.4434,-2.4551,-2.4727,-2.4492,-2.4414,-2.4414,-2.4414,-2.457,-2.4727,-2.4492,-2.457,-2.4707,-2.4492,-2.4414,-2.4414,-2.4414,-2.4277,-2.416,-2.4355,-2.459,-2.4805,-2.5067,-2.541,-2.5333,-2.3998,-2.4756,-2.5284,-2.3949,-2.4756,-2.5693,-2.5693,-2.5693,-2.5693,-2.5693,-2.5167,-2.451,-2.38,-2.2567,-2.1456,-2.0794,-2.0128,-1.9716,-1.9716,-1.9716,-1.9656,-1.9541,-1.9692,-1.9347,-1.8494,-1.9016,-1.8979,-1.8071,-2.0244,-2.1279,-2.1131,-2.3286,-2.4469,-2.4727,-2.4727,-2.4492,-2.134,-2.2819,-2.4632,-3.0708,-3.3345,-3.46,-3.5207,-3.5755,-3.6128,-3.6128,-3.6508,-3.6759,-3.6307,-3.578,-3.5332,-3.5232,-3.4831,-3.4119,-3.2785,-3.3399,-3.3383,-3.1727,-3.1937,-3.2055,-3.1544,-3.0278,-2.9972,-3.1058,-3.0097,-2.9972,-3.1058,-3.0877,-3.0358,-2.955,-2.9202,-2.8107,-2.618,-2.6976,-2.6292,-2.4199,-2.5247,-2.4999,-2.3736,-2.5129,-2.5555,-2.5352,-2.6281,-2.5979,-2.4808,-2.4968,-2.4537,-2.3828,-2.4082,-2.4238,-2.4297,-2.4219,-2.4199,-2.4199,-2.4199,-2.4238,-2.4297,-2.4219,-2.4258,-2.4297,-2.4219,-2.4199,-2.4199,-2.4199,-2.3945,-2.375,-2.4102,-2.4258,-2.4394,-2.4766,-2.5195,-2.5092,-2.3665,-2.4412,-2.4971,-2.3633,-2.4461,-2.5333,-2.5333,-2.5333,-2.5333,-2.5333,-2.4412,-2.3534,-2.3035,-2.0998,-1.9524,-1.9265,-1.8251,-1.7582,-1.7582,-1.7582,-1.7527,-1.7286,-1.7501,-1.7475,-1.7286,-1.7462,-1.7582,-1.7582,-1.9445,-2.0694,-2.1338,-2.3456,-2.4593,-2.4726,-2.4964,-2.4824,-1.9685,-2.3376,-2.7519,-3.1286,-3.2767,-3.3571,-3.46,-3.4901,-3.4951,-3.4951,-3.5332,-3.5708,-3.5633,-3.5157,-3.4675,-3.4198,-3.4048,-3.3424,-3.1687,-3.1277,-3.066,-2.9396,-2.8984,-2.8729,-2.866,-2.8462,-2.8826,-2.993,-2.8998,-2.8803,-2.993,-2.864,-2.796,-2.833,-2.6802,-2.5891,-2.5695,-2.4812,-2.3984,-2.3257,-2.3433,-2.3413,-2.3179,-2.3413,-2.4028,-2.487,-2.4436,-2.4466,-2.4702,-2.3774,-2.357,-2.375,-2.3393,-2.3535,-2.3828,-2.3413,-2.3257,-2.3257,-2.3257,-2.3555,-2.3809,-2.3393,-2.3574,-2.3809,-2.3374,-2.3257,-2.3257,-2.3257,-2.3218,-2.3198,-2.3257,-2.3594,-2.3887,-2.3945,-2.4277,-2.4108,-2.2312,-2.3018,-2.3583,-2.2215,-2.3067,-2.3949,-2.3949,-2.3949,-2.3949,-2.3949,-2.38,-2.2818,-2.0436,-1.9834,-1.9161,-1.7989,-1.7687,-1.7582,-1.7582,-1.7582,-1.7569,-1.7528,-1.7555,-1.7569,-1.7528,-1.7555,-1.7582,-1.7582,-1.7896,-1.8665,-1.9886,-2.1391,-2.2525,-2.3281,-2.4517,-2.4824,-2.0334,-2.3728,-2.7067,-3.0105,-3.1486,-3.2416,-3.3545,-3.4048,-3.4349,-3.465,-3.4675,-3.4726,-3.4981,-3.4625,-3.4173,-3.3947,-3.3069,-3.1813,-3.0115,-2.9704,-2.9077,-2.7588,-2.7567,-2.7665,-2.7665,-2.6798,-2.6729,-2.7888,-2.6899,-2.6771,-2.7888,-2.7243,-2.6677,-2.6238,-2.5465,-2.48,-2.4213,-2.3663,-2.3276,-2.3101,-2.3101,-2.3101,-2.3101,-2.3101,-2.3387,-2.3844,-2.356,-2.3564,-2.38,-2.3299,-2.3198,-2.3398,-2.3179,-2.3218,-2.3398,-2.3159,-2.3101,-2.3101,-2.3101,-2.3218,-2.3354,-2.3159,-2.3218,-2.3379,-2.3159,-2.3101,-2.3101,-2.3101,-2.3101,-2.3101,-2.3101,-2.3457,-2.3789,-2.3789,-2.4102,-2.3981,-2.2413,-2.2757,-2.3216,-2.2883,-2.3899,-2.4824,-2.4824,-2.4824,-2.4559,-2.38,-2.3067,-2.1862,-1.9886,-1.8968,-1.8251,-1.7687,-1.7582,-1.7582,-1.7582,-1.7582,-1.7582,-1.7582,-1.7582,-1.7582,-1.7582,-1.7582,-1.7582,-1.7582,-1.8356,-1.902,-1.9576,-2.176,-2.3029,-2.343,-2.4783,-2.5332,-2.043,-2.2774,-2.4858,-2.7946,-2.9553,-3.0708,-3.2139,-3.2867,-3.337,-3.3796,-3.3545,-3.3283,-3.3444,-3.3471,-3.347,-3.347,-3.2209,-3.0612,-2.8811,-2.8476,-2.7723,-2.5868,-2.5978,-2.6215,-2.6215,-2.5083,-2.483,-2.5964,-2.4999,-2.4893,-2.6005,-2.5797,-2.5274,-2.4382,-2.4382,-2.3953,-2.3101,-2.3101,-2.3101,-2.3101,-2.3101,-2.3101,-2.3101,-2.3101,-2.3101,-2.3101,-2.3101,-2.3101,-2.3101,-2.3101,-2.3101,-2.3101,-2.3101,-2.3101,-2.3101,-2.3101,-2.3101,-2.3101,-2.3101,-2.3101,-2.3101,-2.3101,-2.3101,-2.3101,-2.3101,-2.3101,-2.3101,-2.3101,-2.3101,-2.3101,-2.3101,-2.3379,-2.3633,-2.3633,-2.3867,-2.3794,-2.279,-2.2793,-2.305,-2.3146,-2.4245,-2.5167,-2.5167,-2.4922,-2.4344,-2.3335,-2.2064,-2.0641,-1.9265,-1.8199,-1.7582,-1.7582,-1.7582,-1.7582,-1.7582,-1.7582,-1.7582,-1.7582,-1.7582,-1.7582,-1.7582,-1.7582,-1.7582,-1.7582,-1.8551,-1.9072,-1.9124,-2.1862,-2.3185,-2.3235,-2.4922,-2.5693,-1.856,-1.9635,-2.1016,-2.4858,-2.6666,-2.8072,-3.0256,-3.1135,-3.1537,-3.1562,-3.1537,-3.1224,-3.0224,-3.1269,-3.229,-3.229,-3.1797,-3.0587,-2.8266,-2.7624,-2.6519,-2.4212,-2.357,-2.3339,-2.3339,-2.3232,-2.3671,-2.4787,-2.3844,-2.3671,-2.483,-2.3844,-2.3256,-2.3188,-2.3188,-2.3188,-2.3101,-2.3101,-2.3101,-2.3101,-2.3101,-2.3101,-2.3101,-2.3101,-2.3101,-2.3101,-2.3101,-2.3101,-2.3101,-2.3101,-2.3101,-2.3101,-2.3101,-2.3101,-2.3101,-2.3101,-2.3101,-2.3101,-2.3101,-2.3101,-2.3101,-2.3101,-2.3101,-2.3101,-2.3101,-2.3101,-2.3101,-2.3101,-2.3101,-2.3101,-2.3101,-2.312,-2.314,-2.314,-2.314,-2.3115,-2.3008,-2.2973,-2.2757,-2.198,-2.2868,-2.3782,-2.3782,-2.2767,-2.1895,-2.1794,-2.059,-1.9213,-1.7898,-1.7635,-1.7582,-1.7582,-1.7582,-1.7582,-1.7582,-1.7582,-1.7582,-1.7582,-1.7582,-1.7582,-1.7582,-1.7582,-1.7582,-1.7582,-1.7687,-1.7687,-1.7687,-2.0487,-2.1794,-2.1845,-2.4461,-2.5693,-1.8311,-1.9133,-2.0036,-2.3195,-2.4825,-2.6189,-2.8047,-2.9453,-3.0457,-3.0809,-3.116,-3.1058,-2.9972,-3.0266,-3.0429,-2.9683,-2.8766,-2.7718,-2.6585,-2.5628,-2.4629,-2.3487,-2.3198,-2.3101,-2.3101,-2.3101,-2.3256,-2.3671,-2.3343,-2.3256,-2.3671,-2.3299,-2.3101,-2.3101,-2.3101,-2.3101,-2.3101,-2.3101,-2.3101,-2.3101,-2.3101,-2.3101,-2.3101,-2.3101,-2.3101,-2.3101,-2.3101,-2.3101,-2.3101,-2.3101,-2.3101,-2.3101,-2.3101,-2.3101,-2.3101,-2.3101,-2.3101,-2.3101,-2.3101,-2.3101,-2.3101,-2.3101,-2.3101,-2.3101,-2.3101,-2.3101,-2.3101,-2.3101,-2.3101,-2.3101,-2.3101,-2.3101,-2.3159,-2.3496,-2.3555,-2.3693,-2.4212,-2.3732,-2.3165,-2.2997,-2.4048,-2.4707,-2.385,-2.3285,-2.2366,-2.0641,-1.9937,-1.9124,-1.7793,-1.7582,-1.7582,-1.7582,-1.7582,-1.7582,-1.7582,-1.7582,-1.7582,-1.7582,-1.7582,-1.7582,-1.7582,-1.7582,-1.7582,-1.7582,-1.7582,-1.7582,-1.7582,-1.9472,-2.0333,-2.0385,-2.2265,-2.3135,-1.7688,-1.8155,-1.8832,-2.1619,-2.2723,-2.3778,-2.6163,-2.757,-2.8537,-2.909,-2.9643,-2.974,-2.8857,-2.8379,-2.8045,-2.7843,-2.6998,-2.613,-2.5421,-2.4661,-2.3879,-2.3164,-2.3101,-2.3101,-2.3101,-2.3101,-2.3101,-2.3101,-2.3101,-2.3101,-2.3101,-2.3101,-2.3101,-2.3101,-2.3101,-2.3101,-2.3101,-2.3101,-2.3101,-2.3101,-2.3101,-2.3101,-2.3101,-2.3101,-2.3101,-2.3101,-2.3101,-2.3101,-2.3101,-2.3101,-2.3101,-2.3101,-2.3101,-2.3101,-2.3101,-2.3101,-2.3101,-2.3101,-2.3101,-2.3101,-2.3101,-2.3101,-2.3101,-2.3101,-2.3101,-2.3101,-2.3101,-2.3101,-2.3101,-2.3101,-2.3101,-2.3101,-2.3198,-2.3691,-2.3906,-2.4199,-2.4949,-2.4469,-2.4007,-2.4319,-2.5069,-2.5284,-2.3949,-2.3335,-2.2265,-1.9937,-1.9213,-1.8603,-1.7687,-1.7582,-1.7582,-1.7582,-1.7582,-1.7582,-1.7582,-1.7582,-1.7582,-1.7582,-1.7582,-1.7582,-1.7582,-1.7582,-1.7582,-1.7582,-1.7582,-1.7635,-1.7742,-1.8974,-1.9576,-1.9627,-2.1033,-2.1693,0.0,0.0,0.0,-1.9912,-2.0189,-2.0765,-2.4531,-2.546,-2.5692,-2.6245,-2.6833,-2.7042,-2.649,-2.5503,-2.5296,-2.6919,-2.6733,-2.6005,-2.4914,-2.4745,-2.4339,-2.3212,-2.3101,-2.3101,-2.3101,-2.3101,-2.3101,-2.3101,-2.3101,-2.3101,-2.3101,-2.3101,-2.3081,-2.3081,-2.3081,-2.3081,-2.3081,-2.3062,-2.3062,-2.3062,-2.3062,-2.3062,-2.3062,-2.3062,-2.3062,-2.3062,-2.3062,-2.3062,-2.3062,-2.3081,-2.3101,-2.3101,-2.3101,-2.3101,-2.3101,-2.3101,-2.3101,-2.3101,-2.3101,-2.3101,-2.3101,-2.3101,-2.3101,-2.3101,-2.3101,-2.3101,-2.3101,-2.3101,-2.3101,-2.3101,-2.3101,-2.3101,-2.3198,-2.3691,-2.4102,-2.4512,-2.5008,-2.5106,-2.5195,-2.5596,-2.5693,-2.5284,-2.3899,-2.2567,-2.1186,-1.9782,-1.8447,-1.7582,-1.7582,-1.7582,-1.7582,-1.7582,-1.7582,-1.7582,-1.7582,-1.7582,-1.7582,-1.7582,-1.7582,-1.7582,-1.7582,-1.7582,-1.7582,-1.7582,-1.7595,-1.7742,-1.7995,-1.9036,-1.9554,-1.9606,-2.0963,-2.1608,-1.704,0.0,0.0,0.0,0.0,0.0,-2.0562,-2.2368,-2.3648,-2.3254,-2.4493,-2.5284,-2.412,-2.4128,-2.4263,-2.3881,-2.3937,-2.393,-2.3584,-2.3541,-2.3474,-2.3144,-2.3101,-2.3101,-2.3101,-2.3101,-2.3101,-2.3101,-2.3101,-2.3101,-2.3101,-2.3101,-2.2964,-2.2695,-2.2676,-2.2676,-2.2676,-2.2383,-2.2227,-2.2227,-2.2227,-2.2227,-2.2227,-2.2227,-2.2227,-2.2227,-2.2227,-2.2227,-2.2285,-2.2847,-2.3101,-2.3101,-2.3101,-2.3101,-2.3101,-2.3101,-2.3101,-2.3101,-2.3101,-2.3101,-2.3101,-2.3101,-2.3101,-2.3101,-2.3101,-2.3101,-2.3101,-2.3101,-2.3101,-2.3101,-2.3101,-2.3101,-2.3198,-2.3691,-2.3887,-2.4082,-2.4512,-2.4844,-2.5195,-2.5596,-2.5693,-2.4971,-2.2667,-2.1963,-2.0896,-1.8499,-1.7832,-1.7582,-1.7582,-1.7582,-1.7582,-1.7582,-1.7582,-1.7582,-1.7582,-1.7582,-1.7582,-1.7582,-1.7582,-1.7582,-1.7582,-1.7582,-1.7582,-1.7582,-1.7809,-1.7902,-1.7995,-1.8332,-1.8548,-1.8823,-1.8963,-1.8935,-1.7658,-1.7124,-1.6794,-1.8083,0.0,0.0,-1.966,-2.0738,-2.1375,-2.13,-2.2667,-2.3572,-2.2526,-2.2811,-2.3121,-2.2939,-2.2876,-2.2906,-2.3081,-2.3101,-2.3101,-2.3101,-2.3101,-2.3101,-2.3101,-2.3101,-2.3101,-2.3101,-2.3101,-2.3023,-2.2847,-2.2672,-2.25,-2.2266,-2.2246,-2.2246,-2.2246,-2.2012,-2.1894,-2.1894,-2.1894,-2.1894,-2.1894,-2.1894,-2.1894,-2.1894,-2.1894,-2.1894,-2.1934,-2.2422,-2.2715,-2.2847,-2.3023,-2.3101,-2.3101,-2.3101,-2.3101,-2.3101,-2.3101,-2.3101,-2.3101,-2.3101,-2.3101,-2.3101,-2.3101,-2.3101,-2.3101,-2.3101,-2.3101,-2.3101,-2.3101,-2.3101,-2.3198,-2.3691,-2.3789,-2.3906,-2.4316,-2.4766,-2.5184,-2.541,-2.515,-2.4196,-2.2064,-2.1186,-2.0076,-1.7937,-1.7582,-1.7582,-1.7582,-1.7582,-1.7582,-1.7582,-1.7582,-1.7582,-1.7582,-1.7582,-1.7582,-1.7582,-1.7582,-1.7582,-1.7582,-1.7582,-1.7649,-1.7769,-1.7902,-1.8115,-1.8355,-1.8235,-1.8317,-1.849,-1.8317,-1.813,-1.8306,-1.7505,-1.7135,-1.9058,-1.7727,0.0,-2.0112,-1.9861,-1.9097,-1.9773,-2.0954,-2.173,-2.1266,-2.1429,-2.1928,-2.2889,-2.2717,-2.2624,-2.3023,-2.3101,-2.3101,-2.3101,-2.3062,-2.3023,-2.3023,-2.2984,-2.2964,-2.2964,-2.2964,-2.2769,-2.2402,-2.207,-2.1855,-2.1816,-2.1816,-2.1816,-2.1816,-2.1758,-2.1779,-2.1779,-2.1779,-2.1779,-2.1779,-2.1779,-2.1779,-2.1779,-2.1779,-2.1779,-2.1738,-2.1797,-2.209,-2.2559,-2.2886,-2.3062,-2.3101,-2.3101,-2.3101,-2.3101,-2.3101,-2.3101,-2.3101,-2.3101,-2.3101,-2.3101,-2.3101,-2.3101,-2.3101,-2.3101,-2.3101,-2.3101,-2.3101,-2.3101,-2.3198,-2.3633,-2.3711,-2.3828,-2.4199,-2.4609,-2.4988,-2.5028,-2.4436,-2.3434,-2.1946,-2.0641,-1.9317,-1.7845,-1.7582,-1.7582,-1.7582,-1.7582,-1.7582,-1.7582,-1.7582,-1.7582,-1.7582,-1.7582,-1.7582,-1.7582,-1.7582,-1.7582,-1.7582,-1.7609,-1.7769,-1.7982,-1.8062,-1.8355,-1.8971,-1.8718,-1.8571,-1.8544,-1.8544,-1.8517,-1.8958,-1.8339,-1.78,-1.7836,-1.7777,0.0,-1.6974,-1.7626,-1.8091,-1.713,-1.8123,-1.904,-1.8684,-1.9955,-2.0831,-2.0125,-2.1439,-2.2656,-2.3012,-2.3101,-2.3101,-2.3101,-2.2789,-2.2637,-2.2637,-2.2324,-2.2129,-2.2129,-2.2129,-2.1934,-2.1463,-2.1738,-2.1719,-2.1327,-2.1327,-2.1327,-2.1327,-2.0996,-2.086,-2.086,-2.086,-2.086,-2.086,-2.086,-2.086,-2.086,-2.086,-2.086,-2.0899,-2.1211,-2.1816,-2.2519,-2.2598,-2.2789,-2.3101,-2.3101,-2.3101,-2.3101,-2.3101,-2.3101,-2.3101,-2.3101,-2.3101,-2.3101,-2.3101,-2.3101,-2.3101,-2.3101,-2.3101,-2.3101,-2.3101,-2.3101,-2.312,-2.3198,-2.3218,-2.3237,-2.3335,-2.373,-2.4141,-2.4473,-2.4938,-2.4559,-2.2114,-2.144,-2.0436,-1.7989,-1.7582,-1.7582,-1.7582,-1.7582,-1.7582,-1.7582,-1.7582,-1.7582,-1.7582,-1.7582,-1.7582,-1.7582,-1.7582,-1.7582,-1.7582,-1.7822,-1.7929,-1.7995,-1.8462,-1.8931,-1.9279,-1.9225,-1.9078,-1.8838,-1.8838,-1.8718,-1.9233,-1.8586,-1.8216,-1.8508,-1.8179,0.0,0.0,-1.8179,-1.8139,-1.7884,-1.8512,-1.8976,-1.8567,-1.959,-2.0272,-1.9798,-2.0836,-2.1655,-2.1502,-2.2063,-2.2519,-2.2519,-2.2324,-2.2207,-2.2207,-2.2012,-2.1894,-2.1894,-2.168,-2.1465,-2.121,-2.123,-2.1133,-2.0898,-2.0898,-2.0898,-2.0898,-2.0723,-2.0605,-2.0605,-2.0605,-2.0605,-2.0605,-2.0605,-2.0605,-2.0605,-2.0605,-2.0605,-2.0625,-2.082,-2.1289,-2.1873,-2.2344,-2.2773,-2.3101,-2.3101,-2.3101,-2.3101,-2.3101,-2.3101,-2.3101,-2.3101,-2.3101,-2.3101,-2.3101,-2.3101,-2.3101,-2.3101,-2.3101,-2.3101,-2.3101,-2.3101,-2.3101,-2.3101,-2.3101,-2.3101,-2.3101,-2.3477,-2.3848,-2.4062,-2.4629,-2.4363,-2.2097,-2.059,-1.9213,-1.7779,-1.7582,-1.7582,-1.7582,-1.7582,-1.7582,-1.7582,-1.7582,-1.7582,-1.7582,-1.7582,-1.7582,-1.7582,-1.7582,-1.7649,-1.7809,-1.7916,-1.8129,-1.8422,-1.8918,-1.9225,-1.943,-1.943,-1.9292,-1.9145,-1.9145,-1.9065,-1.9836,-1.9183,-1.9032,-1.9786,-1.8983,-1.841,0.0,0.0,0.0,-1.9202,-1.9422,-1.9399,-1.8992,-1.9492,-1.9912,-1.9705,-2.0258,-2.0402,-1.9565,-2.0508,-2.1293,-2.1311,-2.129,-2.1289,-2.1387,-2.1309,-2.1328,-2.1484,-2.1094,-2.0898,-2.1094,-2.0762,-2.0566,-2.0488,-2.0566,-2.0566,-2.0488,-2.0566,-2.0605,-2.0605,-2.0527,-2.0488,-2.0488,-2.0488,-2.0488,-2.0488,-2.0566,-2.0605,-2.0605,-2.0605,-2.082,-2.1268,-2.1951,-2.2535,-2.2984,-2.2984,-2.3023,-2.3101,-2.3101,-2.3101,-2.3101,-2.3101,-2.3101,-2.3101,-2.3101,-2.3101,-2.3101,-2.3101,-2.295,-2.2775,-2.2775,-2.258,-2.2403,-2.2403,-2.2403,-2.2448,-2.2687,-2.3044,-2.3403,-2.3725,-2.3835,-2.3411,-2.1811,-1.9728,-1.813,-1.7674,-1.7582,-1.7582,-1.7582,-1.7582,-1.7582,-1.7582,-1.7582,-1.7582,-1.7582,-1.7582,-1.7582,-1.7582,-1.7635,-1.7782,-1.7982,-1.8102,-1.8408,-1.8998,-1.9239,-1.943,-1.943,-1.943,-1.943,-1.943,-1.943,-1.943,-2.1644,-2.1167,-2.1016,-2.0691,-2.0382,-1.9982,-1.9332,0.0,-1.8668,-1.8412,0.0,-1.8382,-1.8313,0.0,0.0,-1.7943,-1.9054,-1.9558,-1.7997,-1.8475,-1.9015,-1.9152,-1.904,-1.916,-1.9551,-1.9238,-1.928,-2.0078,-1.9746,-1.9844,-2.0644,-2.0625,-2.0429,-2.0,-2.0371,-2.0391,-1.998,-2.041,-2.0605,-2.0605,-2.0176,-1.998,-1.998,-1.998,-1.998,-2.0,-2.0429,-2.0605,-2.0605,-2.0605,-2.082,-2.121,-2.1307,-2.1834,-2.2578,-2.2578,-2.2769,-2.3101,-2.3101,-2.3101,-2.3101,-2.3101,-2.3101,-2.3101,-2.3101,-2.3101,-2.3101,-2.3101,-2.2359,-2.1525,-2.1525,-2.0719,-1.9906,-1.9906,-1.9906,-2.0223,-2.1257,-2.1561,-2.202,-2.3531,-2.2903,-2.1866,-2.1196,-2.0817,-1.9926,-1.7896,-1.7582,-1.7582,-1.7582,-1.7582,-1.7582,-1.7582,-1.7582,-1.7582,-1.7582,-1.7582,-1.7582,-1.7582,-1.7836,-1.7955,-1.7995,-1.8488,-1.8985,-1.9319,-1.9403,-1.943,-1.943,-1.943,-1.943,-1.943,-1.943,-1.943,-2.1018,-2.1436,-2.2106,-2.0867,-2.1064,-2.1428,-2.1009,-2.0399,-1.9945,-2.0085,0.0,0.0,0.0,0.0,0.0,0.0,-1.9139,-1.8871,-1.7264,-1.7412,-1.7786,-1.8048,-1.8281,-1.8554,-1.8883,-1.8481,-1.8633,-1.9492,-1.916,-1.9277,-2.0137,-2.0195,-2.0215,-2.0293,-2.0215,-2.0215,-2.0293,-1.998,-1.9941,-2.0176,-1.9746,-1.9551,-1.9551,-1.9805,-1.9922,-1.9941,-2.041,-2.0605,-2.0605,-2.0605,-2.0723,-2.084,-2.084,-2.1523,-2.2539,-2.275,-2.2945,-2.3101,-2.3101,-2.3101,-2.3101,-2.3101,-2.3101,-2.3101,-2.3101,-2.2624,-2.2076,-2.2076,-2.1168,-2.0251,-2.0251,-1.9906,-1.9497,-1.9497,-1.9497,-1.9844,-2.1016,-2.1302,-2.1713,-2.3094,-2.3147,-2.2714,-2.1922,-2.0737,-1.9355,-1.7843,-1.7582,-1.7582,-1.7582,-1.7582,-1.7582,-1.7582,-1.7582,-1.7649,-1.7836,-1.7689,-1.7662,-1.7836,-1.8143,-1.8384,-1.8488,-1.8958,-1.9239,-1.9417,-1.943,-1.943,-1.943,-1.943,-1.943,-1.943,-1.943,-1.943,-2.1516,-2.2164,-2.3149,-2.1414,-2.1505,-2.1989,-2.1892,-2.1231,-2.0774,-2.1189,-2.0906,0.0,0.0,0.0,0.0,0.0,0.0,-1.851,-1.7064,-1.6834,-1.6789,-1.6663,-1.7083,-1.7549,-1.7942,-1.7579,-1.7762,-1.8938,-1.8581,-1.8637,-1.9475,-1.9687,-1.9883,-2.0233,-1.9902,-1.9902,-2.0253,-1.9707,-1.9551,-1.9746,-1.9434,-1.9219,-1.9121,-1.9414,-1.9592,-1.9766,-2.0195,-2.0488,-2.0605,-2.0605,-2.0605,-2.0625,-2.0742,-2.1406,-2.2383,-2.2633,-2.2906,-2.3101,-2.3101,-2.3101,-2.3101,-2.3101,-2.3101,-2.3101,-2.3101,-2.2252,-2.1302,-2.1302,-2.0206,-1.8993,-1.8993,-1.8764,-1.8488,-1.8488,-1.8764,-1.936,-2.0522,-2.0792,-2.1293,-2.2973,-2.3306,-2.3172,-2.263,-2.09,-1.9254,-1.83,-1.7832,-1.7582,-1.7582,-1.7662,-1.7675,-1.7595,-1.7662,-1.7769,-1.7849,-1.7796,-1.7876,-1.8209,-1.841,-1.8651,-1.9025,-1.9252,-1.943,-1.943,-1.943,-1.943,-1.943,-1.943,-1.943,-1.943,-1.943,-1.943,-2.46,-2.4299,-2.4324,-2.2669,-2.1776,-2.1243,-2.0832,-2.0622,-2.056,-2.0682,-2.0717,-2.0528,-1.9958,0.0,0.0,0.0,0.0,0.0,0.0,-1.6799,-1.5867,-1.4398,-1.476,-1.5435,-1.6288,-1.5838,-1.6277,-1.82,-1.7783,-1.7793,-1.8598,-1.9082,-1.9316,-1.9336,-1.9316,-1.9316,-1.9336,-1.9707,-1.9687,-1.9297,-1.9297,-1.9062,-1.8617,-1.8637,-1.887,-1.9336,-1.9746,-2.0176,-2.0605,-2.0605,-2.0605,-2.0644,-2.1055,-2.1504,-2.1914,-2.1914,-2.2441,-2.3101,-2.3101,-2.3101,-2.3101,-2.3101,-2.3101,-2.3101,-2.3101,-2.2252,-2.1302,-2.1302,-1.9588,-1.7777,-1.7777,-1.6857,-1.5927,-1.5927,-1.6857,-1.8102,-1.9314,-1.9542,-2.0371,-2.3223,-2.2847,-2.226,-2.2895,-2.1835,-2.0632,-1.9686,-1.8461,-1.7582,-1.7582,-1.7849,-1.7862,-1.7609,-1.7849,-1.7916,-1.7622,-1.7862,-1.8222,-1.8851,-1.8637,-1.8744,-1.939,-1.9359,-1.943,-1.943,-1.943,-1.943,-1.943,-1.943,-1.943,-1.943,-1.943,-1.943,-2.5296,-2.5921,-2.6411,-2.3887,-2.3174,-2.2785,-2.1952,-2.0798,-1.9935,-2.0083,-2.0265,-2.0123,0.0,0.0,0.0,0.0,0.0,0.0,0.0,-1.503,-1.4295,-1.4304,-1.4129,-1.4451,-1.5601,-1.5271,-1.5497,-1.6766,-1.6904,-1.7291,-1.8184,-1.8633,-1.9121,-1.9687,-1.916,-1.9121,-1.9687,-1.9004,-1.873,-1.8812,-1.8574,-1.8359,-1.8208,-1.8809,-1.9141,-1.9336,-2.0039,-2.0468,-2.0605,-2.0605,-2.0605,-2.0625,-2.0742,-2.123,-2.1914,-2.2207,-2.2656,-2.3101,-2.3101,-2.3101,-2.3101,-2.3101,-2.3101,-2.295,-2.2164,-2.1078,-1.9951,-1.9131,-1.7716,-1.6433,-1.6433,-1.6103,-1.5784,-1.5784,-1.6103,-1.681,-1.8041,-1.914,-2.0432,-2.2263,-2.339,-2.4098,-2.4336,-2.3499,-2.2362,-2.1186,-1.9834,-1.8916,-1.8916,-1.8243,-1.7702,-1.7595,-1.7675,-1.8141,-1.9165,-1.9521,-1.9372,-1.868,-1.8731,-1.8958,-1.9359,-1.943,-1.943,-1.943,-1.943,-1.943,-1.943,-1.943,-1.943,-1.943,-1.943,-1.943,-2.6364,-2.7072,-2.7512,-2.5025,-2.4467,-2.4091,-2.2524,-2.1326,-2.0623,-2.0806,-2.024,-1.9802,0.0,0.0,0.0,0.0,0.0,0.0,0.0,-1.4246,-1.3821,-1.4341,-1.3899,-1.4136,-1.559,-1.4995,-1.5074,-1.6337,-1.6451,-1.6797,-1.7486,-1.8071,-1.8809,-1.9668,-1.8968,-1.9007,-1.9902,-1.9102,-1.875,-1.8867,-1.8594,-1.8457,-1.8477,-1.8887,-1.9219,-1.9531,-2.0098,-2.0468,-2.0605,-2.0605,-2.0605,-2.0625,-2.0742,-2.125,-2.1914,-2.2187,-2.2656,-2.3101,-2.3101,-2.3101,-2.3101,-2.3101,-2.2818,-2.2315,-2.1525,-2.0161,-1.8688,-1.7917,-1.6763,-1.5784,-1.5784,-1.5784,-1.5784,-1.5784,-1.615,-1.6716,-1.7498,-1.8582,-1.9792,-2.1258,-2.2304,-2.3335,-2.442,-2.4128,-2.3434,-2.2567,-2.1253,-2.0179,-1.9679,-1.9012,-1.8381,-1.7661,-1.7769,-1.8346,-1.9442,-2.0013,-1.9906,-1.8897,-1.8878,-1.9052,-1.9417,-1.943,-1.9412,-1.9519,-1.9426,-1.947,-1.9519,-1.947,-1.943,-1.943,-1.943,-1.943]},{"header":{"parameterUnit":"m.s-1","parameterCategory":1,"la1":30.6,"la2":29.2853,"lo1":-89.7004,"lo2":-87.6739,"dy":0.0162,"dx":0.0183,"nx":112,"ny":82,"refTime":"2024-05-04T06:00:00:Z","depth":0,"parameterNumber":3,"parameterNumberName":"V-component_of_WINDS"},"data":[0.0,0.0,0.0,0.0,0.0,0.0,0.0,0.0,0.0,0.0,0.0,0.0,0.0,0.0,0.0,0.0,0.0,0.0,0.0,0.0,0.0,0.0,0.0,0.0,0.0,0.0,0.0,0.0,0.0,0.0,0.0,0.0,0.0,0.0,0.0,0.0,0.0,0.0,0.0,0.0,0.0,0.0,0.0,0.0,0.0,0.0,0.0,0.0,0.0,0.0,0.0,0.0,0.0,0.0,0.0,0.0,0.0,0.0,0.0,0.0,0.0,0.0,0.0,0.0,0.0,0.0,0.0,0.0,0.0,0.0,0.0,0.0,0.0,0.0,0.0,0.0,0.0,0.0,0.0,0.0,0.0,0.0,0.0,0.0,0.0,0.0,0.0,0.0,0.0,0.0,1.713,1.935,2.3755,2.6623,2.6823,2.753,2.5613,2.0174,0.0,0.0,0.0,0.0,0.0,0.0,0.0,0.0,0.0,0.0,0.0,0.0,0.0,0.0,0.0,0.0,0.0,0.0,0.0,0.0,0.0,0.0,0.0,0.0,0.0,0.0,0.0,0.0,0.0,0.0,0.0,0.0,0.0,0.0,0.0,0.0,0.0,0.0,0.0,0.0,0.0,0.0,0.0,0.0,0.0,0.0,0.0,0.0,0.0,0.0,0.0,0.0,0.0,0.0,0.0,0.0,0.0,0.0,0.0,0.0,0.0,0.0,0.0,0.0,0.0,0.0,0.0,0.0,0.0,0.0,0.0,0.0,0.0,0.0,0.0,0.0,0.0,0.0,0.0,0.0,0.0,0.0,0.0,0.0,0.0,0.0,0.0,0.0,0.0,0.0,0.0,0.0,0.0,0.0,0.0,0.0,0.0,0.0,0.0,0.0,0.0,0.0,0.0,0.0,1.9061,2.3909,2.5177,2.6068,2.7076,2.6336,2.4439,2.1145,0.0,0.0,0.0,0.0,0.0,0.0,0.0,0.0,0.0,0.0,0.0,0.0,0.0,0.0,0.0,0.0,0.0,0.0,0.0,0.0,0.0,0.0,0.0,0.0,0.0,0.0,0.0,0.0,0.0,0.0,0.0,0.0,0.0,0.0,0.0,0.0,0.0,0.0,0.0,0.0,0.0,0.0,0.0,0.0,0.0,0.0,0.0,0.0,0.0,0.0,0.0,0.0,0.0,0.0,0.0,0.0,0.0,0.0,0.0,0.0,0.0,0.0,0.0,0.0,0.0,0.0,0.0,0.0,0.0,0.0,0.0,0.0,0.0,0.0,0.0,0.0,0.0,0.0,0.0,0.0,0.0,0.0,0.0,0.0,0.0,0.0,0.0,0.0,0.0,0.0,0.0,0.0,0.0,0.0,0.0,0.0,0.0,0.0,0.0,0.0,0.0,0.0,0.0,1.7407,1.9704,2.4213,2.5174,2.5809,2.6549,2.5867,2.4218,2.1385,2.081,0.0,0.0,0.0,0.0,0.0,0.0,0.0,0.0,0.0,0.0,0.0,0.0,0.0,0.0,0.0,0.0,0.0,0.0,0.0,0.0,0.0,0.0,0.0,0.0,0.0,0.0,0.0,0.0,0.0,0.0,0.0,0.0,0.0,0.0,0.0,0.0,0.0,0.0,0.0,0.0,0.0,0.0,0.0,0.0,0.0,0.0,0.0,0.0,0.0,0.0,0.0,0.0,0.0,0.0,0.0,0.0,0.0,0.0,0.0,0.0,0.0,0.0,0.0,0.0,0.0,0.0,0.0,0.0,0.0,0.0,0.0,0.0,0.0,0.0,0.0,0.0,0.0,0.0,0.0,0.0,0.0,0.0,0.0,0.0,0.0,0.0,0.0,0.0,0.0,0.0,0.0,0.0,0.0,0.0,0.0,0.0,0.0,0.0,0.0,0.0,0.0,0.0,1.8887,2.06,2.3745,2.4782,2.5406,2.5907,2.5079,2.3524,2.1061,2.0161,0.0,0.0,0.0,0.0,0.0,0.0,0.0,0.0,0.0,0.0,0.0,0.0,0.0,0.0,0.0,0.0,0.0,0.0,0.0,0.0,0.0,0.0,0.0,0.0,0.0,0.0,0.0,0.0,0.0,0.0,0.0,0.0,0.0,0.0,0.0,0.0,0.0,0.0,0.0,0.0,0.0,0.0,0.0,0.0,0.0,0.0,0.0,0.0,0.0,0.0,0.0,0.0,0.0,0.0,0.0,0.0,0.0,0.0,0.0,0.0,0.0,0.0,0.0,0.0,0.0,0.0,0.0,0.0,0.0,0.0,0.0,0.0,0.0,0.0,0.0,0.0,0.0,0.0,0.0,0.0,0.0,0.0,0.0,0.0,0.0,0.0,0.0,0.0,0.0,0.0,0.0,0.0,0.0,0.0,0.0,0.0,0.0,0.0,0.0,0.0,0.0,0.0,2.0139,2.2617,2.4212,2.439,2.4682,2.5377,2.3345,2.1506,2.0153,1.9335,0.0,0.0,0.0,0.0,0.0,0.0,0.0,0.0,0.0,0.0,0.0,0.0,0.0,0.0,0.0,0.0,0.0,0.0,0.0,0.0,0.0,0.0,0.0,0.0,0.0,0.0,0.0,0.0,0.0,0.0,0.0,0.0,0.0,0.0,0.0,0.0,0.0,0.0,0.0,0.0,0.0,0.0,0.0,0.0,0.0,0.0,0.0,0.0,0.0,0.0,0.0,0.0,0.0,0.0,0.0,0.0,0.0,0.0,0.0,0.0,0.0,0.0,0.0,0.0,0.0,0.0,0.0,0.0,0.0,0.0,0.0,0.0,0.0,0.0,0.0,0.0,0.0,0.0,0.0,0.0,0.0,0.0,0.0,0.0,0.0,0.0,0.0,0.0,0.0,0.0,0.0,0.0,0.0,0.0,0.0,0.0,0.0,0.0,0.0,0.0,0.0,0.0,1.9783,2.1642,2.3184,2.3492,2.3815,2.4283,2.3251,2.2081,2.1005,0.0,0.0,0.0,0.0,0.0,0.0,0.0,0.0,0.0,0.0,0.0,0.0,0.0,0.0,0.0,0.0,0.0,0.0,0.0,0.0,0.0,0.0,0.0,0.0,0.0,0.0,0.0,0.0,0.0,0.0,0.0,0.0,0.0,0.0,0.0,0.0,0.0,0.0,0.0,0.0,0.0,0.0,0.0,0.0,0.0,0.0,0.0,0.0,0.0,0.0,0.0,0.0,0.0,0.0,0.0,0.0,0.0,0.0,0.0,0.0,0.0,0.0,0.0,0.0,0.0,0.0,0.0,0.0,0.0,0.0,0.0,0.0,0.0,0.0,0.0,0.0,0.0,0.0,0.0,0.0,0.0,0.0,0.0,0.0,0.0,0.0,0.0,0.0,0.0,0.0,0.0,0.0,0.0,0.0,0.0,0.0,0.0,0.0,0.0,0.0,0.0,0.0,1.8128,1.9822,2.1418,2.2715,2.3069,2.3362,2.3816,2.283,2.2017,2.1515,0.0,0.0,0.0,0.0,0.0,0.0,0.0,0.0,0.0,0.0,0.0,0.0,0.0,0.0,0.0,0.0,0.0,0.0,0.0,0.0,0.0,0.0,0.0,0.0,0.0,0.0,0.0,0.0,0.0,0.0,0.0,0.0,0.0,0.0,0.0,0.0,0.0,0.0,0.0,0.0,0.0,0.0,0.0,0.0,0.0,0.0,0.0,0.0,0.0,0.0,0.0,0.0,0.0,0.0,0.0,0.0,0.0,0.0,0.0,0.0,0.0,0.0,0.0,0.0,0.0,0.0,0.0,0.0,0.0,0.0,0.0,0.0,0.0,0.0,0.0,0.0,0.0,0.0,0.0,0.0,0.0,0.0,0.0,0.0,0.0,0.0,0.0,0.0,0.0,0.0,0.0,0.0,0.0,0.0,0.0,0.0,0.0,0.0,0.0,0.0,0.0,0.0,1.8312,2.0632,2.2535,2.3117,2.32,2.3477,2.4141,2.1942,2.0802,0.0,0.0,0.0,0.0,0.0,0.0,0.0,0.0,0.0,0.0,0.0,0.0,0.0,0.0,0.0,0.0,0.0,0.0,0.0,0.0,0.0,0.0,0.0,0.0,0.0,0.0,0.0,0.0,0.0,0.0,0.0,0.0,0.0,0.0,0.0,0.0,0.0,0.0,0.0,0.0,0.0,0.0,0.0,0.0,0.0,0.0,0.0,0.0,0.0,0.0,0.0,0.0,0.0,0.0,0.0,0.0,0.0,0.0,0.0,0.0,0.0,0.0,0.0,0.0,0.0,0.0,0.0,0.0,0.0,0.0,0.0,0.0,0.0,0.0,0.0,0.0,0.0,0.0,0.0,0.0,0.0,0.0,0.0,0.0,0.0,0.0,0.0,0.0,0.0,0.0,0.0,0.0,0.0,0.0,0.0,0.0,0.0,0.0,0.0,0.0,0.0,0.0,0.0,1.8327,2.0632,2.244,2.2797,2.3057,2.3398,2.3806,2.2365,2.1493,2.1706,0.0,0.0,0.0,0.0,0.0,0.0,0.0,0.0,0.0,0.0,0.0,0.0,0.0,0.0,0.0,0.0,0.0,0.0,0.0,0.0,0.0,0.0,0.0,0.0,0.0,0.0,0.0,0.0,0.0,0.0,0.0,0.0,0.0,0.0,0.0,0.0,0.0,0.0,0.0,0.0,0.0,0.0,0.0,0.0,0.0,0.0,0.0,0.0,0.0,0.0,0.0,0.0,0.0,0.0,0.0,0.0,0.0,0.0,0.0,0.0,0.0,0.0,0.0,0.0,0.0,0.0,0.0,0.0,0.0,0.0,0.0,0.0,0.0,0.0,0.0,0.0,0.0,0.0,0.0,0.0,0.0,0.0,0.0,0.0,0.0,0.0,0.0,0.0,0.0,0.0,0.0,0.0,0.0,0.0,0.0,0.0,0.0,0.0,0.0,0.0,0.0,0.0,1.8342,2.0632,2.2453,2.2848,2.3081,2.341,2.3847,2.2603,2.1812,2.1812,0.0,0.0,0.0,0.0,0.0,0.0,0.0,0.0,0.0,0.0,0.0,0.0,0.0,0.0,0.0,0.0,0.0,0.0,0.0,0.0,0.0,0.0,0.0,0.0,0.0,0.0,0.0,0.0,0.0,0.0,0.0,0.0,0.0,0.0,0.0,0.0,0.0,0.0,0.0,0.0,0.0,0.0,0.0,0.0,0.0,0.0,0.0,0.0,0.0,0.0,0.0,0.0,0.0,0.0,0.0,0.0,0.0,0.0,0.0,0.0,0.0,0.0,0.0,0.0,0.0,0.0,0.0,0.0,0.0,0.0,0.0,0.0,0.0,0.0,0.0,0.0,0.0,0.0,0.0,0.0,0.0,0.0,0.0,0.0,0.0,0.0,0.0,0.0,0.0,0.0,0.0,0.0,0.0,0.0,0.0,0.0,0.0,0.0,0.0,0.0,0.0,0.0,1.8342,2.0632,2.2508,2.308,2.3165,2.3455,2.4046,2.2777,2.1923,2.1923,0.0,0.0,0.0,0.0,0.0,0.0,0.0,0.0,0.0,0.0,0.0,0.0,0.0,0.0,0.0,0.0,0.0,0.0,0.0,0.0,0.0,0.0,0.0,0.0,0.0,0.0,0.0,0.0,0.0,0.0,0.0,0.0,0.0,0.0,0.0,0.0,0.0,0.0,0.0,0.0,0.0,0.0,0.0,0.0,0.0,0.0,0.0,0.0,0.0,0.0,0.0,0.0,0.0,0.0,0.0,0.0,0.0,0.0,0.0,0.0,1.4199,1.2679,0.0,0.0,0.0,0.0,0.0,0.0,0.0,0.0,0.0,0.0,0.0,0.0,0.0,0.0,0.0,0.0,0.0,0.0,0.0,0.0,0.0,0.0,0.0,0.0,0.0,0.0,0.0,0.0,0.0,0.0,0.0,0.0,0.0,0.0,0.0,0.0,0.0,0.0,0.0,0.0,1.8342,2.0632,2.2349,2.2467,2.292,2.3247,2.3421,2.2996,2.2749,2.2749,2.1835,0.0,0.0,0.0,0.0,0.0,0.0,0.0,0.0,0.0,0.0,0.0,0.0,0.0,0.0,0.0,0.0,0.0,0.0,0.0,0.0,0.0,0.0,0.0,0.0,0.0,0.0,0.0,0.0,0.0,0.0,0.0,0.0,0.0,0.0,0.0,0.0,0.0,0.0,0.0,0.0,0.0,0.0,0.0,0.0,0.0,0.0,0.0,0.0,0.0,0.0,0.0,0.0,0.0,0.0,0.0,0.0,0.0,0.0,0.0,1.6089,1.4674,0.0,0.0,0.0,0.0,0.0,0.0,0.0,0.0,0.0,0.0,0.0,0.0,0.0,0.0,0.0,0.0,0.0,0.0,0.0,0.0,0.0,0.0,0.0,0.0,0.0,0.0,0.0,0.0,0.0,0.0,0.0,0.0,0.0,0.0,0.0,0.0,0.0,0.0,0.0,0.0,1.8357,2.0632,2.2349,2.2473,2.2933,2.3259,2.3444,2.3188,2.3006,2.3006,2.1984,0.0,0.0,0.0,0.0,0.0,0.0,0.0,0.0,0.0,0.0,0.0,0.0,0.0,0.0,0.0,0.0,0.0,0.0,0.0,0.0,0.0,0.0,0.0,0.0,0.0,0.0,0.0,0.0,0.0,0.0,0.0,0.0,0.0,0.0,0.0,0.0,0.0,0.0,0.0,0.0,0.0,0.0,0.0,0.0,0.0,0.0,0.0,0.0,0.0,0.0,0.0,0.0,0.0,2.1181,2.1462,2.2127,2.1179,2.1291,2.209,1.9378,1.8125,1.7855,1.5775,0.0,0.0,0.0,0.0,0.0,0.0,0.0,0.0,0.0,0.0,0.0,0.0,0.0,0.0,0.0,0.0,0.0,0.0,0.0,0.0,0.0,0.0,2.1759,2.2486,2.3489,2.3505,2.0569,0.0,0.0,0.0,0.0,0.0,0.0,0.0,0.0,0.0,0.0,0.0,1.8664,2.0788,2.2371,2.2612,2.2972,2.3294,2.3588,2.3346,2.3226,2.3226,2.2011,2.1187,0.0,0.0,0.0,0.0,0.0,0.0,0.0,0.0,0.0,0.0,0.0,0.0,0.0,0.0,0.0,0.0,0.0,0.0,0.0,0.0,0.0,0.0,0.0,0.0,0.0,0.0,0.0,0.0,0.0,0.0,0.0,0.0,1.4303,1.513,0.0,0.0,0.0,0.0,0.0,0.0,0.0,0.0,0.0,0.0,0.0,0.0,0.0,2.2325,2.2843,2.518,2.5836,2.4869,2.7659,2.8512,2.7565,2.7442,2.7437,2.7518,2.6539,0.0,1.8863,1.8951,0.0,0.0,0.0,0.0,0.0,0.0,0.0,0.0,0.0,0.0,0.0,0.0,0.0,0.0,0.0,0.0,0.0,0.0,0.0,0.0,0.0,0.0,2.59,2.6051,2.6417,2.651,2.5764,2.2108,1.898,1.9138,1.8288,1.7169,0.0,0.0,0.0,0.0,0.0,0.0,1.9899,2.1349,2.2307,2.2349,2.2857,2.3212,2.3247,2.3718,2.4043,2.4043,2.3996,2.3226,2.1568,2.1665,0.0,0.0,0.0,0.0,0.0,0.0,0.0,0.0,0.0,0.0,0.0,0.0,0.0,0.0,0.0,0.0,0.0,0.0,0.0,0.0,0.0,0.0,0.0,0.0,0.0,0.0,0.0,0.0,0.0,1.3339,1.4312,1.522,1.5325,1.4986,0.0,0.0,0.0,0.0,0.0,0.0,0.0,0.0,0.0,2.423,2.5115,2.6179,2.743,2.8958,2.9627,2.945,3.0918,3.1539,3.133,3.0971,3.0791,3.0761,3.0103,2.7935,2.4798,2.2447,2.052,1.8854,0.0,0.0,0.0,0.0,1.8059,1.8479,2.1091,2.1545,2.1008,2.1337,0.0,0.0,0.0,0.0,0.0,0.0,0.0,2.2194,2.4435,2.5921,2.7268,2.8869,2.9017,2.902,2.9705,2.667,2.3407,2.207,2.0639,1.8952,1.6653,1.7119,0.0,0.0,0.0,2.0477,2.0874,2.2441,2.3376,2.297,2.3467,2.366,2.3236,2.3816,2.419,2.419,2.4294,2.3988,2.324,2.2328,2.1328,0.0,0.0,0.0,0.0,0.0,0.0,0.0,0.0,0.0,0.0,0.0,0.0,0.0,0.0,0.0,0.0,0.0,0.0,0.0,0.0,0.0,0.0,0.0,0.0,0.0,0.0,0.0,0.0,1.5004,1.584,1.6114,1.7305,1.72,0.0,0.0,0.0,0.0,0.0,0.0,2.3328,2.4094,2.5602,2.8207,2.8935,3.01,3.1779,3.2258,3.2766,3.3275,3.3275,3.3544,3.3993,3.3335,3.3006,3.2976,3.2288,3.148,3.0255,2.6032,2.3693,2.2566,2.055,1.9739,1.9842,2.1033,2.1434,2.1859,2.5137,2.5671,2.4912,2.5093,2.4438,2.32,2.1189,0.0,0.0,0.0,0.0,2.4441,2.733,2.8215,2.8929,3.1213,3.1326,3.119,3.209,3.021,2.7669,2.5426,2.3762,2.1769,1.8625,1.9258,0.0,1.7314,1.9863,2.2081,2.2167,2.3536,2.4305,2.3748,2.4045,2.4095,2.3531,2.3914,2.419,2.419,2.419,2.4275,2.4428,2.3015,2.2392,2.2635,0.0,0.0,0.0,0.0,0.0,0.0,0.0,0.0,0.0,0.0,0.0,0.0,0.0,0.0,0.0,0.0,0.0,0.0,0.0,0.0,0.0,0.0,0.0,0.0,0.0,0.0,0.0,0.0,0.0,1.8904,2.1282,0.0,0.0,0.0,0.0,2.1272,2.2003,2.3791,2.6962,2.8224,3.0192,3.3065,3.3813,3.45,3.525,3.528,3.534,3.534,3.534,3.537,3.537,3.4713,3.4414,3.4384,3.3694,3.3365,3.3036,2.9687,2.7041,2.5048,2.4287,2.3413,2.2724,2.3737,2.4409,2.5082,2.6757,2.718,2.7217,2.8147,2.7119,2.5496,2.5599,2.4253,0.0,0.0,2.6165,2.7336,3.0235,3.1509,3.2253,3.3085,3.3254,3.3051,3.2429,3.0967,2.9576,2.8878,2.7485,2.5581,2.2862,0.0,2.2916,2.1519,2.1948,2.291,2.4179,2.4425,2.4474,2.444,2.4344,2.4295,2.4259,2.4219,2.419,2.419,2.419,2.4199,2.4209,2.4126,2.3299,2.1717,2.1553,0.0,0.0,0.0,0.0,0.0,0.0,0.0,0.0,0.0,0.0,0.0,0.0,0.0,0.0,0.0,0.0,0.0,0.0,0.0,0.0,0.0,0.0,0.0,0.0,0.0,0.0,0.0,0.0,2.1269,2.3977,0.0,2.2009,2.293,2.4019,2.4816,2.6574,2.8595,3.0831,3.2191,3.3452,3.4739,3.5011,3.525,3.5519,3.5519,3.5519,3.5519,3.5519,3.5519,3.5489,3.525,3.513,3.513,3.4891,3.4532,3.4023,3.2856,3.1424,2.9863,2.9214,2.8691,2.8492,2.9276,2.9709,2.9995,3.0988,3.1011,3.0498,2.9916,2.8872,2.7874,2.7975,2.779,2.7906,2.9607,3.026,3.0882,3.2807,3.3152,3.3186,3.3931,3.3761,3.3592,3.4269,3.3211,3.2098,3.1861,2.9354,2.6755,2.5158,2.5279,2.4846,2.263,2.3565,2.4674,2.5153,2.5609,2.571,2.527,2.536,2.5156,2.4375,2.4477,2.4481,2.4217,2.419,2.419,2.419,2.419,2.3923,2.3299,2.3775,2.2364,0.0,0.0,0.0,0.0,0.0,0.0,0.0,0.0,0.0,0.0,0.0,0.0,0.0,0.0,0.0,0.0,0.0,0.0,0.0,0.0,0.0,0.0,0.0,0.0,0.0,2.1919,2.3884,2.3595,2.659,2.7612,2.4855,2.6392,2.7799,2.8436,3.0181,3.1856,3.329,3.4333,3.4992,3.5292,3.5119,3.5166,3.5519,3.5166,3.5166,3.5519,3.5519,3.5519,3.5519,3.5519,3.5519,3.5519,3.5519,3.525,3.4863,3.4863,3.4292,3.3425,3.2497,3.2168,3.2228,3.2677,3.2856,3.2886,3.3095,3.2886,3.2317,3.1089,3.033,2.9918,2.9918,3.0254,3.0898,3.2143,3.2466,3.278,3.4162,3.4164,3.3973,3.4699,3.4506,3.4336,3.5081,3.4472,3.3761,3.3761,3.1278,2.8814,2.7648,2.7682,2.7059,2.4673,2.5697,2.6623,2.6263,2.6958,2.7165,2.6404,2.6439,2.5932,2.4664,2.4708,2.4563,2.4069,2.4153,2.4221,2.419,2.378,2.3618,2.3878,2.4509,2.3444,2.0631,0.0,0.0,0.0,0.0,0.0,0.0,0.0,0.0,0.0,0.0,0.0,0.0,0.0,0.0,0.0,0.0,0.0,0.0,0.0,0.0,0.0,0.0,0.0,2.2498,2.531,2.6992,2.5963,2.9176,3.0432,2.772,2.9905,3.1614,3.2016,3.2528,3.3235,3.4207,3.4651,3.4874,3.488,3.4284,3.4442,3.5392,3.4442,3.4442,3.5392,3.5392,3.5392,3.5392,3.5392,3.5424,3.5457,3.5457,3.5457,3.5519,3.5519,3.5519,3.537,3.4053,3.3544,3.3544,3.3544,3.3544,3.3455,3.2826,3.2557,3.2467,3.1809,3.157,3.157,3.154,3.154,3.1713,3.2413,3.2633,3.2958,3.4284,3.4601,3.4769,3.5385,3.5554,3.5352,3.4631,3.4496,3.4484,3.4484,3.3322,3.1921,3.0446,3.0156,2.9518,2.7737,2.8334,0.0,2.7587,2.8353,2.8687,2.7908,2.7451,2.6642,2.5167,2.4925,2.4497,2.3765,2.3993,2.4157,2.4188,2.2916,2.2567,2.3271,2.36,2.3884,2.4058,0.0,0.0,0.0,0.0,0.0,0.0,0.0,0.0,0.0,0.0,0.0,0.0,0.0,0.0,0.0,0.0,0.0,0.0,0.0,0.0,0.0,2.418,2.6515,2.6515,2.8348,3.003,3.0909,3.2667,3.3194,3.1637,3.2541,3.3096,3.281,3.2911,3.3266,3.3834,3.3963,3.3952,3.3824,3.3629,3.35,3.3394,3.3115,3.3115,3.3394,3.3394,3.3394,3.3394,3.3394,3.3768,3.4409,3.4409,3.4839,3.5519,3.5519,3.5519,3.5459,3.51,3.4951,3.4951,3.4951,3.4951,3.4921,3.4741,3.4352,3.3903,3.3724,3.3335,3.2856,3.2348,3.2587,3.2976,3.3185,3.3596,3.4073,3.4488,3.4594,3.4516,3.4233,3.4153,3.4088,3.3893,3.4224,3.4423,3.3891,3.3829,3.3592,3.2645,3.1157,2.9911,2.9412,2.9147,2.8884,2.8594,2.8829,2.878,2.821,2.8067,2.7478,2.6182,2.5551,2.4927,2.4181,2.372,2.3484,2.3477,2.3103,2.3555,2.4842,2.3692,2.3892,0.0,0.0,0.0,0.0,0.0,0.0,0.0,0.0,0.0,0.0,0.0,0.0,0.0,0.0,0.0,0.0,0.0,0.0,0.0,0.0,0.0,0.0,2.7268,2.9729,3.0432,3.116,3.2089,3.3269,3.4198,3.4474,3.3822,3.4048,3.4022,3.347,3.3219,3.3216,3.3447,3.3599,3.3648,3.3511,3.3279,3.3071,3.2944,3.2545,3.2409,3.2593,3.2593,3.2593,3.2593,3.2593,3.2876,3.3463,3.3842,3.4312,3.4905,3.5326,3.5519,3.5519,0.0,0.0,0.0,0.0,3.5519,3.5459,3.519,3.4833,3.4444,3.4174,3.3814,3.3425,3.3036,3.3185,3.3486,3.3513,3.3783,3.4081,3.4136,3.4139,3.4062,3.368,3.3598,3.3598,3.3598,3.412,3.4484,3.4032,3.4242,0.0,3.3931,3.2544,3.124,3.0508,3.067,3.0566,2.9842,3.0118,3.0032,2.9159,2.9054,2.836,2.6725,2.6336,0.0,0.0,0.0,2.3284,2.2419,2.2975,0.0,0.0,0.0,2.4648,2.6399,2.4766,0.0,0.0,2.3939,2.3212,0.0,0.0,0.0,0.0,0.0,0.0,0.0,0.0,0.0,0.0,0.0,0.0,0.0,0.0,0.0,0.0,2.998,3.229,3.3771,3.3621,3.352,3.3947,3.4525,3.4851,3.4726,3.4731,3.455,3.3947,3.3445,3.3144,3.3111,3.3447,0.0,0.0,0.0,3.2853,3.3172,3.2346,3.208,3.2454,3.2408,3.2381,3.2381,3.2326,3.2343,3.2486,3.3429,3.391,3.4075,3.51,3.5519,3.5519,3.5519,3.5519,3.5519,3.5519,3.5519,3.54,3.4801,0.0,0.0,3.3903,3.3724,3.3694,3.3634,3.3664,3.3694,3.3634,3.3664,3.3697,3.3621,3.3609,3.3624,3.3588,3.3588,3.3556,3.3492,3.4075,3.4594,3.4496,3.4564,3.4607,3.4506,3.3897,3.2866,3.1319,3.2395,3.2811,3.1166,3.175,3.1765,3.0302,3.0133,0.0,2.7164,2.7114,2.6318,2.4322,2.433,2.3551,2.1642,2.2909,2.353,2.3294,2.4596,2.5748,2.6691,2.735,2.735,2.6623,2.3424,2.2612,0.0,0.0,0.0,0.0,0.0,0.0,0.0,0.0,0.0,0.0,0.0,0.0,0.0,0.0,0.0,2.9553,3.229,3.4198,3.4525,3.4806,3.4906,3.4555,3.5454,3.5705,3.4801,3.5082,3.4931,3.3972,3.3796,3.3545,3.3093,3.3182,3.2988,3.2507,3.238,3.2133,3.1789,3.1614,3.1563,3.1636,3.12,0.0,3.097,3.0535,3.0733,3.1536,3.2451,3.3325,3.4075,3.51,3.5519,3.5519,3.5519,3.5519,3.5519,3.5519,3.5519,3.5489,3.534,3.531,3.528,3.516,3.51,3.5011,3.4474,3.4681,0.0,3.4474,3.4681,3.4983,3.445,3.4331,3.4181,3.3637,3.3515,3.3363,3.2848,3.3736,3.4452,3.3899,3.466,3.5216,3.4607,3.3897,3.3292,3.2975,3.3182,3.3056,3.2135,3.2191,3.1834,3.0562,3.0421,3.0022,2.8951,2.7793,2.6845,2.6198,2.5096,2.4286,2.3861,2.4692,2.5153,2.5089,2.5932,2.6505,2.6691,2.6826,2.6826,2.6691,2.659,2.6353,0.0,0.0,0.0,0.0,0.0,0.0,0.0,0.0,0.0,0.0,0.0,2.3753,2.5653,0.0,2.9779,3.2265,3.4003,3.5082,3.5082,3.5604,3.5755,3.5157,3.5604,3.5855,3.5579,3.5508,3.5282,3.4731,3.4474,3.4073,3.352,3.3495,3.3219,3.2667,3.2641,3.2365,3.1813,3.1813,3.1662,3.1386,3.1135,3.1009,3.0984,3.0457,3.0701,3.1627,3.23,3.3122,3.4075,3.51,3.5519,3.5519,3.5519,3.5519,3.5519,3.5519,3.5519,3.5519,3.5519,3.5519,3.5519,3.5519,3.5519,3.5429,3.51,3.522,3.5429,3.51,3.525,3.534,3.4651,3.4503,3.4324,3.3664,3.3484,3.3395,3.3066,3.3554,3.4072,3.4095,3.4628,3.5224,3.5577,3.5374,3.4844,3.4066,3.4269,3.4235,3.3512,3.341,3.2887,3.1536,3.1394,3.0959,2.9833,2.7988,2.6839,2.6725,2.532,2.4508,2.4508,2.5203,2.5592,2.5592,2.6319,2.6691,2.6691,2.6691,2.6691,2.6725,2.7452,2.7384,0.0,0.0,0.0,0.0,0.0,0.0,0.0,0.0,2.2652,2.4349,2.5603,2.7092,2.9327,3.0658,3.2164,3.4455,3.5307,3.5658,3.5658,3.6081,3.6157,3.5558,3.5583,3.5881,3.6355,3.5956,3.5608,3.5508,3.5082,3.46,3.3922,3.3897,3.3646,3.3136,3.3111,3.2842,3.239,3.2575,3.2348,3.1712,3.1833,3.1863,3.1838,3.1305,3.1577,3.2513,3.2891,3.3542,3.4346,3.5166,3.5519,3.5519,3.5519,3.5519,3.5519,3.5519,3.5519,3.5519,3.5519,3.5519,3.5519,3.5519,3.5519,3.5519,3.5519,3.5519,3.5519,3.5519,3.5519,3.537,3.4831,3.4713,3.4532,3.4023,3.3873,3.3844,3.3724,3.3815,3.4017,3.4469,3.4806,3.5388,3.6582,3.6905,3.6535,3.517,3.5453,3.552,3.4607,3.4506,3.3964,3.2666,3.253,3.1921,3.0446,2.8619,2.7435,2.7182,2.5895,2.5218,2.5354,2.5642,2.5879,2.6032,2.6454,2.6759,2.6928,2.6928,2.6996,2.7182,2.7774,2.7638,1.8214,1.8449,1.986,2.2648,2.2673,2.3301,0.0,0.0,2.7871,3.003,3.1361,3.224,3.2541,3.352,3.448,3.5282,3.5906,3.6329,3.6329,3.638,3.6157,3.5558,3.5981,3.6355,3.6405,3.6355,3.6081,3.5533,3.5433,3.4956,3.3947,3.3897,3.3646,3.3136,3.3111,3.3086,3.2993,3.3933,3.3907,3.2935,3.3327,3.3553,3.3527,3.2975,3.3296,3.4306,3.4604,3.4966,3.5359,3.5457,3.5519,3.5519,3.5519,3.5519,3.5519,3.5519,3.5519,3.5519,3.5519,3.5519,3.5519,3.5519,3.5519,3.5519,3.5519,3.5519,3.5519,3.5519,3.5519,3.5489,3.54,3.54,3.537,3.528,3.528,3.51,3.4533,3.4851,3.5116,3.4583,3.5567,3.651,3.6686,3.7276,3.7516,3.666,3.6626,3.6152,3.4675,3.4506,3.4201,3.3355,3.3288,3.2679,3.119,3.0852,3.0142,2.884,2.7909,2.7774,2.8468,2.7266,2.6894,2.7553,2.6996,2.7029,2.7689,2.7689,2.8027,2.8739,2.884,2.845,2.2449,2.1939,2.2117,2.5159,2.6289,2.7369,3.0005,3.0306,3.0557,3.2466,3.347,3.4123,3.4449,3.5403,3.6132,3.6031,3.6483,3.6782,3.6455,3.6081,3.568,3.5082,3.5278,3.5529,3.5855,3.5881,3.5931,3.6006,3.6006,3.568,3.4856,3.4806,3.46,3.4048,3.4022,3.4022,3.4022,3.4769,3.4926,3.4529,3.4995,3.4902,3.4362,3.435,3.4775,3.5451,3.6114,3.6497,3.6626,3.6626,3.6626,3.6626,3.6626,3.6387,3.6028,3.5639,3.5519,3.5519,3.5519,3.5519,3.5519,3.5519,3.5519,3.5519,3.5519,3.5519,3.5519,3.5519,3.5519,3.5519,3.5519,3.5519,3.5519,3.5519,3.5519,3.5429,3.513,3.4994,3.4973,3.5058,3.5633,3.6403,3.7196,3.7995,3.843,3.8125,3.7719,3.7043,3.5983,3.5847,3.5407,3.4167,3.366,3.3152,3.2544,3.1698,3.0939,3.033,2.9161,2.8671,2.8976,2.8367,2.818,2.8484,2.8197,2.8197,2.8484,2.8484,2.8653,2.901,2.9431,2.9465,2.4204,2.4155,2.4481,2.7268,2.9227,3.0658,3.1361,3.1938,3.2692,3.4073,3.4801,3.5253,3.5458,3.6307,3.6784,3.6232,3.6609,3.6759,3.6207,3.5655,3.5006,3.4349,3.4123,3.4204,3.4756,3.5232,3.5658,3.6107,3.6329,3.6132,3.5533,3.5508,3.5232,3.4751,3.5015,3.5169,3.5169,3.6183,3.6392,3.5801,3.6563,3.6451,3.5639,3.6443,3.6728,3.6704,3.7367,3.7584,3.7404,3.7225,3.7255,3.7404,3.7225,3.6866,3.6447,3.6148,3.5818,3.5519,3.5519,3.5519,3.5519,3.5519,3.5519,3.5519,3.5519,3.5519,3.5519,3.5519,3.5519,3.5519,3.5519,3.5519,3.5519,3.5519,3.5519,3.5519,3.5519,3.513,3.49,3.54,3.5749,3.6362,3.7595,3.8446,3.9076,3.9251,3.8836,3.8159,3.7212,3.71,3.6694,3.5554,3.4776,3.4269,3.4032,3.2848,3.1935,3.1549,3.033,2.9619,2.9619,2.9213,2.9111,2.9314,2.9111,2.9111,2.9314,2.9314,2.9416,2.9619,3.0142,3.0412,2.161,2.3527,2.6189,2.9001,3.0934,3.2441,3.3545,3.4223,3.4731,3.5332,3.5931,3.6157,3.5583,3.6006,3.6207,3.5608,3.6031,3.6182,3.5608,3.5056,3.4349,3.3244,3.2641,3.2516,3.3093,3.4555,3.5508,3.5533,3.6056,3.6132,3.5533,3.5508,3.5232,3.4751,3.5851,3.6435,3.6435,3.857,3.8611,3.6469,3.7994,3.8433,3.7938,3.9527,3.9546,3.8327,3.8362,3.8003,3.7375,3.6776,3.6866,3.7345,3.6746,3.6507,3.6567,3.7135,3.6567,3.5519,3.5519,3.5519,3.5519,3.5519,3.5519,3.5519,3.5519,3.5519,3.5519,3.5519,3.5519,3.5519,3.5519,3.5519,3.5519,3.5519,3.5519,3.5519,3.5519,3.5489,3.5489,3.5522,3.6072,3.6811,3.7642,3.8409,3.9176,3.9944,4.0045,3.9537,3.8058,3.7889,3.7855,3.7821,3.7144,3.6366,3.56,3.4844,3.3783,3.2361,3.1549,3.1123,3.1123,2.9754,2.9348,3.0074,2.9364,2.9348,3.0074,3.0074,3.0446,3.1123,3.1157,3.1157,2.3674,2.5963,2.8574,3.1738,3.3194,3.4173,3.5278,3.568,3.5655,3.5102,3.455,3.3897,3.2968,3.3545,3.4123,3.3947,3.5278,3.6182,3.5583,3.5332,3.453,3.2717,3.2993,3.2968,3.2039,3.3144,3.4349,3.5408,3.5683,3.5906,3.6081,3.6081,3.6006,3.5805,3.6197,3.6813,3.7571,3.8623,3.9186,3.9228,3.9407,3.9508,3.9576,3.941,3.9231,3.908,3.908,3.896,3.8721,3.8512,3.8542,3.8721,3.8512,3.8153,3.7764,3.7973,3.7524,3.6716,3.6297,3.6148,3.6088,3.5639,3.5519,3.5519,3.5519,3.5519,3.5519,3.5519,3.5519,3.5519,3.5519,3.5519,3.5519,3.5519,3.5519,3.5519,3.5519,3.5519,3.5519,3.5519,3.6538,3.7469,3.7764,3.8859,3.9799,4.0062,3.9673,3.9174,3.87,3.8193,3.7922,3.7922,3.7246,3.6694,3.64,3.5216,3.429,3.3783,3.3085,3.2442,3.1955,3.1447,3.1075,3.0818,3.0581,3.0581,3.0818,3.0818,3.0954,3.119,3.119,3.119,2.6324,2.8574,3.0809,3.3746,3.4901,3.5454,3.5956,3.5906,3.5454,3.4349,3.3244,3.219,3.1286,3.1537,3.1964,3.2164,3.3395,3.4399,3.4625,3.4279,3.3671,3.2641,3.2993,3.2943,3.2089,3.2817,3.3897,3.5107,3.5604,3.5981,3.638,3.6405,3.6405,3.6405,3.7196,3.7997,3.8738,3.9899,4.0744,4.1259,4.0694,4.0568,4.0756,4.0291,3.9976,3.9768,3.9768,3.9649,3.9409,3.914,3.92,3.9409,3.914,3.8781,3.8422,3.8661,3.8332,3.7674,3.7045,3.6806,3.6746,3.6327,3.6178,3.6178,3.6178,3.6178,3.6178,3.6178,3.6178,3.6148,3.5908,3.5848,3.5789,3.5579,3.5519,3.5519,3.5519,3.5519,3.5587,3.5846,3.6692,3.7528,3.8104,3.9236,4.0113,4.0113,3.9706,3.9402,3.9402,3.8971,3.87,3.87,3.8024,3.7506,3.7235,3.6051,3.5103,3.4539,3.4066,3.3322,3.2327,3.2293,3.1955,3.119,3.119,3.119,3.119,3.1481,3.1582,3.1616,3.1867,3.2002,2.9176,3.116,3.2968,3.5031,3.6006,3.6257,3.5583,3.5031,3.4349,3.3144,3.1989,3.0984,0.0,0.0,2.9854,3.0432,3.0683,3.1361,3.2968,3.229,3.2014,0.0,0.0,0.0,0.0,0.0,3.4198,3.468,3.573,3.638,3.6405,3.6452,3.6499,3.6499,3.872,3.9956,4.0,4.2181,4.303,4.247,4.1901,4.1591,4.1444,4.2111,4.1692,4.0397,4.0397,4.0038,3.9343,3.8721,3.8841,3.9349,3.8691,3.8452,3.8512,3.917,3.902,3.8362,3.7734,3.7494,3.7464,3.7434,3.7404,3.7404,3.7404,3.7404,3.7404,3.7404,3.7404,3.7285,3.6686,3.6537,3.6387,3.5759,3.5609,3.5609,3.5644,3.5644,3.5842,3.6569,3.6722,3.7172,3.8718,3.9584,4.0113,4.0113,4.0113,4.0113,4.0113,4.0113,4.0113,4.0113,3.9436,3.8734,3.8024,3.7246,3.6186,3.4709,3.4573,3.3918,3.2462,3.2429,3.209,3.1326,3.1292,3.1292,3.1292,3.2022,3.2361,3.2361,3.3085,3.3423,3.1175,3.3696,3.5956,3.6107,3.6558,3.6609,3.5253,3.45,3.3445,3.111,2.9402,2.7795,2.6013,2.6917,2.8247,2.9164,3.1436,0.0,3.4751,3.5027,0.0,3.3796,0.0,3.4424,3.3746,3.455,3.5132,3.5282,3.5558,3.5931,3.638,3.7196,3.7678,3.7678,3.9094,4.0318,4.1169,4.2589,4.32,4.309,4.2961,4.2604,4.2141,4.2321,4.1692,4.0397,4.0397,4.0038,3.9373,3.923,3.926,3.9409,3.923,3.917,3.917,3.9349,3.932,3.914,3.896,3.8571,3.8063,3.7554,3.7404,3.7404,3.7404,3.7404,3.7404,3.7404,3.7404,3.7375,3.7225,3.7165,3.7135,3.6956,3.6926,3.7064,3.7761,3.7459,3.7312,3.8141,3.8284,3.8635,3.961,3.9952,4.0113,4.0113,4.0113,4.0113,4.0113,4.0113,4.0113,4.0113,3.9436,3.8903,3.8734,3.754,3.6626,3.6254,3.5656,3.4912,3.3986,3.3952,3.3592,3.2848,3.2848,3.2848,3.2848,3.3017,3.3119,3.3119,3.3322,3.3423,3.3941,3.5931,3.7412,3.6908,3.6832,3.6132,3.352,3.2491,3.111,2.7595,2.6113,2.5008,2.3527,2.4682,2.6364,0.0,0.0,0.0,3.4856,3.5454,3.5479,0.0,3.5755,0.0,3.5859,3.6282,3.6908,3.7756,3.6657,3.624,3.7078,3.7769,3.8334,3.8872,4.0059,4.1169,4.2345,4.2981,4.329,4.329,4.329,4.315,4.2791,4.2791,4.2073,4.0816,4.0816,4.0277,3.9373,3.9373,3.9373,3.9373,3.9373,3.9373,3.9373,3.9373,3.9373,3.9373,3.9373,3.917,3.8781,3.8422,3.8302,3.8302,3.8302,3.8302,3.8302,3.8302,3.8302,3.8212,3.7913,3.7853,3.7764,3.7494,3.7404,3.7613,3.8483,3.8367,3.8341,3.9263,3.9435,3.9584,4.0003,4.0113,4.0113,4.0113,4.0113,4.0113,4.0113,4.0113,4.0113,4.0113,3.974,3.9368,3.9039,3.8251,3.7506,3.6829,3.6366,3.5622,3.4539,3.4506,3.4134,3.3423,3.3423,3.3423,3.3423,3.3728,3.3863,3.3897,3.4235,3.4349,3.6776,3.7764,3.8065,3.7362,3.6832,3.5374,3.1468,2.9994,2.8222,2.389,2.2924,2.2694,2.2096,2.3075,2.4757,2.7017,0.0,3.1085,3.4449,3.4951,3.5328,3.6405,3.7008,3.7566,3.8215,3.8255,3.8951,4.0549,3.8372,3.7366,3.8289,3.8334,3.8961,4.0318,4.1295,4.2275,4.329,4.329,4.329,4.329,4.329,4.329,4.329,4.329,4.2671,4.1504,4.1504,4.0816,3.9679,3.9553,3.9523,3.9493,3.9403,3.9373,3.9373,3.9373,3.9373,3.9373,3.9373,3.9373,3.9373,3.9373,3.9373,3.9373,3.9373,3.9373,3.9373,3.9373,3.9373,3.929,3.8691,3.8512,3.8392,3.7823,3.7674,3.7884,3.876,3.9057,3.9406,4.0109,4.0239,4.0214,4.0113,4.0113,4.0113,4.0113,4.0113,4.0113,4.0113,4.0113,4.0113,4.0113,4.0113,3.9842,3.9174,3.9039,3.843,3.7168,3.6897,3.622,3.4866,3.4709,3.4336,3.3694,3.3694,3.3694,3.3694,3.4336,3.4641,3.4641,3.5295,3.56,3.7739,3.8617,3.9044,3.7563,3.6784,3.5344,3.1337,2.9048,0.0,2.3039,2.2023,2.1468,2.0439,2.2297,2.4883,2.7519,2.9377,3.1788,3.56,3.6128,3.6355,0.0,3.7538,3.7912,3.8056,3.8981,3.9702,4.0041,4.0032,3.9895,3.9607,3.9579,4.0532,4.2629,4.29,4.313,4.329,4.329,4.329,4.329,4.329,4.329,4.329,4.329,4.291,4.2231,4.2231,4.1782,4.0995,4.0457,4.0217,4.0187,3.9619,3.9373,3.9373,3.9373,3.9373,3.9373,3.9373,3.9373,3.9373,3.9373,3.9373,3.9373,3.9373,3.9373,3.9373,3.9373,3.9373,3.9343,3.926,3.923,3.92,3.9074,3.9044,3.9299,4.018,4.1024,4.1464,4.1097,4.1024,4.0832,4.0214,4.0113,4.0113,4.0113,4.0113,4.0113,4.0113,4.0113,4.0113,4.0113,4.0113,4.0045,3.991,3.9368,3.887,3.8633,3.7472,3.6694,3.6423,3.5757,3.5329,3.5228,3.5228,3.5228,3.5228,3.5329,3.5397,3.5397,3.5532,3.56,3.8718,3.927,3.9346,3.7965,3.6558,3.4312,2.9716,0.0,0.0,2.0007,1.9396,1.9431,1.8679,2.0815,2.3502,2.5988,2.7795,3.0331,3.45,3.5328,3.6031,3.7437,3.896,3.9739,3.9455,4.0851,4.1875,4.2224,4.1643,4.1302,4.1297,4.1894,4.2865,4.4306,4.4347,4.4347,4.4347,4.3977,4.3798,4.3838,4.3469,4.329,4.329,4.329,4.297,4.241,4.241,4.2021,4.1392,4.1025,4.0696,4.0367,4.0068,3.9738,3.9373,3.9373,3.9373,3.9373,3.9373,3.9373,3.9373,3.9373,3.9373,3.9373,3.9373,3.9373,3.9373,3.9373,3.9373,3.9373,3.9373,3.9373,3.9373,3.9373,3.9737,4.0309,4.1196,4.1814,4.2237,4.2328,4.2049,4.1644,4.1331,4.0959,4.0663,4.0663,4.0663,4.0527,4.0146,4.0451,4.0553,4.0146,4.0113,4.0113,4.0113,3.9774,3.9436,3.9005,3.8328,3.7608,3.6829,3.6434,3.6028,3.56,3.56,3.56,3.56,3.56,3.56,3.56,3.56,3.56,3.9271,3.9597,3.9421,3.8291,3.6257,3.3248,2.8383,2.5226,0.0,1.7559,1.7124,1.7557,1.7527,1.9409,2.182,2.4374,2.5912,2.8373,3.3068,3.4198,3.5403,3.7739,4.0119,0.0,4.1006,4.2753,4.405,4.4362,4.317,4.2502,4.2609,4.3685,4.4616,4.5274,4.5304,4.5304,4.5304,4.4646,4.4317,4.4317,4.3618,4.329,4.329,4.329,4.306,4.262,4.262,4.2282,4.1773,4.1692,4.1294,4.0816,4.0666,4.0277,3.9828,3.9828,3.9828,3.9828,3.9828,3.9738,3.9649,3.9798,3.9649,3.9373,3.9373,3.9373,3.9373,3.9373,3.9373,3.9373,3.9373,3.9373,3.9373,3.9373,3.992,4.0656,4.1528,4.1818,4.213,4.2987,4.265,4.2267,4.2293,4.1677,4.1271,4.1407,4.1305,4.1035,4.062,4.0933,4.0967,4.0417,4.018,4.0113,4.0113,4.0113,3.9876,3.9276,3.9073,3.8464,3.7337,3.6965,3.6502,3.5893,3.5667,3.56,3.56,3.56,3.56,3.56,3.56,3.56,3.8893,3.932,3.9421,3.8291,3.5981,3.2895,2.8665,0.0,2.1354,1.8131,1.6929,1.674,1.7765,1.8641,2.0437,2.4173,2.4926,2.6942,3.2432,3.3621,3.4977,3.7688,0.0,0.0,4.1512,4.376,4.4994,4.4451,4.4758,4.428,4.2694,4.3685,4.4616,4.5274,4.5304,4.5304,4.5304,4.4646,4.4317,4.4317,4.3618,4.329,4.329,4.329,4.326,4.32,4.32,4.317,4.308,4.2521,4.2261,4.2171,4.1572,4.1265,4.1205,4.1205,4.1205,4.1205,4.1205,4.0816,4.0397,4.0995,4.0397,3.9373,3.9373,3.9373,3.9373,3.9373,3.9373,3.9373,3.9373,3.9373,3.9373,3.9373,3.9445,3.9773,4.0622,4.0831,4.1112,4.2094,4.2257,4.2223,4.2281,4.1677,4.1441,4.2083,4.1644,4.1407,4.2016,4.1576,4.117,4.1102,4.0519,4.0113,4.0113,4.0113,4.0079,4.0011,3.9368,3.8937,3.8802,3.7506,3.6761,3.6694,3.5994,3.56,3.56,3.56,3.56,3.56,3.56,3.56,3.8389,3.927,3.9421,3.8291,3.5406,3.206,2.9031,2.4486,2.0393,1.8632,1.718,1.6628,1.7903,1.8395,1.956,2.2347,2.2523,0.0,2.8485,2.9854,3.1813,3.5579,3.911,4.1308,0.0,0.0,4.6285,4.5593,4.5798,4.5573,4.4853,4.5263,4.5813,4.6471,4.6501,4.6322,4.5933,4.5244,4.4706,4.4317,4.3618,4.329,4.329,4.329,4.329,4.329,4.329,4.329,4.326,4.306,4.2731,4.2381,4.2111,4.1782,4.1422,4.1422,4.1422,4.1422,4.1422,4.1205,4.1025,4.1294,4.0756,4.0008,4.0008,3.9738,3.9373,3.9373,3.9373,3.9373,3.9373,3.9373,3.9373,3.9373,3.9373,3.9631,4.0485,4.1098,4.1757,4.2654,4.3277,4.3642,4.368,4.3031,4.2598,4.2929,4.2699,4.2489,4.232,4.2049,4.1677,4.1271,4.0527,4.0113,4.0113,4.0113,4.0113,4.0113,3.9842,3.9469,3.9005,3.799,3.7246,3.6829,3.6491,3.6096,3.56,3.6096,3.6062,3.56,3.56,3.5836,3.6984,3.8415,3.907,3.8407,3.5237,3.172,2.9476,2.4559,2.0218,1.919,1.7392,1.65,1.8141,1.8263,1.8825,2.0972,0.0,2.2175,2.5745,2.7168,2.9252,3.3086,0.0,3.9399,4.0871,4.4624,4.689,4.6621,4.6399,4.6369,4.6621,4.6621,4.683,4.7309,4.713,4.68,4.6279,4.5454,4.4766,4.4317,4.3618,4.329,4.329,4.329,4.329,4.329,4.329,4.329,4.329,4.329,4.306,4.2641,4.2641,4.2372,4.1953,4.1953,4.1953,4.1953,4.1953,4.1833,4.1752,4.1893,4.1235,4.0457,4.0876,4.0247,3.9469,3.9649,3.9739,3.9737,3.9481,3.9559,3.9773,3.9773,3.9773,4.0025,4.0894,4.156,4.2269,4.3139,4.3802,4.4298,4.4559,4.3944,4.3477,4.3741,4.3544,4.3206,4.2692,4.2422,4.2016,4.1271,4.0527,4.0113,4.0113,4.0113,4.0113,4.0113,4.0113,3.9876,3.9368,3.8633,3.799,3.7472,3.7235,3.684,3.6276,3.684,3.684,3.6276,3.6276,3.6603,3.4322,3.6349,3.8159,3.8668,3.5617,3.1985,3.0026,2.5337,2.1026,1.983,1.7424,1.6229,1.8549,1.8188,1.8266,2.0523,2.1224,0.0,2.5209,2.6565,2.8195,0.0,3.2528,3.5244,3.9215,4.3696,4.6548,4.7249,4.6681,4.6621,4.7249,4.7309,4.7309,4.7309,4.6681,4.6279,4.6279,4.5005,4.4317,4.4317,4.3618,4.329,4.329,4.329,4.329,4.329,4.329,4.329,4.329,4.329,4.329,4.329,4.329,4.329,4.326,4.326,4.326,4.326,4.326,4.288,4.25,4.312,4.1944,4.0636,4.1991,4.0965,3.9559,4.0217,4.0543,4.0485,3.9595,4.006,4.069,4.069,4.069,4.0927,4.1788,4.1981,4.2269,4.3139,4.3323,4.3591,4.444,4.3944,4.3673,4.4479,4.391,4.3375,4.3375,4.276,4.2016,4.1271,4.0527,4.0113,4.0113,4.0113,4.0113,4.0113,4.0113,4.0113,4.0079,3.9377,3.8971,3.8971,3.8261,3.7889,3.7889,3.7889,3.7889,3.7889,3.7889,3.7889,3.0702,3.2398,3.3404,3.2867,3.0895,2.883,2.7839,2.3712,2.0138,2.0182,1.8273,1.7067,1.8577,1.882,1.938,2.1172,2.1634,2.2429,0.0,0.0,0.0,3.2752,3.8144,4.2496,4.4643,4.6129,4.707,4.7279,4.71,4.71,4.7309,4.7309,4.7309,4.7309,4.6681,4.6082,4.5633,4.4736,4.4077,4.3589,4.3379,4.329,4.329,4.329,4.329,4.329,4.329,4.329,4.329,4.329,4.329,4.329,4.329,4.329,4.329,4.329,4.329,4.329,4.329,4.314,4.306,4.323,4.2611,4.1931,4.2761,4.1324,3.9673,4.0995,4.1723,4.2225,4.2576,4.2537,4.2324,4.2324,4.1975,4.1658,4.1917,4.2458,4.2986,4.3229,4.3768,4.4298,4.4559,4.4412,4.431,4.4581,4.4378,4.4012,4.3477,4.276,4.2016,4.1271,4.0527,4.0113,4.0113,4.0113,4.0113,4.0113,4.0113,4.0113,4.0113,3.9402,3.9005,3.9005,3.8768,3.8396,3.7922,3.8396,3.8396,3.7922,3.843,3.8633,2.6965,2.8899,3.0156,3.0161,2.8509,2.6835,2.6709,2.3184,2.0057,2.0485,1.8815,1.7645,1.896,1.9009,1.9281,2.06,2.1433,2.2403,2.3894,0.0,3.1287,3.4257,4.012,4.4223,4.5048,4.6433,4.7309,4.7309,4.7309,4.7189,4.695,4.692,4.683,4.6561,4.6142,4.5603,4.4915,4.4287,4.3708,4.329,4.329,4.329,4.329,4.329,4.329,4.329,4.329,4.329,0.0,4.329,4.329,4.329,4.329,4.329,4.329,4.329,4.329,4.329,4.329,4.329,4.329,4.329,4.3305,4.3289,4.316,4.2129,4.1218,4.1948,4.2959,4.3827,4.3775,4.3686,4.3524,4.3265,4.2812,4.2583,4.2892,4.341,4.3768,4.3768,4.4241,4.4615,4.4615,4.4615,4.4615,4.4615,4.4615,4.4209,4.3132,4.2591,4.2016,4.1271,4.0527,4.0214,4.0493,4.0282,4.0113,4.0113,4.0113,4.0113,4.0113,3.9673,3.9436,3.9436,3.9436,3.9174,3.8734,3.9174,3.9174,3.8734,3.8903,3.914,0.0,2.5699,2.7818,2.9473,2.7682,2.5631,2.6144,2.334,0.0,2.0628,1.8956,1.8002,1.9613,1.8843,1.8363,1.9466,2.0937,2.2446,2.3958,2.8067,3.2214,3.5658,3.9528,4.185,4.1704,4.5102,4.7309,4.7309,4.7309,4.701,4.6309,4.6279,4.5992,4.5244,4.5214,4.4915,4.4317,4.3618,4.329,4.329,4.329,4.329,4.329,4.329,4.329,4.329,4.329,4.329,4.329,4.329,4.329,4.329,4.329,4.329,4.329,4.329,4.329,4.329,4.329,4.329,4.3329,4.3369,4.4043,4.4564,4.3407,4.3505,4.3847,4.3234,4.4292,4.5237,4.3816,4.3972,4.4335,4.371,4.3479,4.3654,4.4479,4.4649,4.4615,4.4615,4.4615,4.4615,4.4615,4.4615,4.4615,4.4615,4.4615,4.4073,4.2557,4.232,4.2016,4.1271,4.0527,4.0383,4.1068,4.0493,4.0113,4.0113,4.0113,4.0113,4.0113,4.0113,4.0113,4.0113,4.0113,4.0113,4.0113,4.0113,4.0113,4.0079,3.9377,3.9469,1.972,0.0,2.2999,2.3017,2.2841,2.2692,0.0,2.1335,1.9947,1.9947,1.8725,1.8098,1.9575,1.9299,1.9598,2.1778,2.2221,2.3296,2.625,3.2617,3.8138,4.1115,4.4121,4.5335,4.3786,4.5848,4.7309,4.7309,4.7309,4.701,4.6309,4.6279,4.5741,4.4586,4.4556,4.4466,4.4317,4.3618,4.329,4.329,4.329,4.329,4.329,4.329,4.329,4.329,4.329,4.329,4.329,4.329,4.329,4.329,4.329,4.329,4.329,4.329,4.329,4.329,4.329,4.329,4.3448,4.4167,4.4586,4.4899,4.5258,4.5508,4.5649,4.5696,4.5996,4.6351,4.6691,4.6066,4.5509,4.5879,4.5105,4.4524,4.5269,4.4993,4.4615,4.4615,4.4615,4.4615,4.4615,4.4615,4.4615,4.4615,4.4615,4.4276,4.3267,4.2658,4.2016,4.1271,4.0527,4.018,4.035,4.0214,4.0113,4.0113,4.0113,4.0113,4.0113,4.0113,4.0113,4.0113,4.0113,4.0113,4.0113,4.0113,4.0113,4.0113,3.991,3.9943,1.8634,2.0057,2.1594,2.1924,2.1874,2.1844,2.2443,2.1066,1.9708,1.9708,1.9218,1.9174,2.046,2.0689,2.1271,2.314,2.4282,2.6364,3.05,3.5273,3.9526,4.2868,4.4828,4.5873,4.5693,4.6681,4.7189,4.686,4.686,4.6441,4.5454,4.5394,4.4915,4.3858,4.3828,4.3828,4.3828,4.3469,4.329,4.329,4.329,4.329,4.329,4.329,4.329,4.329,4.329,4.329,4.329,4.329,4.329,4.329,4.329,4.329,4.329,4.329,4.329,4.3369,4.381,4.4282,4.4713,4.5269,4.5742,4.617,4.6662,4.7138,4.744,4.7144,4.7337,4.7586,4.7443,4.6819,4.6143,4.5838,4.519,4.4716,4.5094,4.4857,4.4615,4.4615,4.4615,4.4615,4.4615,4.4615,4.4615,4.4615,4.4615,4.431,4.3477,4.3064,4.2523,4.1779,4.1035,4.0595,4.0595,4.0282,4.0113,4.0113,4.0113,4.0113,4.0113,4.0113,4.0113,4.0113,4.0113,4.0113,4.0113,4.0113,4.0113,4.0113,4.0113,4.0113,1.9074,2.0601,2.2289,2.299,2.2503,2.2113,2.3101,2.1605,2.0007,2.0007,2.0193,2.0714,2.1921,2.2425,2.3068,2.436,2.7019,3.0589,3.543,3.7461,3.9698,4.2955,4.4187,4.5334,4.6711,4.704,4.692,4.6309,4.6232,4.5633,4.4377,4.4317,4.4018,4.3319,4.329,4.329,4.329,4.329,4.329,4.329,4.329,4.329,4.329,4.329,4.329,4.329,4.329,4.329,4.329,4.329,4.329,4.3329,4.3488,4.3527,4.3566,4.3693,4.3741,4.3858,4.4706,4.5525,4.6208,4.6349,4.6968,4.7638,4.777,4.8353,4.8829,4.8031,4.8318,4.8545,4.7293,4.6786,4.6346,4.5224,4.4784,4.4649,4.475,4.4682,4.4615,4.4615,4.4615,4.4615,4.4615,4.4615,4.4615,4.4615,4.4615,4.435,4.3673,4.3477,4.3132,4.2388,4.1644,4.117,4.1035,4.0485,4.0113,4.0113,4.0113,4.0113,4.0113,4.0113,4.0113,4.0113,4.0113,4.0113,4.0113,4.0113,4.0113,4.0113,4.0113,4.0113,2.0917,2.305,2.4365,2.1794,2.1844,2.2463,2.2084,2.1665,2.1395,2.1395,2.1416,2.2028,2.3897,2.392,2.4471,2.6831,3.0787,3.503,3.9127,4.1735,4.3469,4.4065,4.5729,4.6292,4.4915,4.5813,4.6399,4.6279,4.5783,4.5125,4.4347,4.4317,4.4018,4.3319,4.329,4.329,4.329,4.329,4.329,4.329,4.329,4.329,4.329,4.329,4.329,4.329,4.329,4.329,4.329,4.329,4.329,4.3369,4.4274,4.4548,4.4662,4.5488,4.5746,4.5782,4.5925,4.6067,4.6314,4.7138,4.7473,4.777,4.8545,4.8892,4.8954,4.8829,4.8453,4.8007,4.777,4.6819,4.5974,4.6346,4.5529,4.4784,4.5399,4.5026,4.4615,4.4615,4.4615,4.4615,4.4615,4.4615,4.4615,4.4615,4.4615,4.4581,4.4418,4.3809,4.3132,4.2388,4.1644,4.0933,4.0316,4.018,4.0113,4.0113,4.0113,4.0113,4.0113,4.0113,4.0113,4.0113,4.0113,4.0113,4.0113,4.0113,4.0113,4.0113,4.0113,4.0113,2.0456,2.2313,2.3819,2.299,2.4627,2.6357,2.6057,2.5136,2.4358,2.4358,2.4358,2.4858,2.6494,2.744,2.9214,3.2947,3.5288,3.7541,4.0061,4.1448,4.2574,4.3608,4.4876,4.5753,4.5933,4.6172,4.6172,4.5813,4.5155,4.4466,4.3798,4.3738,4.3618,4.329,4.329,4.329,4.329,4.329,4.329,4.329,4.329,4.329,4.329,4.329,4.329,4.329,4.329,4.329,4.329,4.329,4.3615,4.4159,4.4624,4.5116,4.5597,4.6032,4.6263,4.6349,4.6349,4.6716,4.7208,4.7626,4.802,4.845,4.8861,4.9018,4.9018,4.9018,4.8781,4.8308,4.753,4.6786,4.6278,4.621,4.5365,4.4818,4.5534,4.5128,4.4615,4.4615,4.4615,4.4615,4.4615,4.4615,4.4615,4.4615,4.4615,4.4615,4.4615,4.4282,4.3741,4.2997,4.2219,4.1508,4.0764,4.0696,4.0493,4.0146,4.0113,4.0113,4.0113,4.0113,4.0113,4.0113,4.0113,4.0113,4.0113,4.0113,4.0113,4.0113,4.0113,4.0113,2.0127,2.1625,2.34,2.4545,2.6662,2.8697,2.9804,2.8368,2.7076,2.7799,2.7859,2.8068,2.9086,3.0881,3.3574,3.7704,3.8901,3.9884,4.1449,4.1872,4.2564,4.399,4.4525,4.5394,4.692,4.6322,4.5633,4.5095,4.4466,4.3828,4.3319,4.329,4.329,4.329,4.329,4.329,4.329,4.329,4.329,4.329,4.329,4.329,4.329,4.329,4.329,4.329,4.329,4.32,4.312,4.312,4.3554,4.4347,4.4538,4.5433,4.6574,4.6411,4.6651,4.7039,4.6676,4.7149,4.7906,4.7906,4.8173,4.8511,4.8714,4.8748,4.8748,4.8748,4.8883,4.8748,4.7597,4.7192,4.6853,4.6143,4.5399,4.4987,4.5365,4.4993,4.4615,4.4615,4.4615,4.4615,4.4615,4.4615,4.4615,4.4615,4.4615,4.4615,4.4615,4.4615,4.4282,4.3504,4.2895,4.2252,4.1508,4.1474,4.1136,4.0417,4.0383,4.0282,4.0113,4.0113,4.0113,4.0113,4.0113,4.0113,4.0113,4.0113,4.0113,4.0113,4.0113,4.0113,2.1395,2.2981,2.4634,2.5352,2.5232,2.6069,3.0374,2.9385,2.8393,3.145,3.157,3.1182,3.1271,3.2946,3.5192,3.7943,4.0494,4.297,4.552,4.6399,4.6817,4.6983,4.6518,4.619,4.6339,4.5173,4.4436,4.4377,4.3738,4.3349,4.329,4.329,4.329,4.329,4.329,4.329,4.329,4.329,4.329,4.329,4.329,4.329,4.329,4.329,4.329,4.329,4.329,4.3,4.247,4.247,4.2652,4.2957,4.3809,4.5636,4.7686,4.7012,4.7646,4.8622,4.7237,4.7267,4.7906,4.7906,4.7462,4.709,4.7767,4.7973,4.7973,4.7973,4.8477,4.8984,4.8883,4.8342,4.7631,4.6887,4.6143,4.5466,4.4818,4.4649,4.4615,4.4615,4.4615,4.4615,4.4615,4.4615,4.4615,4.4615,4.4615,4.4615,4.4615,4.4615,4.4282,4.3504,4.3341,4.3031,4.2286,4.2219,4.1914,4.117,4.1136,4.0798,4.0146,4.0113,4.0113,4.0113,4.0113,4.0113,4.0113,4.0113,4.0113,4.0113,4.0113,4.0113,2.0917,2.2811,2.4874,2.5944,2.6333,2.756,3.1779,3.2946,3.3365,3.4203,3.513,3.5549,3.4771,3.6237,3.8003,3.9409,4.2192,4.4676,4.607,4.6531,4.6681,4.6681,4.6112,4.5693,4.5693,4.4855,4.4317,4.4317,4.3678,4.329,4.329,4.329,4.329,4.329,4.329,4.315,4.2731,4.2731,4.2801,4.2945,4.2831,4.3262,4.4174,4.2732,4.2342,4.2701,4.2312,4.1983,4.182,4.2355,4.2984,4.3717,4.5209,4.6347,4.7192,4.6887,4.6853,4.6887,4.6312,4.6312,4.6549,4.6549,4.665,4.6853,4.7124,4.7225,4.7225,4.7225,4.7428,4.7733,4.8206,4.7767,4.7158,4.6853,4.5872,4.506,4.5229,4.4925,4.4615,4.4615,4.4615,4.4615,4.4615,4.4615,4.4615,4.4615,4.4615,4.4615,4.4615,4.4615,4.4479,4.4181,4.3707,4.3274,4.3031,4.2997,4.2861,4.2591,4.1711,4.0865,4.0146,4.0113,4.0113,4.0113,4.0113,4.0113,4.0113,4.0113,4.0113,4.0113,4.0113,4.0113,2.0628,2.2303,2.4388,2.5884,2.7285,2.9322,3.3484,3.516,3.6267,3.7674,3.8212,3.8123,3.7255,3.8182,3.9379,4.0247,4.297,4.5214,4.5903,4.5992,4.5992,4.5992,4.5394,4.4975,4.4975,4.4377,4.3928,4.3718,4.3269,4.294,4.2731,4.2701,4.2701,4.2701,4.2701,4.2491,4.2081,4.2081,4.2304,4.2731,4.2084,4.2576,4.4056,4.2266,4.1662,4.2081,4.1602,4.1265,4.113,4.173,4.2548,4.3619,4.5387,4.6244,4.6413,4.6177,4.6075,4.5974,4.55,4.55,4.5703,4.5703,4.5872,4.6143,4.638,4.6447,4.6447,4.6447,4.6616,4.6921,4.7428,4.7192,4.6718,4.6515,4.5669,4.5026,4.5297,4.4959,4.4615,4.4615,4.4615,4.4615,4.4615,4.4615,4.4615,4.4615,4.4615,4.4615,4.4615,4.4615,4.4615,4.4615,4.4113,4.3775,4.3775,4.3775,4.3673,4.3409,4.2252,4.1204,4.0485,4.0451,4.035,4.0113,4.035,4.035,4.0113,4.0113,4.0113,4.0113,4.0113,4.0113,2.0868,2.1695,2.3212,2.5136,2.7649,3.0849,3.5459,3.5522,3.6207,4.2094,4.0696,3.8392,3.8422,3.8422,3.8841,4.0187,4.2611,4.4556,4.5185,4.5274,4.5274,4.5274,4.4706,4.4317,4.4317,4.3678,4.306,4.244,4.2381,4.2111,4.1452,4.1422,4.1422,4.1422,4.1422,4.1422,4.1422,4.1422,4.1886,4.2776,4.1182,4.1213,4.2659,4.1775,4.1354,4.1422,4.1354,4.0995,4.0397,4.0434,4.1063,4.2205,4.3948,4.5026,4.5602,4.4886,4.55,4.6549,4.5122,4.506,4.5703,4.5703,4.5196,4.475,4.5466,4.5703,4.5703,4.5703,4.621,4.6786,4.6786,4.6786,4.6583,4.5872,4.5703,4.55,4.4784,4.4615,4.4615,4.4615,4.4615,4.4615,4.4615,4.4615,4.4615,4.4615,4.4615,4.4615,4.4615,4.4615,4.4615,4.4615,4.4615,4.4615,4.4615,4.4615,4.4248,4.3443,4.2726,4.1982,4.1238,4.1204,4.0865,4.0113,4.0832,4.0832,4.0113,4.0113,4.0113,4.0113,4.0113,4.0113,2.1335,2.3041,2.5226,2.72,3.0043,3.3425,3.7584,3.8242,3.911,4.318,4.1414,3.9379,4.0337,4.0487,4.0487,4.0397,4.2611,4.4377,4.4586,4.4616,4.4616,4.4616,4.4018,4.3589,4.3589,4.303,4.262,4.241,4.1961,4.1632,4.1384,4.1422,4.1422,4.1422,4.1422,4.1145,4.0696,4.1298,4.1841,4.2227,4.174,4.1935,4.2705,4.0843,4.0247,4.0666,4.0217,3.9888,3.9817,4.1,4.243,4.3885,4.4412,4.475,4.4919,4.4682,4.4886,4.519,4.475,4.475,4.4925,4.4925,4.4784,4.4649,4.4857,4.4925,4.4925,4.4925,4.5089,4.5258,4.5258,4.5258,4.5331,4.5635,4.5297,4.4886,4.4649,4.4615,4.4615,4.4615,4.4615,4.4615,4.4615,4.4615,4.4615,4.4615,4.4615,4.4615,4.4615,4.4615,4.4615,4.4615,4.4615,4.4615,4.4615,4.4615,4.4513,4.4248,4.3504,4.2523,4.1271,4.1204,4.1027,4.0672,4.1503,4.1537,4.0672,4.1333,4.1373,4.0865,4.0865,4.0865,2.2712,2.4208,2.598,2.9325,3.2258,3.534,3.929,4.0995,4.2402,4.4646,4.291,4.1235,4.2013,4.1743,4.1324,4.1205,4.2731,4.3888,4.3888,4.3888,4.3838,4.3569,4.318,4.2851,4.2581,4.2192,4.1901,4.1632,4.1205,4.0876,4.0606,4.0606,4.0606,4.0606,4.0606,4.0581,4.0527,4.0705,4.1193,4.2013,4.1626,4.1678,4.2011,4.0935,4.0484,4.0461,3.9433,3.9018,3.9195,4.0891,4.2407,4.3719,4.4367,4.4615,4.4615,4.4615,4.4615,4.4615,4.4615,4.4615,4.4615,4.4615,4.4615,4.4615,4.4615,4.4615,4.4615,4.4615,4.4378,4.4181,4.4513,4.435,4.4316,4.506,4.4925,4.4615,4.4615,4.4615,4.4615,4.4615,4.4615,4.4615,4.4615,4.4615,4.4615,4.4615,4.4615,4.4615,4.4615,4.4797,4.4961,4.4961,4.5169,4.532,4.532,4.532,4.5182,4.4846,4.4423,4.3595,4.2388,4.2414,4.2408,4.2218,4.2536,4.2421,4.1845,4.1844,4.1644,4.1204,4.1204,4.1035,2.4477,2.5202,2.6129,3.139,3.4382,3.7015,4.0786,4.3479,4.5364,4.5891,4.4676,4.3449,4.3379,4.2402,4.1743,4.2321,4.2851,4.32,4.314,4.311,4.294,4.2381,4.2321,4.2081,4.1482,4.1324,4.1055,4.0457,4.0337,4.0038,3.9403,3.9313,3.9349,3.9373,3.9421,3.9793,4.0597,3.9969,4.0427,4.1885,4.1174,4.0924,4.1049,4.1629,4.1368,4.0439,3.9165,3.8659,3.8867,4.0355,4.1508,4.2444,4.3827,4.4445,4.4479,4.4412,4.4412,4.4412,4.4412,4.4445,4.4479,4.4412,4.4445,4.4479,4.4412,4.4412,4.4412,4.4412,4.3842,4.347,4.4181,4.391,4.3606,4.4316,4.4547,4.4615,4.4665,4.4637,4.4643,4.4665,4.4643,4.4615,4.4615,4.4615,4.4615,4.4615,4.4615,4.4643,4.4665,4.5169,4.552,4.5571,4.6088,4.6389,4.6389,4.6389,4.6106,4.534,4.5351,4.5113,4.4427,4.4469,4.441,4.4303,4.3828,4.3527,4.3388,4.2176,4.1493,4.1305,4.1305,4.0899,2.4156,2.5854,2.8124,3.2856,3.7139,4.0756,4.312,4.4107,4.4436,4.4007,4.4007,4.4107,4.4107,4.3449,4.2791,4.247,4.253,4.2402,4.1863,4.1803,4.1743,4.1662,4.1632,4.1572,4.1384,4.0905,4.0546,4.0397,3.9918,3.9559,3.9403,3.8901,3.8871,3.9373,3.9542,3.9714,3.9849,4.1024,4.1448,4.1223,4.1716,4.1994,4.1972,4.1385,4.0388,3.9108,3.9971,4.0103,3.9687,4.0634,4.1848,4.3149,4.2875,4.3132,4.3606,4.2997,4.2794,4.2794,4.2794,4.3166,4.3572,4.2963,4.32,4.3572,4.2963,4.2794,4.2794,4.2794,4.2658,4.2591,4.2726,4.3098,4.3443,4.3639,4.4147,4.472,4.5188,4.4934,4.4748,4.5188,4.4934,4.4615,4.4615,4.4615,4.4615,4.4615,4.4615,4.4776,4.5275,4.5425,4.5699,4.6161,4.6318,4.6389,4.6389,4.6389,4.6318,4.6141,4.6141,4.6303,4.6687,4.5653,4.5026,4.4916,4.5453,4.5141,4.3908,4.4347,4.3691,4.2049,4.2049,4.1677,2.4986,2.6596,2.8603,3.4833,3.8871,4.1743,4.309,4.3629,4.3708,4.3349,4.3828,4.4227,4.3898,4.3299,4.2761,4.244,4.2141,4.1934,4.2021,4.1656,4.1453,4.1535,4.0902,4.0307,3.9978,3.9713,3.9355,3.8996,3.9017,3.8841,3.8452,3.8123,3.8236,3.9013,3.909,3.953,4.029,4.0782,4.1245,4.1622,4.1649,4.1701,4.1753,4.1202,4.0335,3.9331,3.9745,3.973,3.9495,4.0254,4.13,4.2354,4.232,4.2523,4.2828,4.2422,4.2286,4.2286,4.2286,4.2557,4.2828,4.2422,4.2557,4.2794,4.2422,4.2286,4.2286,4.2286,4.2049,4.1847,4.2185,4.2591,4.2963,4.3308,4.4012,4.4776,4.5372,4.5008,4.4803,4.5399,4.5008,4.4615,4.4615,4.4615,4.4615,4.4615,4.4824,4.5142,4.5477,4.6014,4.6542,4.6842,4.7132,4.7306,4.7306,4.7306,4.7162,4.6744,4.7104,4.7289,4.7252,4.6918,4.668,4.662,4.6145,4.5634,4.5186,4.4732,4.3917,4.2828,4.2828,4.2422,2.5488,2.7255,2.9355,3.6596,3.9738,4.1235,4.2051,4.2611,4.2961,4.2961,4.3509,4.3808,4.3269,4.2641,4.2201,4.2081,4.1602,4.1482,4.2248,4.1614,4.1225,4.1534,4.0331,3.9234,3.8693,3.8754,3.8448,3.7677,3.835,3.8448,3.7677,3.7624,3.7994,3.8773,3.884,3.9496,4.0799,4.0277,4.068,4.1914,4.12,4.0894,4.1009,4.0906,4.0502,3.9891,3.9426,3.9064,3.8941,3.9764,4.0535,4.1271,4.1711,4.1982,4.2083,4.1948,4.1914,4.1914,4.1914,4.1982,4.2083,4.1948,4.2016,4.2083,4.1948,4.1914,4.1914,4.1914,4.1474,4.1136,4.1745,4.2016,4.2252,4.2895,4.3639,4.4463,4.5459,4.5196,4.4934,4.552,4.5169,4.4776,4.4776,4.4776,4.4776,4.4776,4.5196,4.5571,4.5825,4.6751,4.7428,4.7533,4.8015,4.8306,4.8306,4.8306,4.7993,4.7333,4.792,4.8012,4.7333,4.7976,4.8306,4.8306,4.6657,4.6074,4.6553,4.4819,4.3802,4.3593,4.3457,4.2997,2.346,2.7859,3.2796,3.7285,3.905,4.0008,4.1235,4.1594,4.1654,4.1654,4.2201,4.265,4.256,4.1991,4.1324,4.0756,4.0576,4.0637,4.0924,4.0303,4.0137,4.0928,4.0262,3.9723,3.9629,3.9627,3.9314,3.8481,3.9188,3.9283,3.8481,3.8529,3.8929,3.9625,3.9829,3.9963,4.0043,4.0688,4.0819,4.0383,4.0282,4.0248,4.0248,4.0248,3.9792,3.9133,4.0368,4.0121,3.8962,3.9763,4.0518,4.1136,4.062,4.0764,4.1271,4.0654,4.0383,4.0383,4.0383,4.0798,4.1238,4.062,4.0832,4.1238,4.0587,4.0383,4.0383,4.0383,4.0316,4.0282,4.0383,4.0865,4.1373,4.1474,4.2049,4.3268,4.5747,4.579,4.5545,4.6185,4.5765,4.5399,4.5399,4.5399,4.5399,4.5399,4.5477,4.589,4.6999,4.7299,4.7575,4.8114,4.8267,4.8306,4.8306,4.8306,4.8269,4.8159,4.8233,4.8269,4.8159,4.8233,4.8306,4.8306,4.8024,4.7688,4.7277,4.64,4.5425,4.4249,4.3666,4.2997,2.4395,2.8278,3.2258,3.5878,3.7524,3.8631,3.9978,4.0576,4.0935,4.1294,4.1324,4.1384,4.1782,4.1265,4.0726,4.0457,4.0474,4.0628,4.0791,4.0511,4.0484,4.0901,3.9923,3.9235,3.9235,3.9266,3.8982,3.8209,3.8865,3.8953,3.8209,3.8193,3.8544,3.9267,3.9401,3.9593,4.0,4.0373,4.0417,4.0113,4.0113,4.0113,4.0113,4.0113,3.9901,3.9584,4.0298,4.0205,3.961,3.9952,4.0282,4.0527,4.0248,4.0316,4.0527,4.0214,4.0113,4.0113,4.0113,4.0316,4.0553,4.0214,4.0316,4.0493,4.0214,4.0113,4.0113,4.0113,4.0113,4.0113,4.0113,4.0629,4.1204,4.1204,4.1745,4.2712,4.4345,4.4784,4.5076,4.577,4.5425,4.5015,4.5015,4.5015,4.5115,4.5477,4.5765,4.6353,4.7277,4.7695,4.8015,4.8267,4.8306,4.8306,4.8306,4.8306,4.8306,4.8306,4.8306,4.8306,4.8306,4.8306,4.8306,4.8306,4.7975,4.7674,4.7406,4.6401,4.5566,4.5009,4.4367,4.3876,2.4619,2.7141,2.9624,3.3305,3.522,3.6596,3.8302,3.917,3.9768,4.0277,3.9978,3.9841,4.057,4.0244,3.9888,3.9888,3.9864,4.0075,4.0578,4.048,4.0526,4.0998,3.9907,3.9141,3.9141,3.9183,3.8881,3.8133,3.8772,3.8887,3.8104,3.8246,3.864,3.9209,3.9209,3.9473,4.0113,4.0113,4.0113,4.0113,4.0113,4.0113,4.0113,4.0113,4.0113,4.0113,4.0113,4.0113,4.0113,4.0113,4.0113,4.0113,4.0113,4.0113,4.0113,4.0113,4.0113,4.0113,4.0113,4.0113,4.0113,4.0113,4.0113,4.0113,4.0113,4.0113,4.0113,4.0113,4.0113,4.0113,4.0113,4.0493,4.0933,4.0933,4.1339,4.2056,4.3316,4.4019,4.4634,4.555,4.5241,4.4824,4.4824,4.4961,4.5188,4.5673,4.6257,4.691,4.7533,4.8035,4.8306,4.8306,4.8306,4.8306,4.8306,4.8306,4.8306,4.8306,4.8306,4.8306,4.8306,4.8306,4.8306,4.8306,4.7858,4.7653,4.7632,4.6353,4.5749,4.5724,4.4961,4.4615,2.2415,2.34,2.5046,2.9624,3.1779,3.3455,3.6058,3.7105,3.7584,3.7614,3.7584,3.7794,3.8598,3.8614,3.8482,3.8482,3.7978,3.8111,3.9719,3.9359,3.9502,4.1002,4.0518,4.002,4.002,4.0037,3.9688,3.8908,3.9584,3.9688,3.8881,3.9584,3.9978,4.0062,4.0062,4.0062,4.0113,4.0113,4.0113,4.0113,4.0113,4.0113,4.0113,4.0113,4.0113,4.0113,4.0113,4.0113,4.0113,4.0113,4.0113,4.0113,4.0113,4.0113,4.0113,4.0113,4.0113,4.0113,4.0113,4.0113,4.0113,4.0113,4.0113,4.0113,4.0113,4.0113,4.0113,4.0113,4.0113,4.0113,4.0113,4.0146,4.018,4.018,4.018,4.0959,4.3731,4.4366,4.4784,4.6081,4.5865,4.5442,4.5442,4.5915,4.6294,4.6342,4.6932,4.7554,4.819,4.8287,4.8306,4.8306,4.8306,4.8306,4.8306,4.8306,4.8306,4.8306,4.8306,4.8306,4.8306,4.8306,4.8306,4.8306,4.8267,4.8267,4.8267,4.6977,4.6342,4.6318,4.5169,4.4615,2.2114,2.2853,2.3931,2.7705,2.9651,3.121,3.3425,3.51,3.6297,3.6716,3.7135,3.7677,3.8448,3.8565,3.8685,3.9212,3.9503,3.977,3.9881,4.0132,4.0388,4.0476,4.0282,4.0113,4.0113,4.0113,3.9978,3.9688,3.9927,3.9978,3.9688,3.9952,4.0113,4.0113,4.0113,4.0113,4.0113,4.0113,4.0113,4.0113,4.0113,4.0113,4.0113,4.0113,4.0113,4.0113,4.0113,4.0113,4.0113,4.0113,4.0113,4.0113,4.0113,4.0113,4.0113,4.0113,4.0113,4.0113,4.0113,4.0113,4.0113,4.0113,4.0113,4.0113,4.0113,4.0113,4.0113,4.0113,4.0113,4.0113,4.0113,4.0113,4.0214,4.0696,4.0798,4.1349,4.3344,4.4053,4.4618,4.5626,4.5346,4.5035,4.5451,4.5699,4.6112,4.691,4.7255,4.7632,4.8229,4.8306,4.8306,4.8306,4.8306,4.8306,4.8306,4.8306,4.8306,4.8306,4.8306,4.8306,4.8306,4.8306,4.8306,4.8306,4.8306,4.8306,4.8306,4.7449,4.7044,4.7021,4.6161,4.5775,2.1362,2.1684,2.2493,2.5764,2.7081,2.8338,3.118,3.2856,3.4236,3.5604,3.6362,3.7138,3.8122,3.8528,3.8868,3.9396,3.9744,3.9854,3.9616,4.0047,4.0337,4.0121,4.0113,4.0113,4.0113,4.0113,4.0113,4.0113,4.0113,4.0113,4.0113,4.0113,4.0113,4.0113,4.0113,4.0113,4.0113,4.0113,4.0113,4.0113,4.0113,4.0113,4.0113,4.0113,4.0113,4.0113,4.0113,4.0113,4.0113,4.0113,4.0113,4.0113,4.0113,4.0113,4.0113,4.0113,4.0113,4.0113,4.0113,4.0113,4.0113,4.0113,4.0113,4.0113,4.0113,4.0113,4.0113,4.0113,4.0113,4.0113,4.0113,4.0113,4.0282,4.1035,4.1407,4.1914,4.3105,4.3693,4.4215,4.5024,4.4879,4.4803,4.5399,4.5673,4.6161,4.7255,4.7554,4.7838,4.8267,4.8306,4.8306,4.8306,4.8306,4.8306,4.8306,4.8306,4.8306,4.8306,4.8306,4.8306,4.8306,4.8306,4.8306,4.8306,4.8306,4.8453,4.8746,4.7861,4.7406,4.7385,4.6692,4.6389,0.0,0.0,0.0,2.3678,2.4007,2.4747,2.9235,3.0342,3.1166,3.3973,3.5048,3.5968,3.7482,3.8349,3.8859,3.8803,3.8267,3.8104,3.8827,3.8935,3.9236,4.0003,4.0113,4.0113,4.0113,4.0113,4.0113,4.0113,4.0113,4.0113,4.0113,4.0113,4.0079,4.0079,4.0079,4.0079,4.0079,4.0045,4.0045,4.0045,4.0045,4.0045,4.0045,4.0045,4.0045,4.0045,4.0045,4.0045,4.0045,4.0079,4.0113,4.0113,4.0113,4.0113,4.0113,4.0113,4.0113,4.0113,4.0113,4.0113,4.0113,4.0113,4.0113,4.0113,4.0113,4.0113,4.0113,4.0113,4.0113,4.0113,4.0113,4.0113,4.0282,4.1035,4.1745,4.2455,4.3206,4.3375,4.3639,4.4445,4.4615,4.4803,4.5425,4.6014,4.6623,4.732,4.7899,4.8306,4.8306,4.8306,4.8306,4.8306,4.8306,4.8306,4.8306,4.8306,4.8306,4.8306,4.8306,4.8306,4.8306,4.8306,4.8306,4.8306,4.8343,4.8746,4.961,4.8172,4.75,4.7478,4.6809,4.6472,2.058,0.0,0.0,0.0,0.0,0.0,2.456,2.6716,2.8751,2.9965,3.192,3.4015,3.5843,3.7242,3.8269,3.8876,3.9254,3.9532,3.974,3.9765,3.985,4.0087,4.0113,4.0113,4.0113,4.0113,4.0113,4.0113,4.0113,4.0113,4.0113,4.0113,3.9876,3.9309,3.9276,3.9276,3.9276,3.8768,3.8497,3.8497,3.8497,3.8497,3.8497,3.8497,3.8497,3.8497,3.8497,3.8497,3.8599,3.9673,4.0113,4.0113,4.0113,4.0113,4.0113,4.0113,4.0113,4.0113,4.0113,4.0113,4.0113,4.0113,4.0113,4.0113,4.0113,4.0113,4.0113,4.0113,4.0113,4.0113,4.0113,4.0113,4.0282,4.1035,4.1373,4.1711,4.2455,4.3031,4.3639,4.4445,4.4615,4.4934,4.5965,4.6305,4.6796,4.7879,4.8173,4.8306,4.8306,4.8306,4.8306,4.8306,4.8306,4.8306,4.8306,4.8306,4.8306,4.8306,4.8306,4.8306,4.8306,4.8306,4.8306,4.8306,4.893,4.9353,4.961,4.9195,4.9281,4.9846,4.9081,4.8379,2.1184,2.0865,2.0831,2.1694,0.0,0.0,2.3482,2.4769,2.622,2.8459,3.0217,3.2075,3.4276,3.572,3.6911,3.7895,3.8933,3.9774,4.0079,4.0113,4.0113,4.0113,4.0113,4.0113,4.0113,4.0113,4.0113,4.0113,4.0113,3.9977,3.9673,3.9368,3.8971,3.8565,3.8531,3.8531,3.8531,3.8125,3.7922,3.7922,3.7922,3.7922,3.7922,3.7922,3.7922,3.7922,3.7922,3.7922,3.799,3.8836,3.9343,3.9673,3.9977,4.0113,4.0113,4.0113,4.0113,4.0113,4.0113,4.0113,4.0113,4.0113,4.0113,4.0113,4.0113,4.0113,4.0113,4.0113,4.0113,4.0113,4.0113,4.0113,4.0282,4.1035,4.1204,4.1407,4.2117,4.2895,4.3511,4.4012,4.4565,4.5267,4.6257,4.6623,4.7154,4.8134,4.8306,4.8306,4.8306,4.8306,4.8306,4.8306,4.8306,4.8306,4.8306,4.8306,4.8306,4.8306,4.8306,4.8306,4.8306,4.8306,4.8489,4.882,4.9353,4.9941,5.0602,5.0271,5.0325,5.0802,5.0325,4.9811,2.1864,2.0955,2.0603,2.2763,2.1126,0.0,2.3969,2.367,2.3741,2.7784,2.8907,2.984,3.2206,3.3637,3.4754,3.5671,3.7436,3.8989,3.9977,4.0113,4.0113,4.0113,4.0045,3.9977,3.9977,3.991,3.9876,3.9876,3.9876,3.9537,3.8802,3.8227,3.7855,3.7787,3.7787,3.7787,3.7787,3.7686,3.7628,3.7628,3.7628,3.7628,3.7628,3.7628,3.7628,3.7628,3.7628,3.7628,3.7652,3.7753,3.8261,3.9073,3.974,4.0045,4.0113,4.0113,4.0113,4.0113,4.0113,4.0113,4.0113,4.0113,4.0113,4.0113,4.0113,4.0113,4.0113,4.0113,4.0113,4.0113,4.0113,4.0113,4.0282,4.0933,4.1068,4.1271,4.1914,4.2625,4.3172,4.324,4.4426,4.5622,4.627,4.691,4.7512,4.8209,4.8306,4.8306,4.8306,4.8306,4.8306,4.8306,4.8306,4.8306,4.8306,4.8306,4.8306,4.8306,4.8306,4.8306,4.8306,4.8379,4.882,4.9574,4.9794,5.0602,5.2123,5.1426,5.1022,5.0949,5.0949,5.0875,2.2896,2.2546,2.2378,2.1493,2.1186,0.0,2.0228,2.1006,2.2143,2.2992,2.4492,2.6146,2.7636,2.9935,3.1323,3.0478,3.3815,3.7336,3.9758,4.0113,4.0113,4.0113,3.9571,3.9208,3.9208,3.8667,3.8328,3.8328,3.8328,3.799,3.7269,3.7652,3.7618,3.7032,3.7032,3.7032,3.7032,3.6366,3.6039,3.6039,3.6039,3.6039,3.6039,3.6039,3.6039,3.6039,3.6039,3.6039,3.6107,3.6738,3.7787,3.9005,3.914,3.9571,4.0113,4.0113,4.0113,4.0113,4.0113,4.0113,4.0113,4.0113,4.0113,4.0113,4.0113,4.0113,4.0113,4.0113,4.0113,4.0113,4.0113,4.0113,4.0146,4.0282,4.0316,4.035,4.0519,4.1102,4.1813,4.2388,4.3742,4.5115,4.6233,4.6507,4.6999,4.8114,4.8306,4.8306,4.8306,4.8306,4.8306,4.8306,4.8306,4.8306,4.8306,4.8306,4.8306,4.8306,4.8306,4.8306,4.8306,4.8967,4.9427,4.961,5.0896,5.2013,5.2968,5.2821,5.2417,5.1756,5.1756,5.1426,2.3125,2.2596,2.2444,2.2204,2.1665,0.0,0.0,2.1665,2.2053,2.3254,2.3855,2.473,2.6579,2.7913,2.8818,2.9146,3.1554,3.391,3.5522,3.7643,3.9005,3.9005,3.8667,3.8464,3.8464,3.8125,3.7922,3.7922,3.755,3.7178,3.6829,3.6772,3.6603,3.6197,3.6197,3.6197,3.6197,3.5802,3.56,3.56,3.56,3.56,3.56,3.56,3.56,3.56,3.56,3.56,3.5633,3.6062,3.6874,3.798,3.87,3.9445,4.0113,4.0113,4.0113,4.0113,4.0113,4.0113,4.0113,4.0113,4.0113,4.0113,4.0113,4.0113,4.0113,4.0113,4.0113,4.0113,4.0113,4.0113,4.0113,4.0113,4.0113,4.0113,4.0113,4.0663,4.1305,4.1677,4.2658,4.4065,4.6068,4.6932,4.7554,4.8192,4.8306,4.8306,4.8306,4.8306,4.8306,4.8306,4.8306,4.8306,4.8306,4.8306,4.8306,4.8306,4.8306,4.8489,4.893,4.939,4.9978,5.0785,5.1977,5.2821,5.3203,5.3203,5.3004,5.2601,5.2601,5.238,2.364,2.2862,2.2682,2.358,2.2774,2.2234,0.0,0.0,0.0,2.4357,2.3931,2.3849,2.5842,2.6103,2.6424,2.7689,2.9066,2.9964,2.9912,3.3384,3.6148,3.6726,3.6783,3.6874,3.7043,3.6907,3.6941,3.7212,3.6535,3.6288,3.6535,3.596,3.5532,3.5397,3.5532,3.5532,3.5397,3.5532,3.56,3.56,3.5464,3.5397,3.5397,3.5397,3.5397,3.5397,3.5532,3.56,3.56,3.56,3.6062,3.6931,3.8115,3.9131,3.991,3.991,3.9977,4.0113,4.0113,4.0113,4.0113,4.0113,4.0113,4.0113,4.0113,4.0113,4.0113,4.0113,4.0154,4.0254,4.0254,4.0319,4.0417,4.0417,4.0417,4.0392,4.0303,4.073,4.1155,4.1196,4.1808,4.3117,4.5729,4.7047,4.7853,4.8231,4.8306,4.8306,4.8306,4.8306,4.8306,4.8306,4.8306,4.8306,4.8306,4.8306,4.8306,4.8306,4.8453,4.8857,4.9574,4.9904,5.0749,5.2197,5.2858,5.3203,5.3203,5.3203,5.3203,5.3203,5.3203,5.3203,2.5794,2.5226,2.5046,2.4605,2.5114,2.5234,2.3348,0.0,2.3733,2.2385,0.0,2.2004,2.2264,0.0,0.0,2.1961,2.472,2.6492,2.4827,2.707,2.9848,3.2513,3.2895,3.3186,3.3863,3.3322,3.3478,3.4776,3.4201,3.437,3.5667,3.5633,3.5295,3.4641,3.5284,3.5318,3.4607,3.5261,3.56,3.56,3.4945,3.4607,3.4607,3.4607,3.4607,3.4641,3.5295,3.56,3.56,3.56,3.6062,3.6829,3.6998,3.7912,3.9106,3.9106,3.9537,4.0113,4.0113,4.0113,4.0113,4.0113,4.0113,4.0113,4.0113,4.0113,4.0113,4.0113,4.0441,4.0803,4.0803,4.1218,4.1617,4.1617,4.1617,4.1464,4.0943,4.0873,4.0982,4.1172,4.1747,4.2914,4.5069,4.5546,4.6241,4.8024,4.8306,4.8306,4.8306,4.8306,4.8306,4.8306,4.8306,4.8306,4.8306,4.8306,4.8306,4.8306,4.9003,4.95,4.961,5.0969,5.216,5.3078,5.313,5.3203,5.3203,5.3203,5.3203,5.3203,5.3203,5.3203,2.5955,2.6119,2.6579,2.5826,2.6069,2.6226,2.5205,2.4746,2.4411,2.4043,0.0,0.0,0.0,0.0,0.0,0.0,2.4008,2.4761,2.3331,2.5099,2.7388,2.9668,3.0349,3.1187,3.2624,3.209,3.2273,3.3761,3.3186,3.3389,3.4878,3.4979,3.5013,3.5148,3.5013,3.5013,3.5148,3.4607,3.4539,3.4945,3.4201,3.3863,3.3863,3.4303,3.4506,3.4539,3.5261,3.56,3.56,3.56,3.5802,3.6096,3.6096,3.728,3.9039,3.9503,3.9842,4.0113,4.0113,4.0113,4.0113,4.0113,4.0113,4.0113,4.0113,4.0294,4.0552,4.0552,4.099,4.1407,4.1407,4.1617,4.181,4.181,4.181,4.1603,4.1024,4.092,4.0836,4.0612,4.112,4.2162,4.3849,4.511,4.644,4.8043,4.8306,4.8306,4.8306,4.8306,4.8306,4.8306,4.8306,4.8489,4.9003,4.86,4.8526,4.9003,4.9848,5.0508,5.0969,5.2087,5.2858,5.3167,5.3203,5.3203,5.3203,5.3203,5.3203,5.3203,5.3203,5.3203,2.6808,2.7188,2.7896,2.674,2.6616,2.6675,2.6147,2.5528,2.5146,2.5309,2.5644,0.0,0.0,0.0,0.0,0.0,0.0,2.3906,2.2748,2.393,2.5426,2.6667,2.774,2.892,3.046,3.022,3.061,3.2231,3.1942,3.2361,3.3816,3.41,3.4438,3.4957,3.4472,3.4472,3.4991,3.4134,3.3863,3.4201,3.366,3.3288,3.3119,3.3626,3.402,3.4235,3.4979,3.5397,3.56,3.56,3.56,3.5633,3.5836,3.7077,3.8768,3.93,3.9774,4.0113,4.0113,4.0113,4.0113,4.0113,4.0113,4.0113,4.0113,4.0456,4.092,4.092,4.1429,4.2041,4.2041,4.2144,4.2266,4.2266,4.2144,4.1874,4.1273,4.1138,4.1013,4.0501,4.0985,4.1911,4.3356,4.4949,4.6483,4.7829,4.8173,4.8306,4.8306,4.8526,4.8563,4.8343,4.8526,4.882,4.9206,4.8893,4.9114,5.0198,5.0582,5.1242,5.227,5.2894,5.3203,5.3203,5.3203,5.3203,5.3203,5.3203,5.3203,5.3203,5.3203,5.3203,2.9382,2.9022,2.9052,2.7076,2.6951,2.6826,2.5047,2.5523,2.6022,2.4867,2.4634,2.4792,2.5203,0.0,0.0,0.0,0.0,0.0,0.0,2.2703,2.3032,2.3154,2.4626,2.5816,2.6257,2.6621,2.7633,2.9483,2.9964,3.0818,3.2293,3.3051,3.3457,3.3491,3.3457,3.3457,3.3491,3.4134,3.41,3.3423,3.3423,3.3017,3.2327,3.2361,3.2767,3.3491,3.4201,3.4945,3.56,3.56,3.56,3.5667,3.6468,3.7246,3.7956,3.7956,3.887,4.0113,4.0113,4.0113,4.0113,4.0113,4.0113,4.0113,4.0113,4.0456,4.092,4.092,4.1768,4.2655,4.2655,4.3069,4.3463,4.3463,4.3069,4.2518,4.1895,4.1789,4.1652,4.1257,4.1644,4.2535,4.4098,4.4893,4.5802,4.7234,4.7935,4.8306,4.8306,4.904,4.9243,4.8379,4.904,4.9224,4.8416,4.9077,5.0235,5.1793,5.1206,5.1499,5.3093,5.3188,5.3203,5.3203,5.3203,5.3203,5.3203,5.3203,5.3203,5.3203,5.3203,5.3203,3.1238,3.1585,3.1686,2.9564,2.9134,2.8645,2.6453,2.6382,2.6455,2.5304,2.6055,2.6704,0.0,0.0,0.0,0.0,0.0,0.0,0.0,2.2655,2.2711,2.3806,2.4047,2.4718,2.6353,2.6185,2.6641,2.8251,2.8986,3.0025,3.1495,3.2273,3.3119,3.41,3.3186,3.3119,3.41,3.2916,3.2442,3.2666,3.2171,3.1799,3.1616,3.2577,3.3152,3.3491,3.4709,3.5363,3.56,3.56,3.56,3.5633,3.5926,3.6772,3.7956,3.8464,3.9242,4.0113,4.0113,4.0113,4.0113,4.0113,4.0113,4.0154,4.0504,4.1036,4.1595,4.1979,4.2638,4.3232,4.3232,4.3356,4.3515,4.3515,4.3356,4.3087,4.2501,4.2489,4.2361,4.1871,4.2415,4.314,4.3678,4.4664,4.5723,4.6623,4.7299,4.7715,4.7715,4.8311,4.8636,4.8343,4.8563,4.8683,4.8499,4.924,5.0138,5.1149,5.1463,5.2087,5.3188,5.3203,5.3203,5.3203,5.3203,5.3203,5.3203,5.3203,5.3203,5.3203,5.3203,5.3203,3.2484,3.2914,3.3006,3.0904,3.035,2.975,2.7752,2.7357,2.7306,2.6871,2.7105,2.7571,0.0,0.0,0.0,0.0,0.0,0.0,0.0,2.3248,2.3231,2.4285,2.3774,2.4179,2.6269,2.5713,2.5848,2.7461,2.821,2.9093,3.0364,3.1379,3.2577,3.4066,3.2936,3.3004,3.4472,3.3085,3.2476,3.2679,3.2205,3.1968,3.2002,3.2713,3.3288,3.3829,3.481,3.5363,3.56,3.56,3.56,3.5633,3.5926,3.6806,3.7956,3.843,3.9242,4.0113,4.0113,4.0113,4.0113,4.0113,4.0229,4.0466,4.0803,4.1451,4.2221,4.2596,4.3105,4.3515,4.3515,4.3515,4.3515,4.3515,4.3339,4.3124,4.277,4.2992,4.318,4.287,4.3656,4.4353,4.4168,4.4905,4.5622,4.6014,4.6635,4.711,4.7363,4.8265,4.8676,4.836,4.882,4.9232,4.9356,4.938,5.0054,5.1568,5.1867,5.2344,5.3167,5.3203,5.3335,5.3628,5.3371,5.3314,5.3628,5.3314,5.3203,5.3203,5.3203,5.3203]}]]